[[{"header":{"parameterUnit":"m.s-1","parameterCategory":1,"la1":31.0,"la2":29.5877,"lo1":-88.7671,"lo2":-86.6584,"dy":0.0162,"dx":0.0185,"nx":115,"ny":88,"refTime":"2023-03-23T06:00:00:Z","depth":0,"parameterNumber":2,"parameterNumberName":"U-component_of_WINDS"},"data":[0.0,0.0,0.0,0.0,0.0,0.0,0.0,0.0,0.0,0.0,0.0,0.0,0.0,0.0,0.0,0.0,0.0,0.0,0.0,0.0,0.0,0.0,0.0,0.0,0.0,0.0,0.0,0.0,0.0,0.0,0.0,0.0,0.0,0.0,0.0,0.0,0.0,0.0,0.0,0.0,0.0,0.0,0.0,0.0,0.0,0.0,0.0,0.0,0.0,0.0,0.0,0.0,0.0,0.0,0.0,0.0,0.0,0.0,0.0,0.0,0.0,0.0,0.0,0.0,0.0,0.0,0.0,0.0,0.0,0.0,0.0,0.0,0.0,0.0,0.0,0.0,0.0,0.0,0.0,0.0,0.0,0.0,0.0,0.0,0.0,0.0,0.0,0.0,0.0,0.0,0.0,0.0,0.0,0.0,0.0,0.0,0.0,0.0,0.0,0.0,0.0,0.0,0.0,0.0,0.0,0.0,0.0,0.0,0.0,0.0,0.0,0.0,0.0,0.0,0.0,0.0,0.0,0.0,0.0,0.0,0.0,0.0,0.0,0.0,0.0,0.0,0.0,0.0,0.0,0.0,0.0,0.0,0.0,0.0,0.0,0.0,0.0,0.0,0.0,0.0,0.0,0.0,0.0,0.0,0.0,0.0,0.0,0.0,0.0,0.0,0.0,0.0,0.0,0.0,0.0,0.0,0.0,0.0,0.0,0.0,0.0,0.0,0.0,0.0,0.0,0.0,0.0,0.0,0.0,0.0,0.0,0.0,0.0,0.0,0.0,0.0,0.0,0.0,0.0,0.0,0.0,0.0,0.0,0.0,0.0,0.0,0.0,0.0,0.0,0.0,0.0,0.0,0.0,0.0,0.0,0.0,0.0,0.0,0.0,0.0,0.0,0.0,0.0,0.0,0.0,0.0,0.0,0.0,0.0,0.0,0.0,0.0,0.0,0.0,0.0,0.0,0.0,0.0,0.0,0.0,0.0,0.0,0.0,0.0,0.0,0.0,0.0,0.0,0.0,0.0,0.0,0.0,0.0,0.0,0.0,0.0,0.0,0.0,0.0,0.0,0.0,0.0,0.0,0.0,0.0,0.0,0.0,0.0,0.0,0.0,0.0,0.0,0.0,0.0,0.0,0.0,0.0,0.0,0.0,0.0,0.0,0.0,0.0,0.0,0.0,0.0,0.0,0.0,0.0,0.0,0.0,0.0,0.0,0.0,0.0,0.0,0.0,0.0,0.0,0.0,0.0,0.0,0.0,0.0,0.0,0.0,0.0,0.0,0.0,0.0,0.0,0.0,0.0,0.0,0.0,0.0,0.0,0.0,0.0,0.0,0.0,0.0,0.0,0.0,0.0,0.0,0.0,0.0,0.0,0.0,0.0,0.0,0.0,0.0,0.0,0.0,0.0,0.0,0.0,0.0,0.0,0.0,0.0,0.0,0.0,0.0,0.0,0.0,0.0,0.0,0.0,0.0,0.0,0.0,0.0,0.0,0.0,0.0,0.0,0.0,0.0,0.0,0.0,0.0,0.0,0.0,0.0,0.0,0.0,0.0,0.0,0.0,0.0,0.0,0.0,0.0,0.0,0.0,0.0,0.0,0.0,0.0,0.0,0.0,0.0,0.0,0.0,0.0,0.0,0.0,0.0,0.0,0.0,0.0,0.0,0.0,0.0,0.0,0.0,0.0,0.0,0.0,0.0,0.0,0.0,0.0,0.0,0.0,0.0,0.0,0.0,0.0,0.0,0.0,0.0,0.0,0.0,0.0,0.0,0.0,0.0,0.0,0.0,0.0,0.0,0.0,0.0,0.0,0.0,0.0,0.0,0.0,0.0,0.0,0.0,0.0,0.0,0.0,0.0,0.0,0.0,0.0,0.0,0.0,0.0,0.0,0.0,0.0,0.0,0.0,0.0,0.0,0.0,0.0,0.0,0.0,0.0,0.0,0.0,0.0,0.0,0.0,0.0,0.0,0.0,0.0,0.0,0.0,0.0,0.0,0.0,0.0,0.0,0.0,0.0,0.0,0.0,0.0,0.0,0.0,0.0,0.0,0.0,0.0,0.0,0.0,0.0,0.0,0.0,0.0,0.0,0.0,0.0,0.0,0.0,0.0,0.0,0.0,0.0,0.0,0.0,0.0,0.0,0.0,0.0,0.0,0.0,0.0,0.0,0.0,0.0,0.0,0.0,0.0,0.0,0.0,0.0,0.0,0.0,0.0,0.0,0.0,0.0,0.0,0.0,0.0,0.0,0.0,0.0,0.0,0.0,0.0,0.0,0.0,0.0,0.0,0.0,0.0,0.0,0.0,0.0,0.0,0.0,0.0,0.0,0.0,0.0,0.0,0.0,0.0,0.0,0.0,0.0,0.0,0.0,0.0,0.0,0.0,0.0,0.0,0.0,0.0,0.0,0.0,0.0,0.0,0.0,0.0,0.0,0.0,0.0,0.0,0.0,0.0,0.0,0.0,0.0,0.0,0.0,0.0,0.0,0.0,0.0,0.0,0.0,0.0,0.0,0.0,0.0,0.0,0.0,0.0,0.0,0.0,0.0,0.0,0.0,0.0,0.0,0.0,0.0,0.0,0.0,0.0,0.0,0.0,0.0,0.0,0.0,0.0,0.0,0.0,0.0,0.0,0.0,0.0,0.0,0.0,0.0,0.0,0.0,0.0,0.0,0.0,0.0,0.0,0.0,0.0,0.0,0.0,0.0,0.0,0.0,0.0,0.0,0.0,0.0,0.0,0.0,0.0,0.0,0.0,0.0,0.0,0.0,0.0,0.0,0.0,0.0,0.0,0.0,0.0,0.0,0.0,0.0,0.0,0.0,0.0,0.0,0.0,0.0,0.0,0.0,0.0,0.0,0.0,0.0,0.0,0.0,0.0,0.0,0.0,0.0,0.0,0.0,0.0,0.0,0.0,0.0,0.0,0.0,0.0,0.0,0.0,0.0,0.0,0.0,0.0,0.0,0.0,0.0,0.0,0.0,0.0,0.0,0.0,0.0,0.0,0.0,0.0,0.0,0.0,0.0,0.0,0.0,0.0,0.0,0.0,0.0,0.0,0.0,0.0,0.0,0.0,0.0,0.0,0.0,0.0,0.0,0.0,0.0,0.0,0.0,0.0,0.0,0.0,0.0,0.0,0.0,0.0,0.0,0.0,0.0,0.0,0.0,0.0,0.0,0.0,0.0,0.0,0.0,0.0,0.0,0.0,0.0,0.0,0.0,0.0,0.0,0.0,0.0,0.0,0.0,0.0,0.0,0.0,0.0,0.0,0.0,0.0,0.0,0.0,0.0,0.0,0.0,0.0,0.0,0.0,0.0,0.0,0.0,0.0,0.0,0.0,0.0,0.0,0.0,0.0,0.0,0.0,0.0,0.0,0.0,0.0,0.0,0.0,0.0,0.0,0.0,0.0,0.0,0.0,0.0,0.0,0.0,0.0,0.0,0.0,0.0,0.0,0.0,0.0,0.0,0.0,0.0,0.0,0.0,0.0,0.0,0.0,0.0,0.0,0.0,0.0,0.0,0.0,0.0,0.0,0.0,0.0,0.0,0.0,0.0,0.0,0.0,0.0,0.0,0.0,0.0,0.0,0.0,0.0,0.0,0.0,0.0,0.0,0.0,0.0,0.0,0.0,0.0,0.0,0.0,0.0,0.0,0.0,0.0,0.0,0.0,0.0,0.0,0.0,0.0,0.0,0.0,0.0,0.0,0.0,0.0,0.0,0.0,0.0,0.0,0.0,0.0,0.0,0.0,0.0,0.0,0.0,0.0,0.0,0.0,0.0,0.0,0.0,0.0,0.0,0.0,0.0,0.0,0.0,0.0,0.0,0.0,0.0,0.0,0.0,0.0,0.0,0.0,0.0,0.0,0.0,0.0,0.0,0.0,0.0,0.0,0.0,0.0,0.0,0.0,0.0,0.0,0.0,0.0,0.0,0.0,0.0,0.0,0.0,0.0,0.0,0.0,0.0,0.0,0.0,0.0,0.0,0.0,0.0,0.0,0.0,0.0,0.0,0.0,0.0,0.0,0.0,0.0,0.0,0.0,0.0,0.0,0.0,0.0,0.0,0.0,0.0,0.0,0.0,0.0,0.0,0.0,0.0,0.0,0.0,0.0,0.0,0.0,0.0,0.0,0.0,0.0,0.0,0.0,0.0,0.0,0.0,0.0,0.0,0.0,0.0,0.0,0.0,0.0,0.0,0.0,0.0,0.0,0.0,0.0,0.0,0.0,0.0,0.0,0.0,0.0,0.0,0.0,0.0,0.0,0.0,0.0,0.0,-5.8307,0.0,0.0,0.0,0.0,0.0,0.0,0.0,0.0,0.0,0.0,0.0,0.0,0.0,0.0,0.0,0.0,0.0,0.0,0.0,0.0,0.0,0.0,0.0,0.0,0.0,0.0,0.0,0.0,0.0,0.0,0.0,0.0,0.0,0.0,0.0,0.0,0.0,0.0,0.0,0.0,0.0,0.0,0.0,0.0,0.0,0.0,0.0,0.0,0.0,0.0,0.0,0.0,0.0,0.0,0.0,0.0,0.0,0.0,0.0,0.0,0.0,0.0,0.0,0.0,0.0,0.0,0.0,0.0,0.0,0.0,0.0,0.0,0.0,0.0,0.0,0.0,0.0,0.0,0.0,0.0,0.0,0.0,0.0,0.0,0.0,0.0,0.0,0.0,0.0,0.0,0.0,0.0,0.0,0.0,0.0,0.0,0.0,0.0,0.0,0.0,0.0,0.0,0.0,0.0,0.0,0.0,0.0,0.0,0.0,0.0,-6.2113,-6.2059,-5.8726,-5.7384,-5.8355,0.0,0.0,0.0,0.0,0.0,0.0,0.0,0.0,0.0,0.0,0.0,0.0,0.0,0.0,0.0,0.0,0.0,0.0,0.0,0.0,0.0,0.0,0.0,0.0,0.0,0.0,0.0,0.0,0.0,0.0,0.0,0.0,0.0,0.0,0.0,0.0,0.0,0.0,0.0,0.0,0.0,0.0,0.0,0.0,0.0,0.0,0.0,0.0,0.0,0.0,0.0,0.0,0.0,0.0,0.0,0.0,0.0,0.0,0.0,0.0,0.0,0.0,0.0,0.0,0.0,0.0,0.0,0.0,0.0,0.0,0.0,0.0,0.0,0.0,0.0,0.0,0.0,0.0,0.0,0.0,0.0,0.0,0.0,0.0,0.0,0.0,0.0,0.0,0.0,0.0,0.0,0.0,0.0,0.0,0.0,0.0,0.0,0.0,0.0,0.0,0.0,0.0,0.0,0.0,0.0,0.0,0.0,0.0,0.0,0.0,0.0,0.0,-5.8781,-5.7208,-5.7986,0.0,0.0,0.0,0.0,0.0,0.0,0.0,0.0,0.0,0.0,0.0,0.0,0.0,0.0,0.0,0.0,0.0,0.0,0.0,0.0,0.0,0.0,0.0,0.0,0.0,0.0,0.0,0.0,0.0,0.0,0.0,0.0,0.0,0.0,0.0,0.0,0.0,0.0,0.0,0.0,0.0,0.0,0.0,0.0,0.0,0.0,0.0,0.0,0.0,0.0,0.0,0.0,0.0,0.0,0.0,0.0,0.0,0.0,0.0,0.0,0.0,0.0,0.0,0.0,0.0,0.0,0.0,0.0,0.0,0.0,0.0,0.0,0.0,0.0,0.0,0.0,0.0,0.0,0.0,0.0,0.0,0.0,0.0,0.0,0.0,0.0,0.0,0.0,0.0,0.0,0.0,0.0,0.0,0.0,0.0,0.0,0.0,0.0,0.0,0.0,0.0,0.0,0.0,0.0,0.0,0.0,0.0,0.0,0.0,0.0,-6.3205,-6.3166,-6.132,0.0,-5.7225,0.0,0.0,0.0,0.0,0.0,0.0,0.0,0.0,0.0,0.0,0.0,0.0,0.0,0.0,0.0,0.0,0.0,0.0,0.0,0.0,0.0,0.0,0.0,0.0,0.0,0.0,0.0,0.0,0.0,0.0,0.0,0.0,0.0,0.0,0.0,0.0,0.0,0.0,0.0,0.0,0.0,0.0,0.0,0.0,0.0,0.0,0.0,0.0,0.0,0.0,0.0,0.0,0.0,0.0,0.0,0.0,0.0,0.0,0.0,0.0,0.0,0.0,0.0,0.0,0.0,0.0,0.0,0.0,0.0,0.0,0.0,0.0,0.0,0.0,0.0,0.0,0.0,0.0,0.0,0.0,0.0,0.0,0.0,0.0,0.0,0.0,0.0,0.0,0.0,0.0,0.0,0.0,0.0,0.0,0.0,0.0,0.0,0.0,0.0,0.0,0.0,0.0,0.0,0.0,0.0,0.0,0.0,0.0,0.0,0.0,-6.2589,-6.2589,-6.0935,-5.8627,0.0,0.0,0.0,0.0,0.0,0.0,0.0,0.0,0.0,0.0,0.0,0.0,0.0,0.0,0.0,0.0,0.0,0.0,0.0,0.0,0.0,0.0,0.0,0.0,0.0,0.0,0.0,0.0,0.0,0.0,0.0,0.0,0.0,0.0,0.0,0.0,0.0,0.0,0.0,0.0,0.0,0.0,0.0,0.0,0.0,0.0,0.0,0.0,0.0,0.0,0.0,0.0,0.0,0.0,0.0,0.0,0.0,0.0,0.0,0.0,0.0,0.0,0.0,0.0,0.0,0.0,0.0,0.0,0.0,0.0,0.0,0.0,0.0,0.0,0.0,0.0,0.0,0.0,0.0,0.0,0.0,0.0,0.0,0.0,0.0,0.0,0.0,0.0,0.0,0.0,0.0,0.0,0.0,0.0,0.0,0.0,0.0,0.0,0.0,0.0,0.0,0.0,0.0,0.0,0.0,0.0,0.0,0.0,0.0,0.0,-6.237,-6.2101,-6.2024,-5.9973,-5.755,-5.4934,0.0,0.0,0.0,0.0,0.0,0.0,0.0,0.0,0.0,0.0,0.0,0.0,0.0,0.0,0.0,0.0,0.0,0.0,0.0,0.0,0.0,0.0,0.0,0.0,0.0,0.0,0.0,0.0,0.0,0.0,0.0,0.0,0.0,0.0,0.0,0.0,0.0,0.0,0.0,0.0,0.0,0.0,0.0,0.0,0.0,0.0,0.0,0.0,0.0,0.0,0.0,0.0,0.0,0.0,0.0,0.0,0.0,0.0,0.0,0.0,0.0,0.0,0.0,0.0,0.0,0.0,0.0,0.0,0.0,0.0,0.0,0.0,0.0,0.0,0.0,0.0,0.0,0.0,0.0,0.0,0.0,0.0,0.0,0.0,0.0,0.0,0.0,0.0,0.0,0.0,0.0,0.0,0.0,0.0,0.0,0.0,0.0,0.0,0.0,0.0,0.0,0.0,0.0,0.0,0.0,0.0,0.0,0.0,-6.4243,-6.2858,-6.2101,-6.1985,-5.8869,-5.6637,0.0,0.0,0.0,0.0,0.0,0.0,0.0,0.0,0.0,0.0,0.0,0.0,0.0,0.0,0.0,0.0,0.0,0.0,0.0,0.0,0.0,0.0,0.0,0.0,0.0,0.0,0.0,0.0,0.0,0.0,0.0,0.0,0.0,0.0,0.0,0.0,0.0,0.0,0.0,0.0,0.0,0.0,0.0,0.0,0.0,0.0,0.0,0.0,0.0,0.0,0.0,0.0,0.0,0.0,0.0,0.0,0.0,0.0,0.0,0.0,0.0,0.0,0.0,0.0,0.0,0.0,0.0,0.0,0.0,0.0,0.0,0.0,0.0,0.0,0.0,0.0,0.0,0.0,0.0,0.0,0.0,0.0,0.0,0.0,0.0,0.0,0.0,0.0,0.0,0.0,0.0,0.0,0.0,0.0,0.0,0.0,0.0,0.0,0.0,0.0,0.0,0.0,0.0,0.0,0.0,0.0,0.0,0.0,0.0,-6.1243,-6.0742,-6.0165,-5.9627,-5.7945,-5.6368,0.0,0.0,0.0,0.0,0.0,0.0,0.0,0.0,0.0,0.0,0.0,0.0,0.0,0.0,0.0,0.0,0.0,0.0,0.0,0.0,0.0,0.0,0.0,0.0,0.0,0.0,0.0,0.0,0.0,0.0,0.0,0.0,0.0,0.0,0.0,0.0,0.0,0.0,0.0,0.0,0.0,0.0,0.0,0.0,0.0,0.0,0.0,0.0,0.0,0.0,0.0,0.0,0.0,0.0,0.0,0.0,0.0,0.0,0.0,0.0,0.0,0.0,0.0,0.0,0.0,0.0,0.0,0.0,0.0,0.0,0.0,0.0,0.0,0.0,0.0,0.0,0.0,0.0,0.0,0.0,0.0,0.0,0.0,0.0,0.0,0.0,0.0,0.0,0.0,0.0,0.0,0.0,0.0,0.0,0.0,0.0,0.0,0.0,0.0,0.0,0.0,0.0,0.0,0.0,0.0,0.0,0.0,0.0,0.0,-5.9054,0.0,-5.9127,-5.828,-5.6934,-5.5511,0.0,0.0,0.0,0.0,0.0,0.0,0.0,0.0,0.0,0.0,0.0,0.0,0.0,0.0,0.0,0.0,0.0,0.0,0.0,0.0,0.0,0.0,0.0,0.0,0.0,0.0,0.0,0.0,0.0,0.0,0.0,0.0,0.0,0.0,0.0,0.0,0.0,0.0,0.0,0.0,0.0,0.0,0.0,0.0,0.0,0.0,0.0,0.0,0.0,0.0,0.0,0.0,0.0,0.0,0.0,0.0,0.0,0.0,0.0,0.0,0.0,0.0,0.0,0.0,0.0,0.0,0.0,0.0,0.0,0.0,0.0,0.0,0.0,0.0,0.0,0.0,0.0,0.0,0.0,0.0,0.0,0.0,0.0,0.0,0.0,0.0,0.0,0.0,0.0,0.0,0.0,0.0,0.0,0.0,0.0,0.0,0.0,0.0,0.0,0.0,0.0,0.0,0.0,0.0,0.0,0.0,0.0,0.0,-5.7285,-5.815,-5.8965,-5.9027,-5.828,-5.5885,-5.4164,0.0,0.0,0.0,0.0,0.0,0.0,0.0,0.0,0.0,0.0,0.0,0.0,0.0,0.0,0.0,0.0,0.0,0.0,0.0,0.0,0.0,0.0,0.0,0.0,0.0,0.0,0.0,0.0,0.0,0.0,0.0,0.0,0.0,0.0,0.0,0.0,0.0,0.0,0.0,0.0,0.0,0.0,0.0,0.0,0.0,0.0,0.0,0.0,0.0,0.0,0.0,0.0,0.0,0.0,0.0,0.0,0.0,0.0,0.0,0.0,0.0,0.0,0.0,0.0,0.0,0.0,0.0,0.0,0.0,0.0,0.0,0.0,0.0,0.0,0.0,0.0,0.0,0.0,0.0,0.0,0.0,0.0,0.0,0.0,0.0,0.0,0.0,0.0,0.0,0.0,0.0,0.0,0.0,0.0,0.0,0.0,0.0,0.0,0.0,0.0,0.0,0.0,0.0,0.0,0.0,0.0,0.0,0.0,0.0,-5.6318,-5.7072,-5.8003,-5.8904,-5.5988,-5.4809,0.0,0.0,0.0,0.0,0.0,0.0,0.0,0.0,0.0,0.0,0.0,0.0,0.0,0.0,0.0,0.0,0.0,0.0,0.0,0.0,0.0,0.0,0.0,0.0,0.0,0.0,0.0,0.0,0.0,0.0,0.0,0.0,0.0,0.0,0.0,0.0,0.0,0.0,0.0,0.0,0.0,0.0,0.0,0.0,0.0,0.0,0.0,0.0,0.0,0.0,0.0,0.0,0.0,0.0,0.0,0.0,0.0,0.0,0.0,0.0,0.0,0.0,0.0,0.0,0.0,0.0,0.0,0.0,0.0,0.0,0.0,0.0,0.0,0.0,0.0,0.0,0.0,0.0,0.0,0.0,0.0,0.0,0.0,0.0,0.0,0.0,0.0,0.0,0.0,0.0,0.0,0.0,0.0,0.0,0.0,0.0,0.0,0.0,0.0,0.0,0.0,0.0,0.0,0.0,0.0,0.0,0.0,0.0,0.0,-5.7369,-5.8127,-5.8975,-5.9804,-5.7512,-5.6142,-5.5945,0.0,0.0,0.0,0.0,0.0,0.0,0.0,0.0,0.0,0.0,0.0,0.0,0.0,0.0,0.0,0.0,0.0,0.0,0.0,0.0,0.0,0.0,0.0,0.0,0.0,0.0,0.0,0.0,0.0,0.0,0.0,0.0,0.0,0.0,0.0,0.0,0.0,0.0,0.0,0.0,0.0,0.0,0.0,0.0,0.0,0.0,0.0,0.0,0.0,0.0,0.0,0.0,0.0,0.0,0.0,0.0,0.0,0.0,0.0,0.0,0.0,0.0,0.0,0.0,0.0,0.0,0.0,0.0,0.0,0.0,0.0,0.0,0.0,0.0,0.0,0.0,0.0,0.0,0.0,0.0,0.0,0.0,0.0,0.0,0.0,0.0,0.0,0.0,0.0,0.0,0.0,0.0,0.0,0.0,0.0,0.0,0.0,0.0,0.0,0.0,0.0,0.0,0.0,0.0,0.0,0.0,0.0,0.0,-6.0714,-6.1888,-6.208,-6.0979,-6.0021,-5.7973,0.0,0.0,0.0,0.0,0.0,0.0,0.0,0.0,0.0,0.0,0.0,0.0,0.0,0.0,0.0,0.0,0.0,0.0,0.0,0.0,0.0,0.0,0.0,0.0,0.0,0.0,0.0,0.0,0.0,0.0,0.0,0.0,0.0,0.0,0.0,0.0,0.0,0.0,0.0,0.0,0.0,0.0,0.0,0.0,0.0,0.0,0.0,0.0,0.0,0.0,0.0,0.0,0.0,0.0,0.0,0.0,0.0,0.0,0.0,0.0,0.0,0.0,0.0,0.0,0.0,0.0,0.0,0.0,0.0,0.0,0.0,0.0,0.0,0.0,0.0,0.0,0.0,0.0,0.0,0.0,0.0,0.0,0.0,0.0,0.0,0.0,0.0,0.0,0.0,0.0,0.0,0.0,0.0,0.0,0.0,0.0,0.0,0.0,0.0,0.0,0.0,0.0,0.0,0.0,0.0,0.0,0.0,0.0,0.0,-6.4176,-6.7351,-6.775,-6.5049,-6.1853,-5.9604,0.0,0.0,0.0,0.0,0.0,0.0,0.0,0.0,0.0,0.0,0.0,0.0,0.0,0.0,0.0,0.0,0.0,0.0,0.0,0.0,0.0,0.0,0.0,0.0,0.0,0.0,0.0,0.0,0.0,0.0,0.0,0.0,0.0,0.0,0.0,0.0,0.0,0.0,0.0,0.0,0.0,0.0,0.0,0.0,0.0,0.0,0.0,0.0,0.0,0.0,0.0,0.0,0.0,0.0,0.0,0.0,0.0,0.0,0.0,0.0,0.0,0.0,0.0,0.0,0.0,0.0,0.0,0.0,0.0,0.0,0.0,0.0,0.0,0.0,0.0,0.0,0.0,0.0,0.0,0.0,0.0,0.0,0.0,0.0,0.0,0.0,0.0,0.0,0.0,0.0,0.0,0.0,0.0,0.0,0.0,0.0,0.0,0.0,0.0,0.0,0.0,0.0,0.0,0.0,0.0,0.0,0.0,0.0,-6.3743,-6.5508,-7.0722,-7.236,-7.014,-6.6518,-6.2994,0.0,0.0,0.0,0.0,0.0,0.0,0.0,0.0,0.0,0.0,0.0,0.0,0.0,0.0,0.0,0.0,0.0,0.0,0.0,0.0,0.0,0.0,0.0,0.0,0.0,0.0,0.0,0.0,0.0,0.0,0.0,0.0,0.0,0.0,0.0,0.0,0.0,0.0,0.0,0.0,0.0,0.0,0.0,0.0,0.0,0.0,0.0,0.0,0.0,0.0,0.0,0.0,0.0,0.0,0.0,0.0,0.0,0.0,0.0,0.0,0.0,0.0,0.0,0.0,0.0,0.0,0.0,0.0,0.0,0.0,0.0,0.0,0.0,0.0,0.0,0.0,0.0,0.0,0.0,0.0,0.0,0.0,0.0,0.0,0.0,0.0,0.0,0.0,0.0,0.0,0.0,0.0,0.0,0.0,0.0,0.0,0.0,0.0,0.0,0.0,0.0,0.0,0.0,0.0,0.0,0.0,0.0,0.0,-6.629,-6.586,-7.2627,-7.5909,-7.5242,-7.1876,-6.6729,0.0,0.0,0.0,0.0,0.0,0.0,0.0,0.0,0.0,0.0,0.0,0.0,0.0,0.0,0.0,0.0,0.0,0.0,0.0,0.0,0.0,0.0,0.0,0.0,0.0,0.0,0.0,0.0,0.0,0.0,0.0,0.0,0.0,0.0,0.0,0.0,0.0,0.0,0.0,0.0,0.0,0.0,0.0,0.0,0.0,0.0,0.0,0.0,0.0,0.0,0.0,0.0,0.0,0.0,0.0,0.0,0.0,0.0,0.0,0.0,0.0,0.0,0.0,0.0,0.0,0.0,0.0,0.0,0.0,0.0,0.0,0.0,0.0,0.0,0.0,0.0,0.0,0.0,0.0,0.0,0.0,0.0,0.0,0.0,0.0,0.0,0.0,0.0,0.0,0.0,0.0,0.0,0.0,0.0,0.0,0.0,0.0,0.0,0.0,0.0,0.0,0.0,0.0,0.0,0.0,0.0,0.0,0.0,-6.6548,-6.8288,-7.4022,-7.7304,-7.7781,-7.1135,-6.5686,0.0,0.0,0.0,0.0,0.0,0.0,0.0,0.0,0.0,0.0,0.0,0.0,0.0,0.0,0.0,0.0,0.0,0.0,0.0,0.0,0.0,0.0,0.0,0.0,0.0,0.0,0.0,0.0,0.0,0.0,0.0,0.0,0.0,0.0,0.0,0.0,0.0,0.0,0.0,0.0,0.0,0.0,0.0,0.0,0.0,0.0,0.0,0.0,-5.047,0.0,0.0,0.0,0.0,0.0,0.0,0.0,0.0,0.0,0.0,0.0,0.0,0.0,0.0,0.0,0.0,0.0,0.0,0.0,0.0,0.0,0.0,0.0,0.0,0.0,0.0,0.0,0.0,0.0,0.0,0.0,0.0,0.0,0.0,0.0,0.0,0.0,0.0,0.0,0.0,0.0,0.0,0.0,0.0,0.0,0.0,0.0,0.0,0.0,0.0,0.0,0.0,0.0,0.0,0.0,0.0,0.0,0.0,0.0,-6.6702,-6.9531,-7.4617,-7.7494,-7.7745,-7.1784,-6.6812,0.0,0.0,0.0,0.0,0.0,0.0,0.0,0.0,0.0,0.0,0.0,0.0,0.0,0.0,0.0,0.0,0.0,0.0,0.0,0.0,0.0,0.0,0.0,0.0,0.0,0.0,0.0,0.0,0.0,0.0,0.0,0.0,0.0,0.0,0.0,0.0,0.0,0.0,0.0,0.0,0.0,0.0,0.0,0.0,0.0,0.0,0.0,0.0,0.0,0.0,0.0,0.0,0.0,0.0,0.0,0.0,0.0,0.0,0.0,0.0,0.0,0.0,0.0,0.0,0.0,0.0,0.0,0.0,0.0,0.0,0.0,0.0,0.0,0.0,0.0,0.0,0.0,0.0,0.0,0.0,0.0,0.0,0.0,0.0,0.0,0.0,0.0,0.0,0.0,0.0,0.0,0.0,0.0,0.0,0.0,0.0,0.0,0.0,0.0,0.0,0.0,0.0,0.0,0.0,0.0,0.0,0.0,-6.2952,-6.6916,-7.0624,-7.5028,-7.7237,-7.7053,-7.2765,-6.8489,-6.4353,0.0,0.0,0.0,0.0,0.0,0.0,0.0,0.0,0.0,0.0,0.0,0.0,0.0,0.0,0.0,0.0,0.0,0.0,0.0,0.0,0.0,0.0,0.0,0.0,0.0,0.0,0.0,0.0,0.0,0.0,0.0,0.0,0.0,0.0,0.0,0.0,0.0,0.0,-4.6702,-4.7443,0.0,0.0,0.0,0.0,0.0,0.0,0.0,0.0,-4.923,0.0,0.0,0.0,0.0,0.0,0.0,0.0,0.0,0.0,0.0,0.0,0.0,0.0,0.0,0.0,0.0,0.0,0.0,0.0,0.0,0.0,0.0,0.0,0.0,0.0,0.0,0.0,0.0,0.0,0.0,0.0,0.0,0.0,0.0,0.0,0.0,0.0,0.0,0.0,0.0,0.0,0.0,0.0,0.0,0.0,0.0,0.0,0.0,0.0,0.0,0.0,0.0,0.0,0.0,0.0,0.0,-6.19,-6.3466,-6.71,-7.2973,-7.5873,-7.6943,-7.624,-7.2936,-6.8649,-6.3444,0.0,0.0,0.0,0.0,0.0,0.0,0.0,0.0,0.0,0.0,0.0,0.0,0.0,0.0,0.0,0.0,0.0,0.0,0.0,0.0,0.0,0.0,0.0,0.0,0.0,0.0,0.0,0.0,0.0,0.0,0.0,0.0,0.0,0.0,0.0,0.0,0.0,0.0,0.0,-4.9841,-5.019,0.0,0.0,0.0,0.0,0.0,0.0,0.0,0.0,-4.8468,0.0,0.0,0.0,0.0,0.0,0.0,0.0,0.0,0.0,0.0,0.0,0.0,0.0,0.0,0.0,0.0,0.0,0.0,0.0,0.0,0.0,0.0,0.0,0.0,0.0,0.0,0.0,0.0,0.0,0.0,0.0,0.0,0.0,0.0,0.0,0.0,0.0,0.0,0.0,0.0,0.0,0.0,0.0,0.0,0.0,0.0,0.0,0.0,0.0,0.0,0.0,0.0,0.0,0.0,0.0,-6.1337,-6.3613,-6.743,-7.2899,-7.5028,-7.5689,-7.4808,-7.055,-6.6135,0.0,0.0,0.0,0.0,0.0,0.0,0.0,0.0,0.0,0.0,0.0,0.0,0.0,0.0,0.0,0.0,0.0,0.0,0.0,0.0,0.0,0.0,0.0,0.0,0.0,0.0,0.0,0.0,0.0,0.0,0.0,0.0,0.0,0.0,0.0,0.0,0.0,0.0,0.0,0.0,-4.9983,-5.0056,-4.9727,0.0,0.0,0.0,0.0,0.0,0.0,-4.8439,-4.7901,0.0,0.0,0.0,0.0,0.0,0.0,0.0,0.0,0.0,0.0,0.0,0.0,0.0,0.0,0.0,0.0,0.0,0.0,0.0,0.0,0.0,0.0,0.0,0.0,0.0,0.0,0.0,0.0,0.0,0.0,0.0,0.0,0.0,0.0,0.0,0.0,0.0,0.0,0.0,0.0,0.0,0.0,0.0,0.0,0.0,0.0,0.0,0.0,0.0,0.0,0.0,0.0,0.0,0.0,0.0,-6.0089,-6.322,-6.7136,-7.1835,-7.3597,-7.3964,-7.2899,-6.7981,-6.3613,0.0,0.0,0.0,0.0,0.0,0.0,0.0,0.0,0.0,0.0,0.0,0.0,0.0,0.0,0.0,0.0,0.0,0.0,0.0,0.0,0.0,0.0,0.0,0.0,0.0,0.0,0.0,0.0,0.0,0.0,0.0,0.0,0.0,0.0,0.0,0.0,0.0,0.0,0.0,0.0,0.0,-4.9958,-4.9867,-4.9978,0.0,0.0,0.0,0.0,-4.8343,-4.84,0.0,0.0,0.0,0.0,0.0,0.0,0.0,0.0,0.0,0.0,0.0,0.0,0.0,0.0,0.0,0.0,0.0,0.0,0.0,0.0,0.0,0.0,0.0,0.0,0.0,0.0,0.0,0.0,0.0,0.0,0.0,0.0,0.0,0.0,0.0,0.0,0.0,0.0,0.0,0.0,0.0,0.0,0.0,0.0,0.0,0.0,0.0,0.0,0.0,0.0,0.0,0.0,0.0,0.0,0.0,0.0,-5.9221,-6.1814,-6.5485,-7.0146,-7.1945,-7.2055,-7.0513,-6.7136,-6.3099,0.0,0.0,0.0,0.0,0.0,0.0,0.0,0.0,0.0,0.0,0.0,0.0,0.0,0.0,0.0,0.0,0.0,0.0,0.0,0.0,0.0,0.0,0.0,0.0,0.0,0.0,0.0,0.0,0.0,0.0,0.0,0.0,0.0,0.0,0.0,0.0,0.0,0.0,0.0,0.0,0.0,-5.1426,-5.0765,-5.1279,-5.0912,0.0,0.0,-4.9114,-4.8416,-5.0655,0.0,0.0,0.0,0.0,0.0,0.0,0.0,0.0,0.0,0.0,0.0,0.0,0.0,0.0,0.0,0.0,0.0,0.0,0.0,0.0,0.0,0.0,0.0,0.0,0.0,0.0,0.0,0.0,0.0,0.0,0.0,0.0,0.0,0.0,0.0,0.0,0.0,0.0,0.0,0.0,0.0,0.0,0.0,0.0,0.0,0.0,0.0,0.0,0.0,0.0,0.0,0.0,0.0,0.0,0.0,-5.484,-5.7827,-6.1594,-6.5228,-6.8605,-6.9412,-6.9201,-6.8091,-6.3152,-5.9297,0.0,0.0,0.0,0.0,0.0,0.0,0.0,0.0,0.0,0.0,0.0,0.0,0.0,0.0,0.0,0.0,0.0,0.0,0.0,0.0,0.0,0.0,0.0,0.0,0.0,0.0,0.0,0.0,0.0,0.0,0.0,0.0,0.0,0.0,0.0,0.0,0.0,0.0,0.0,0.0,0.0,0.0,-4.9222,-5.0915,0.0,0.0,0.0,-4.9141,-4.8345,0.0,0.0,0.0,0.0,0.0,0.0,0.0,0.0,0.0,0.0,0.0,0.0,0.0,0.0,0.0,0.0,0.0,0.0,0.0,0.0,0.0,0.0,0.0,0.0,0.0,0.0,0.0,0.0,0.0,0.0,0.0,0.0,0.0,0.0,0.0,0.0,0.0,0.0,0.0,0.0,0.0,0.0,0.0,0.0,0.0,0.0,0.0,0.0,0.0,0.0,0.0,0.0,0.0,0.0,0.0,0.0,0.0,-5.6528,-6.0689,-6.4077,-6.6354,-6.6467,-6.6024,-6.4949,-5.9655,0.0,0.0,0.0,0.0,0.0,0.0,0.0,0.0,0.0,0.0,0.0,0.0,0.0,0.0,0.0,0.0,0.0,0.0,0.0,0.0,0.0,0.0,0.0,0.0,0.0,0.0,0.0,-4.3088,0.0,0.0,0.0,0.0,0.0,0.0,0.0,0.0,0.0,0.0,0.0,0.0,0.0,0.0,-5.1402,-4.8121,-5.0424,-5.131,0.0,0.0,-4.89,-4.7663,-4.8565,-4.8847,0.0,0.0,0.0,0.0,0.0,0.0,0.0,0.0,0.0,0.0,0.0,0.0,0.0,0.0,0.0,0.0,0.0,0.0,0.0,0.0,0.0,0.0,0.0,0.0,0.0,0.0,0.0,0.0,0.0,0.0,0.0,0.0,0.0,0.0,0.0,0.0,0.0,0.0,0.0,0.0,0.0,0.0,0.0,0.0,0.0,0.0,0.0,0.0,0.0,0.0,0.0,0.0,0.0,0.0,0.0,-5.5662,-5.821,-6.0747,-6.3032,-6.3112,-6.2422,-6.0925,-5.8278,-5.5675,0.0,0.0,0.0,0.0,0.0,0.0,0.0,0.0,0.0,0.0,0.0,0.0,0.0,0.0,0.0,0.0,0.0,0.0,0.0,0.0,0.0,0.0,0.0,0.0,0.0,0.0,0.0,0.0,0.0,0.0,0.0,0.0,0.0,0.0,0.0,0.0,0.0,0.0,0.0,0.0,0.0,-5.0378,-4.867,-5.0294,-5.0967,0.0,0.0,-4.8542,-4.5822,-4.9252,-5.0838,-4.6663,0.0,0.0,0.0,0.0,0.0,0.0,0.0,0.0,0.0,0.0,0.0,0.0,0.0,0.0,0.0,0.0,0.0,0.0,0.0,0.0,0.0,0.0,0.0,0.0,0.0,0.0,0.0,0.0,0.0,0.0,0.0,0.0,0.0,0.0,0.0,0.0,0.0,0.0,0.0,0.0,0.0,0.0,0.0,0.0,0.0,0.0,0.0,0.0,0.0,0.0,0.0,0.0,0.0,-5.2931,-5.484,-5.7277,-5.9439,-6.1243,-6.0427,-5.9675,-5.9076,-5.6275,-5.3683,0.0,0.0,0.0,0.0,0.0,0.0,0.0,0.0,0.0,0.0,0.0,0.0,0.0,0.0,0.0,0.0,0.0,0.0,0.0,0.0,0.0,0.0,0.0,0.0,0.0,0.0,0.0,0.0,-4.2763,-4.2673,-4.363,0.0,0.0,0.0,0.0,0.0,0.0,0.0,0.0,0.0,0.0,-4.9422,-4.7497,-4.9008,0.0,0.0,-4.71,-4.7028,-4.5566,-4.659,-4.7177,-4.6046,-4.619,0.0,0.0,0.0,0.0,0.0,0.0,0.0,0.0,0.0,0.0,0.0,0.0,0.0,0.0,0.0,0.0,0.0,0.0,0.0,0.0,0.0,0.0,0.0,0.0,0.0,0.0,0.0,0.0,0.0,0.0,0.0,0.0,0.0,0.0,0.0,0.0,0.0,0.0,0.0,0.0,0.0,0.0,0.0,0.0,0.0,0.0,0.0,0.0,0.0,0.0,0.0,0.0,-5.2422,-5.3995,-5.5985,-5.7782,-5.9402,-5.8072,-5.7277,-5.7048,-5.4475,-5.2072,0.0,0.0,0.0,0.0,0.0,0.0,0.0,0.0,0.0,0.0,0.0,0.0,0.0,0.0,0.0,0.0,0.0,0.0,0.0,0.0,0.0,0.0,0.0,0.0,0.0,0.0,0.0,0.0,-4.3497,-4.3353,-4.4181,0.0,0.0,0.0,0.0,0.0,0.0,0.0,0.0,0.0,0.0,-4.834,-4.6529,-4.7812,-4.8277,-4.6278,-4.6067,-4.5903,-4.5386,-4.4906,-4.4715,-4.4962,0.0,0.0,0.0,0.0,0.0,0.0,0.0,0.0,0.0,0.0,0.0,0.0,0.0,0.0,0.0,0.0,0.0,0.0,0.0,0.0,0.0,0.0,0.0,0.0,0.0,0.0,0.0,0.0,0.0,0.0,-5.5647,0.0,0.0,0.0,0.0,0.0,0.0,0.0,0.0,0.0,0.0,0.0,0.0,0.0,0.0,0.0,0.0,0.0,0.0,0.0,0.0,0.0,0.0,-5.158,-5.312,-5.4037,-5.5326,-5.6915,-5.6167,-5.5414,-5.4703,-5.3111,-5.1133,-4.8609,0.0,0.0,0.0,0.0,0.0,0.0,0.0,0.0,0.0,0.0,0.0,0.0,0.0,0.0,0.0,0.0,0.0,0.0,0.0,0.0,0.0,0.0,0.0,0.0,0.0,0.0,-4.5736,-4.5112,-4.4289,0.0,0.0,0.0,0.0,0.0,0.0,0.0,0.0,0.0,0.0,-4.6279,-4.7068,-4.604,-4.6825,-4.7538,-4.76,-4.6472,-4.5468,-4.5035,-4.4981,-4.4582,0.0,0.0,0.0,0.0,0.0,0.0,0.0,0.0,0.0,0.0,0.0,0.0,0.0,0.0,0.0,0.0,0.0,0.0,0.0,0.0,0.0,0.0,0.0,0.0,0.0,0.0,0.0,-5.8639,-5.8707,0.0,0.0,0.0,0.0,0.0,0.0,0.0,0.0,0.0,0.0,0.0,-5.2664,-5.2994,0.0,0.0,0.0,0.0,0.0,0.0,0.0,0.0,0.0,0.0,0.0,0.0,-5.0764,-5.222,-5.276,-5.3808,-5.5299,-5.4631,-5.4126,-5.3856,-5.2401,-5.0119,-4.7146,0.0,0.0,0.0,0.0,0.0,0.0,0.0,0.0,0.0,0.0,0.0,0.0,0.0,0.0,0.0,0.0,0.0,0.0,0.0,0.0,0.0,0.0,0.0,0.0,0.0,-4.6065,0.0,0.0,0.0,0.0,0.0,0.0,0.0,0.0,0.0,0.0,0.0,-4.4964,-4.4114,-4.4713,-4.5125,-4.4876,-4.5428,-4.5563,0.0,0.0,0.0,0.0,0.0,0.0,0.0,0.0,0.0,0.0,0.0,0.0,0.0,0.0,-4.7586,-4.568,-4.5072,-4.49,-4.5127,0.0,0.0,0.0,0.0,0.0,0.0,0.0,0.0,0.0,0.0,0.0,0.0,0.0,0.0,0.0,0.0,-5.7447,0.0,0.0,0.0,0.0,0.0,0.0,0.0,0.0,-5.3096,-5.3505,-5.3475,-5.381,-5.3762,0.0,-5.3166,-5.2576,0.0,0.0,0.0,0.0,0.0,0.0,0.0,0.0,-4.9997,-5.0936,-5.185,-5.293,-5.4132,-5.3478,-5.3078,-5.3044,-5.1083,-4.87,-4.5787,-4.4906,-4.4192,0.0,0.0,0.0,0.0,0.0,0.0,0.0,0.0,0.0,0.0,0.0,0.0,0.0,0.0,0.0,0.0,0.0,0.0,0.0,0.0,0.0,0.0,0.0,-4.5863,0.0,0.0,0.0,0.0,0.0,0.0,0.0,0.0,0.0,-4.5272,-4.4597,-4.3924,-4.3668,-4.3743,-4.3997,-4.4514,0.0,0.0,0.0,0.0,0.0,0.0,0.0,-4.4535,-4.5155,-4.5536,-4.5771,-4.5892,-4.6858,-4.7635,-4.7599,0.0,0.0,-4.4957,-4.4218,-4.3883,-4.4026,-4.3921,-4.3983,-4.4755,-4.4682,-4.4381,0.0,0.0,0.0,0.0,0.0,0.0,0.0,0.0,-5.5291,-5.6502,0.0,-5.5991,0.0,0.0,0.0,0.0,0.0,-5.3019,0.0,0.0,-5.4393,-5.4771,-5.3257,-5.3811,-5.3333,-5.2056,-5.3049,-5.2835,-5.1486,-4.9792,0.0,0.0,0.0,0.0,0.0,0.0,-4.9309,-4.9269,-5.124,-5.2623,-5.3348,-5.2706,-5.2266,-5.2164,-4.9526,-4.6989,-4.4784,-4.4245,-4.3374,-4.2161,-4.399,0.0,0.0,0.0,0.0,0.0,0.0,0.0,0.0,0.0,0.0,0.0,0.0,0.0,0.0,0.0,0.0,0.0,0.0,0.0,0.0,-4.5264,0.0,0.0,0.0,0.0,0.0,0.0,0.0,0.0,0.0,0.0,-4.397,-4.3606,-4.3294,-4.359,0.0,0.0,0.0,0.0,-4.4868,-4.4881,-4.5361,-4.5648,-4.5485,-4.594,-4.6011,-4.5128,0.0,0.0,-4.6076,-4.6442,-4.6771,-4.6739,-4.5915,-4.5372,-4.6475,-4.4741,-4.3557,-4.4192,-4.3699,-4.3529,-4.4335,-4.4926,-4.5151,-6.3415,0.0,0.0,0.0,0.0,-5.8849,-5.9738,-6.1084,-6.0276,-5.9933,-5.9774,-5.7854,0.0,0.0,0.0,0.0,0.0,0.0,-5.3571,-5.3404,-5.531,-5.603,-5.5721,-5.6399,-5.5992,-5.4602,-5.4363,-5.2963,-5.0567,-4.9482,-4.9472,-5.0407,0.0,0.0,0.0,0.0,-4.8547,-4.8916,-5.0621,-5.1611,-5.186,-5.2164,-5.1792,-5.0744,-4.9898,-4.8206,-4.55,-4.5247,-4.4354,-4.262,-4.3272,0.0,0.0,0.0,0.0,0.0,0.0,0.0,0.0,0.0,0.0,0.0,0.0,0.0,0.0,0.0,0.0,0.0,0.0,0.0,-4.5743,-4.4,-4.35,0.0,0.0,0.0,0.0,0.0,0.0,0.0,0.0,0.0,-4.2577,-4.3058,-4.3458,0.0,0.0,-4.4227,-4.4498,-4.4248,-4.3921,-4.3557,0.0,0.0,0.0,-4.4591,-4.5067,-4.4685,-4.5156,-4.5734,-4.6359,-4.6866,-4.7202,-4.7187,-4.6922,-4.6477,-4.5594,-4.3928,-4.301,-4.38,-4.3298,-4.3097,-4.4477,-4.4381,-4.3868,-6.6524,-6.3722,-6.1492,-6.0552,-6.0668,-6.0357,-6.0912,-6.195,-6.0878,-6.0634,-6.0864,-5.8539,-5.6823,-5.5618,-5.425,0.0,0.0,0.0,-5.4439,-5.4803,-5.5996,-5.6777,-5.7205,-5.7374,-5.6867,-5.5716,-5.4938,-5.3518,-5.142,-5.0529,-5.0704,-5.1745,0.0,0.0,-4.7477,-4.7961,-4.8314,-4.8633,-5.0011,-5.0913,-5.1185,-5.1352,-5.0845,-4.9695,-4.939,-4.824,-4.621,-4.5568,-4.44,-4.2618,-4.28,-4.293,0.0,0.0,0.0,0.0,0.0,0.0,0.0,0.0,0.0,0.0,0.0,-4.519,-4.5316,0.0,0.0,0.0,-4.4157,-4.4188,-4.4166,-4.2754,0.0,0.0,0.0,0.0,0.0,0.0,0.0,-4.2451,-4.1973,-4.1664,-4.1964,-4.2498,-4.2982,-4.3452,-4.3354,-4.3395,-4.3824,0.0,-4.3402,-4.2889,-4.3633,-4.413,-4.3807,-4.4441,-4.5009,-4.5055,-4.5374,-4.5765,-4.6233,-4.6628,-4.6791,-4.6812,-4.6812,-4.6461,-4.5281,-4.3872,-4.297,-4.343,-4.3208,-4.3322,-4.4381,-4.4329,-4.4201,-6.899,-6.8038,-6.4813,-6.3055,-6.2261,-6.1539,-6.1006,-6.0419,-5.917,-5.9874,-6.1853,-5.8645,-5.7909,-5.9038,-5.6232,0.0,-5.428,-5.5001,-5.5485,-5.5818,-5.6494,-5.7137,-5.7782,-5.707,-5.6325,-5.5615,-5.4938,-5.4228,-5.3416,-5.2418,-5.2201,-5.2616,-4.9419,-4.7541,-4.7141,-4.803,-4.8517,-4.846,-4.9569,-5.0471,-5.1082,-5.0338,-4.956,-4.8849,-4.8139,-4.7361,-4.6515,-4.5196,-4.3802,-4.2313,-4.2448,-4.2389,-4.194,0.0,0.0,0.0,0.0,0.0,0.0,0.0,0.0,0.0,0.0,0.0,0.0,0.0,0.0,0.0,-4.1748,0.0,-4.1905,-4.1592,0.0,0.0,0.0,-4.1626,-4.2042,-4.1356,-4.1147,-4.1802,0.0,0.0,-4.185,-4.2037,-4.2299,-4.2824,-4.2105,-4.1987,-4.3152,-4.3351,-4.323,-4.2917,-4.3864,-4.4668,-4.4417,-4.4831,-4.518,-4.5388,-4.5736,-4.5755,-4.5792,-4.592,-4.5902,-4.5957,-4.592,-4.5718,-4.5108,-4.4377,-4.371,-4.2968,-4.3304,-4.3804,-4.4045,-4.4718,-4.518,-7.1908,-7.1753,-7.0332,-6.7863,-6.4816,-6.4612,-6.4464,-6.4309,-6.4005,-6.3272,-6.2242,-6.0867,-5.918,-5.7393,-5.6643,-5.5961,-5.5348,-5.6095,-5.6465,-5.6562,-5.6731,-5.69,-5.7002,-5.6325,-5.5581,-5.4871,-5.4668,-5.4228,-5.3518,-5.3246,-5.2762,-5.209,-5.1261,-5.0307,-4.934,-4.8935,-4.8661,-4.8575,-4.9846,-5.0453,-5.0304,-4.912,-4.8071,-4.7327,-4.6616,-4.5602,-4.4282,-4.3876,-4.2997,-4.1542,-4.1493,-4.1316,-4.0743,-4.2364,0.0,0.0,0.0,0.0,0.0,0.0,0.0,0.0,0.0,-4.4121,-4.4692,0.0,-4.4623,0.0,-4.0122,-3.9624,-4.1498,-4.1091,0.0,0.0,-4.1819,-4.168,-4.1253,-4.0831,-4.0748,-4.1112,-4.1719,-4.1952,-4.1533,-4.2361,-4.2917,-4.2792,-4.3273,-4.3877,-4.4414,-4.3945,-4.3668,-4.3748,-4.35,-4.3385,-4.3743,-4.387,-4.3997,-4.4048,-4.4562,-4.5002,-4.5002,-4.5516,-4.5883,-4.5883,-4.5883,-4.5608,-4.4894,-4.4602,-4.42,-4.3506,-4.3251,-4.3543,-4.4545,-4.4248,-4.3904,-7.3526,-7.3564,-7.2821,-7.0724,-6.7837,-6.7112,-6.6555,-6.617,-6.5831,-6.4986,-6.3768,-6.2381,-6.0486,-5.8287,-5.7915,-5.7577,-5.7171,-5.6934,-5.6968,-5.7273,-5.6934,-5.6799,-5.6765,-5.6055,-5.531,-5.46,-5.4262,-5.389,-5.3518,-5.3518,-5.3211,-5.2588,-5.1907,-5.1374,-5.0907,-4.9953,-4.9435,-4.9286,-4.9825,-4.9933,-4.9591,-4.8477,-4.7868,-4.7733,-4.6109,-4.4987,-4.4501,-4.3552,-4.2664,-4.1928,-4.186,-4.1546,-4.0932,-4.2293,-4.2925,0.0,0.0,0.0,0.0,0.0,0.0,0.0,0.0,0.0,0.0,0.0,-4.343,-4.2405,-4.0111,-3.9529,-4.1582,-4.1126,-4.0851,-4.1312,-4.1346,-4.1126,-4.0593,-4.0412,-4.0476,-4.0849,-4.1406,-4.1707,-4.1556,-4.2178,-4.2644,-4.2688,-4.3252,-4.3688,-4.3811,-4.3315,-4.3007,-4.3421,-4.3285,-4.3142,-4.348,-4.3497,-4.3497,-4.3534,-4.3864,-4.4158,-4.4158,-4.4525,-4.4819,-4.4819,-4.4819,-4.4709,-4.4268,-4.4195,-4.3959,-4.336,-4.3018,-4.3272,-4.4138,-4.3768,-4.3462,-7.4429,-7.4291,-7.3615,-7.2319,-7.0527,-6.9168,-6.7906,-6.6779,-6.6136,-6.573,-6.5425,-6.3294,-6.1535,-6.008,-5.9438,-5.9066,-5.8795,-5.7442,-5.7137,-5.7679,-5.69,-5.6528,-5.6494,-5.5784,-5.5074,-5.4431,-5.3822,-5.3518,-5.3518,-5.3518,-5.3416,-5.3246,-5.1958,-5.1435,-5.1661,-5.083,-5.0313,-5.0102,-4.9703,-4.935,-4.9046,-4.8233,-4.803,-4.8399,-4.5794,-4.4597,-4.5116,-4.328,-4.2278,-4.2407,-4.2501,-4.2228,-4.151,-4.2423,-4.28,0.0,-4.2994,0.0,0.0,0.0,0.0,0.0,0.0,0.0,0.0,-4.1798,-4.1875,-4.2774,-4.0798,-4.0114,-4.1636,-4.1178,-4.0704,-4.0485,-4.0461,-4.0362,-4.0104,-4.0154,-4.0392,-4.085,-4.1059,-4.134,-4.1853,-4.1979,-4.2226,-4.2732,-4.2785,-4.2838,-4.2787,-4.2494,-4.2378,-4.2732,-4.3196,-4.3463,-4.3497,-4.3497,-4.3497,-4.3497,-4.3534,-4.3497,-4.3534,-4.3534,-4.3534,-4.3534,-4.3625,-4.3534,-4.3497,-4.3497,-4.3375,-4.2976,-4.2863,-4.2975,-4.3324,-4.3395,-4.3445,-7.5234,-7.4796,-7.4613,-7.3156,-7.0962,-7.0676,-6.9131,-6.6812,-6.6643,-6.5933,-6.4681,-6.3091,-6.1535,-6.0148,-5.9979,-5.9235,-5.8051,-5.7205,-5.6867,-5.6968,-5.5615,-5.5006,-5.4972,-5.4262,-5.3856,-5.3721,-5.3551,-5.3518,-5.3518,-5.3518,-5.3073,-5.2233,-5.189,-5.1382,-5.0714,0.0,0.0,0.0,-4.9737,-4.9441,-4.9346,-4.8016,-4.688,-4.5898,-4.3973,0.0,-4.1562,-4.1109,-4.087,-4.0929,-4.1476,0.0,0.0,0.0,0.0,0.0,0.0,0.0,0.0,0.0,0.0,0.0,-4.1841,-4.2014,-4.2098,-4.1497,-4.133,-4.1781,-4.0787,-4.0211,-4.0433,-4.0331,-4.0238,-4.0188,-4.0188,-4.0163,-4.0138,-4.048,-4.0803,-4.0862,-4.1746,-4.2382,-4.2501,-4.2902,-4.3178,-4.3268,-4.2995,-4.2884,-4.3286,-4.3178,-4.3214,-4.3339,-4.3445,-4.3497,-4.3497,-4.3497,-4.3497,-4.3497,-4.3497,-4.3497,-4.3497,-4.3497,-4.3497,-4.3497,-4.3497,-4.3497,-4.3497,-4.3497,-4.348,-4.3393,-4.3321,-4.325,-4.2902,-4.2846,-4.2995,-7.6131,0.0,-7.5065,-7.3659,0.0,-7.1272,-7.0022,-6.818,-6.7702,-6.6391,-6.4546,-6.3429,-6.211,-6.0689,-6.0283,-5.9302,-5.7848,-5.6765,-5.6258,-5.6224,-5.5108,-5.46,-5.4566,-5.4228,-5.3856,-5.3518,-5.3518,-5.3518,-5.3518,-5.3518,-5.3245,-5.2692,-5.1909,-5.1284,-5.0811,-5.0086,-4.9767,-4.9907,-4.9649,-4.9411,-4.9226,-4.7797,-4.6669,-4.5942,0.0,0.0,0.0,0.0,0.0,0.0,0.0,0.0,0.0,0.0,0.0,-4.0959,-4.1699,-4.1972,-4.1469,-4.152,-4.1501,-4.1267,-4.1257,-4.1233,-4.1219,-4.0827,-4.0637,-4.0848,-4.0467,-4.0188,-4.0113,-4.0113,-4.0204,-4.0466,-4.048,-4.0601,-4.0908,-4.1173,-4.1451,-4.1789,-4.2322,-4.2806,-4.3069,-4.3303,-4.3497,-4.3497,-4.3268,-4.3178,-4.3428,-4.3268,-4.3178,-4.3426,-4.3497,-4.3497,-4.3497,-4.3497,-4.3497,-4.3497,-4.3497,-4.3497,-4.3497,-4.3497,-4.3497,-4.3497,-4.3497,-4.3497,-4.3497,-4.3497,-4.3497,-4.3497,-4.3497,-4.3445,-4.3142,-4.3105,-4.316,-7.6864,-7.6019,-7.5249,-7.3976,-7.2477,-7.1712,-7.0728,-6.9671,0.0,0.0,0.0,-6.3673,-6.2436,-6.0892,-6.0216,-5.9099,-5.7645,-5.6325,-5.5649,-5.548,-5.4735,-5.4397,-5.4397,-5.4397,-5.4093,-5.3518,-5.3651,-5.3684,-5.3684,-5.3816,-5.3781,-5.3378,-5.2087,-5.121,-5.0777,-4.9627,-4.9168,-4.956,-4.953,-4.935,-4.9043,-4.7755,-4.6971,-4.6699,-4.4128,-4.2596,-4.2328,-4.1163,-4.0796,-4.1364,-4.1535,-4.1535,-4.1408,-4.2134,-4.2083,-4.1104,-4.1205,-4.1205,-4.0976,-4.0635,-4.0587,-4.1001,-4.0955,-4.0744,-4.0288,-4.0163,-4.0113,-4.0113,-4.0113,-4.0113,-4.0113,-4.0204,-4.0417,-4.0874,-4.1013,-4.1251,-4.1725,-4.1916,-4.2124,-4.2616,-4.277,-4.3013,-4.3391,-4.3497,-4.3497,-4.3515,-4.3627,-4.3718,-4.3646,-4.3287,-4.3087,-4.3391,-4.3497,-4.3497,-4.3497,-4.3497,-4.3497,-4.3497,-4.3497,-4.3497,-4.3497,-4.3497,-4.3497,-4.3497,-4.3497,-4.3497,-4.3497,-4.3497,-4.3497,-4.3497,-4.3497,-4.3497,-4.3497,-4.3497,-4.348,-7.6827,-7.6019,-7.5249,-7.4345,-7.345,-7.2651,-7.1363,-6.9757,-6.8143,-6.6074,-6.3777,-6.3054,-6.1444,-5.9336,-5.9197,-5.8355,-5.6934,-5.6089,-5.5378,0.0,-5.3991,-5.3653,-5.3653,-5.3653,-5.3619,-5.3517,-5.4139,-5.4451,-5.4513,-5.5089,-5.4739,-5.3545,-5.265,-5.1253,-4.9452,-4.912,-4.9049,-4.9077,-4.935,-4.9471,-4.9411,-4.8592,-4.7592,-4.6371,-4.5063,-4.3518,-4.1801,-4.1528,-4.1178,-4.0715,-4.1262,-4.128,-4.0576,-4.1223,-4.0909,-3.9528,-3.996,-4.0217,-4.0032,-4.0492,-4.1082,-4.156,-4.1183,-4.0662,-4.0213,-4.0113,-4.0113,-4.0113,-4.0113,-4.0113,-4.0138,-4.0504,-4.0803,-4.0967,-4.1397,-4.1725,-4.1909,-4.2338,-4.2652,-4.2713,-4.3124,-4.3356,-4.3443,-4.3497,-4.3497,-4.3588,-4.4011,-4.4488,-4.4397,-4.3903,-4.3465,-4.3497,-4.3497,-4.3497,-4.3497,-4.3497,-4.3497,-4.3497,-4.3497,-4.3497,-4.3497,-4.3497,-4.3497,-4.3497,-4.3497,-4.3497,-4.3497,-4.3497,-4.3497,-4.3497,-4.3497,-4.3497,-4.3497,-4.3497,-4.3497,-7.6607,-7.5469,-7.5065,-7.4184,-7.301,-7.2642,-7.156,-6.993,-6.8706,-6.7004,-6.4953,-6.3761,-6.2402,-6.0947,-5.9632,-5.8496,-5.7443,-5.5826,-5.4941,-5.4556,-5.3854,-5.3717,-5.4074,-5.4106,-5.4296,-5.4699,-5.5029,-5.5203,-5.5232,-5.5517,-5.5376,-5.4642,-5.356,-5.2067,-5.033,-4.9807,-4.939,-4.9018,-4.9138,-4.9229,-4.9229,-4.8485,-4.7427,-4.6016,-4.5094,-4.3817,-4.2064,-4.1588,-4.1214,-4.0875,-4.0832,-4.0603,-4.0222,-4.0493,-4.0366,-3.9673,-3.991,-4.0182,-4.0354,-4.1319,-4.1853,-4.181,-4.1538,-4.1308,-4.1036,-4.0441,-4.0113,-4.0113,-4.0113,-4.0229,-4.048,-4.0756,-4.1335,-4.242,-4.2787,-4.3068,-4.3346,-4.3593,-4.3597,-4.3233,-4.3339,-4.3497,-4.3497,-4.3497,-4.3497,-4.3588,-4.4195,-4.4838,-4.5259,-4.4672,-4.3975,-4.3588,-4.3497,-4.3497,-4.3497,-4.3497,-4.3497,-4.3497,-4.3497,-4.3497,-4.3497,-4.3497,-4.3497,-4.3497,-4.3497,-4.3497,-4.3497,-4.3497,-4.3497,-4.3497,-4.3497,-4.3497,-4.3497,-4.3497,-4.3497,-7.6607,-7.5439,-7.5065,-7.3891,-7.2275,-7.2239,-7.1321,-6.9779,-6.8944,-6.771,-6.6078,-6.433,-6.2963,-6.175,-5.9949,-5.8615,-5.7645,-5.5931,-5.5019,-5.4795,-5.4232,-5.4296,-5.4818,-5.4848,-5.5144,-5.5695,-5.5865,-5.5976,-5.5976,-5.6141,-5.6034,-5.5636,-5.439,-5.3008,-5.1546,-5.075,-5.0014,-4.9255,-4.9086,-4.9018,-4.8984,-4.8443,-4.7462,-4.6041,-4.5399,-4.431,-4.2658,-4.2016,-4.161,-4.1441,-4.073,-4.035,-4.035,-4.018,-4.0113,-4.0113,-4.0399,-4.0875,-4.1576,-4.2553,-4.2874,-4.2226,-4.2062,-4.1937,-4.1746,-4.0885,-4.0269,-4.0245,-4.0179,-4.0294,-4.0814,-4.1256,-4.2053,-4.3676,-4.4222,-4.4395,-4.4656,-4.4709,-4.4378,-4.3644,-4.3497,-4.3497,-4.3515,-4.3662,-4.3975,-4.4452,-4.4856,-4.548,-4.5957,-4.548,-4.4672,-4.4011,-4.3608,-4.3497,-4.3497,-4.3497,-4.3497,-4.3497,-4.3497,-4.3497,-4.3497,-4.3497,-4.3497,-4.3497,-4.3497,-4.3497,-4.3497,-4.3497,-4.3497,-4.3497,-4.3497,-4.3497,-4.3497,-4.3497,-4.3497,-7.7163,-7.6833,-7.5476,-7.356,-7.1513,-7.1403,-7.0513,-6.9045,-6.8164,-6.7303,-6.6199,-6.3933,-6.1693,-5.9684,-5.935,-5.8425,-5.7133,-5.6752,-5.6235,-5.568,-5.5524,-5.5552,-5.561,-5.561,-5.5667,-5.5836,-5.6447,-5.6809,-5.6835,-5.7389,-5.711,-5.5851,-5.4919,-5.3802,-5.2427,-5.1621,-5.0828,-4.9997,-4.9323,-4.9018,-4.9018,-4.8917,-4.8206,-4.6752,-4.6616,-4.5534,-4.3498,-4.3234,-4.2895,-4.2219,-4.1534,-4.1102,-4.106,-4.0485,-4.0113,-4.0197,-4.1312,-4.2484,-4.3519,-4.4197,-4.4125,-4.3431,-4.2846,-4.2398,-4.1931,-4.1241,-4.0827,-4.0873,-4.0451,-4.0392,-4.0885,-4.2026,-4.3109,-4.4085,-4.5036,-4.548,-4.4911,-4.4709,-4.4378,-4.3588,-4.3497,-4.3497,-4.3608,-4.4158,-4.5095,-4.6232,-4.6452,-4.6709,-4.6856,-4.6324,-4.5516,-4.4709,-4.4011,-4.3588,-4.3515,-4.3497,-4.3497,-4.3497,-4.3497,-4.3497,-4.3497,-4.3497,-4.3497,-4.3497,-4.3497,-4.3497,-4.3497,-4.3497,-4.3497,-4.3497,-4.3497,-4.3497,-4.3497,-4.3497,-4.3497,-7.6723,-7.5836,-7.5175,-7.3523,-7.1431,-7.0807,-6.9963,-6.8825,-6.754,-6.6512,-6.5605,-6.3669,-6.2529,-6.1978,-6.0156,-5.9114,-5.8786,-5.7041,-5.6268,-5.6313,-5.592,-5.5948,-5.6367,-5.6394,-5.6606,-5.7054,-5.7425,-5.7522,-5.7607,-5.7844,-5.7697,-5.7085,-5.632,-5.5455,-5.4438,-5.3639,-5.2895,-5.2126,-5.0966,-5.0356,-5.0227,-4.9464,-4.8511,-4.7597,-4.7462,-4.6816,-4.5466,-4.4875,-4.4466,-4.4049,-4.3024,-4.2421,-4.2421,-4.1709,-4.1297,-4.1346,-4.2469,-4.3421,-4.3884,-4.44,-4.4342,-4.3588,-4.3013,-4.2893,-4.3404,-4.2697,-4.245,-4.3044,-4.1673,-4.0976,-4.2038,-4.3017,-4.4093,-4.5508,-4.6322,-4.6324,-4.5516,-4.5406,-4.4929,-4.3754,-4.3497,-4.3718,-4.4195,-4.4929,-4.5847,-4.6856,-4.7113,-4.7259,-4.7626,-4.7113,-4.6305,-4.5516,-4.4745,-4.4048,-4.3608,-4.3497,-4.3497,-4.3497,-4.3497,-4.3497,-4.3497,-4.3497,-4.3497,-4.3497,-4.3497,-4.3497,-4.3497,-4.3497,-4.3497,-4.3497,-4.3497,-4.3497,-4.3497,-4.3497,-4.3497,-7.6313,-7.5212,-7.4551,-7.2834,-7.066,-7.0036,-6.9192,-6.8128,-6.6769,-6.5742,-6.4861,-6.3404,-6.3025,-6.3012,-6.0715,-5.9819,-5.97,-5.749,-5.6632,-5.7091,-5.658,-5.6632,-5.7141,-5.7191,-5.7474,-5.7927,-5.7937,-5.7997,-5.7997,-5.7997,-5.7997,-5.789,-5.7449,-5.6826,-5.6108,-5.5329,-5.4545,-5.3733,-5.232,-5.1499,-5.1136,-4.9992,-4.8825,-4.8034,-4.8078,-4.7775,-4.6957,-4.6395,-4.6059,-4.5917,-4.4624,-4.3836,-4.3801,-4.3079,-4.2812,-4.3254,-4.4064,-4.4634,-4.4771,-4.4912,-4.4672,-4.392,-4.3451,-4.3577,-4.4161,-4.3928,-4.3963,-4.4456,-4.315,-4.26,-4.3415,-4.4351,-4.5662,-4.7184,-4.759,-4.7462,-4.6728,-4.625,-4.5443,-4.4342,-4.4085,-4.4232,-4.5168,-4.5865,-4.6581,-4.7296,-4.748,-4.759,-4.7993,-4.759,-4.6782,-4.5993,-4.5223,-4.4415,-4.3681,-4.3497,-4.3497,-4.3497,-4.3497,-4.3497,-4.3497,-4.3497,-4.3497,-4.3497,-4.3497,-4.3497,-4.3497,-4.3497,-4.3497,-4.3497,-4.3497,-4.3497,-4.3497,-4.3497,-4.3497,-7.613,-7.5689,-7.356,-7.1284,-6.9045,-6.8972,-6.8054,-6.6696,-6.5742,-6.4897,-6.4163,-6.3246,-6.2401,-6.1777,-6.075,-5.9931,-5.9221,-5.8247,-5.7797,-5.7867,-5.7821,-5.7867,-5.795,-5.795,-5.7937,-5.7997,-5.7997,-5.7997,-5.7997,-5.7997,-5.7997,-5.7997,-5.7927,-5.757,-5.6884,-5.6169,-5.5405,-5.4652,-5.322,-5.2028,-5.1372,-5.0512,-4.9354,-4.8307,-4.8535,-4.8515,-4.7908,-4.7684,-4.7594,-4.7582,-4.6105,-4.5244,-4.5138,-4.4524,-4.4662,-4.5801,-4.6091,-4.6372,-4.667,-4.6214,-4.5516,-4.4801,-4.4619,-4.4455,-4.4372,-4.4742,-4.4973,-4.4462,-4.492,-4.5055,-4.5276,-4.6282,-4.7357,-4.8155,-4.8967,-4.8893,-4.8159,-4.6728,-4.5993,-4.559,-4.5112,-4.5315,-4.6709,-4.7003,-4.7369,-4.792,-4.8233,-4.8233,-4.8159,-4.7626,-4.6892,-4.6067,-4.5296,-4.4452,-4.3718,-4.3497,-4.3497,-4.3497,-4.3497,-4.3497,-4.3497,-4.3497,-4.3497,-4.3497,-4.3497,-4.3497,-4.3497,-4.3497,-4.3497,-4.3497,-4.3497,-4.3497,-4.3497,-4.3497,-4.3497,-7.4735,-7.3634,-7.1762,-7.0146,-6.8862,-6.7834,-6.7026,-6.6366,-6.5081,-6.4383,-6.398,-6.3172,-6.2658,-6.2291,-6.097,-5.9979,-5.9148,-5.8364,-5.7997,-5.7997,-5.7997,-5.7997,-5.7997,-5.7997,-5.7997,-5.7997,-5.7997,-5.7997,-5.7997,-5.7997,-5.7997,-5.7997,-5.7997,-5.7881,-5.7582,-5.7363,-5.7037,-5.6635,-5.531,-5.4174,-5.3317,-5.2147,-5.0967,-5.0021,-4.9701,-4.9676,-4.9777,-4.9758,-4.95,-4.8944,-4.7933,-4.7173,-4.6635,-4.5918,-4.5864,-4.6676,-4.6827,-4.6905,-4.7057,-4.6819,-4.6324,-4.559,-4.548,-4.5627,-4.5916,-4.6243,-4.6676,-4.7434,-4.7786,-4.7962,-4.7926,-4.8052,-4.8294,-4.9001,-4.939,-4.9077,-4.7865,-4.7003,-4.6489,-4.6104,-4.6012,-4.6526,-4.7039,-4.7553,-4.7976,-4.8233,-4.8306,-4.8343,-4.8306,-4.7993,-4.7425,-4.6361,-4.6067,-4.5755,-4.4415,-4.3791,-4.3515,-4.3497,-4.3497,-4.3515,-4.3515,-4.3515,-4.3497,-4.3497,-4.3497,-4.3497,-4.3497,-4.3608,-4.3608,-4.3497,-4.3497,-4.3497,-4.3497,-4.3497,-4.3497,-7.3193,-7.1615,-7.0257,-6.9265,-6.8421,-6.7357,-6.6586,-6.6035,-6.4934,-6.42,-6.3649,-6.3062,-6.2695,-6.2291,-6.1263,-6.0346,-5.9478,-5.851,-5.7997,-5.7997,-5.7997,-5.7997,-5.7997,-5.7997,-5.7997,-5.7997,-5.7997,-5.7997,-5.7997,-5.7997,-5.7997,-5.7997,-5.7997,-5.7997,-5.7997,-5.7997,-5.7997,-5.7757,-5.6757,-5.574,-5.488,-5.3411,-5.2371,-5.1795,-5.1061,-5.0864,-5.1272,-5.1262,-5.1005,-5.0407,-4.9685,-4.8929,-4.8151,-4.7332,-4.7037,-4.7442,-4.748,-4.748,-4.7443,-4.7259,-4.6856,-4.6361,-4.6287,-4.6544,-4.7076,-4.7553,-4.8453,-4.9334,-4.9884,-5.0031,-5.0161,-4.9627,-4.937,-4.9811,-4.9757,-4.9297,-4.8416,-4.759,-4.6892,-4.6617,-4.7315,-4.7829,-4.8012,-4.8673,-4.893,-4.8783,-4.871,-4.8673,-4.8379,-4.8269,-4.7902,-4.6654,-4.6709,-4.6342,-4.548,-4.4782,-4.4599,-4.4562,-4.3754,-4.3698,-4.3808,-4.3735,-4.3662,-4.3571,-4.3534,-4.3497,-4.3571,-4.3718,-4.3681,-4.3571,-4.3497,-4.3497,-4.3497,-4.3497,-4.3534,-7.1615,-7.0183,-6.9265,-6.8495,-6.7797,-6.7467,-6.6659,-6.5485,-6.5154,-6.4163,-6.3,-6.278,-6.2438,-6.1814,-6.1594,-6.1117,-6.0272,-5.8914,-5.8217,-5.8143,-5.8033,-5.7997,-5.7997,-5.7997,-5.7997,-5.7997,-5.7997,-5.7997,-5.7997,-5.7997,-5.7997,-5.7997,-5.7997,-5.7997,-5.7997,-5.7997,-5.7997,-5.7827,-5.7194,-5.6486,-5.5715,-5.4291,-5.3496,-5.3255,-5.2534,-5.2161,-5.2159,-5.2061,-5.1935,-5.1793,-5.1149,-5.0415,-4.9458,-4.8578,-4.825,-4.8177,-4.8269,-4.8269,-4.814,-4.7553,-4.7259,-4.7259,-4.7186,-4.7352,-4.7736,-4.8746,-4.9574,-4.9884,-5.0398,-5.1059,-5.1573,-5.1132,-5.0729,-5.0729,-5.0178,-4.9921,-4.9884,-4.8507,-4.7149,-4.7369,-4.8453,-4.9463,-4.9721,-4.9921,-5.0031,-4.9701,-4.9481,-4.9187,-4.8636,-4.8526,-4.8049,-4.7296,-4.7149,-4.6948,-4.6397,-4.592,-4.592,-4.5736,-4.4635,-4.4048,-4.4415,-4.4488,-4.4305,-4.4195,-4.4232,-4.4232,-4.4305,-4.4415,-4.4232,-4.4085,-4.3864,-4.3681,-4.3754,-4.3791,-4.3681,-7.1064,-7.0036,-6.9229,-6.8458,-6.7577,-6.6512,-6.5705,-6.5191,-6.4127,-6.3257,-6.2853,-6.2805,-6.2658,-6.2328,-6.1851,-6.1447,-6.1153,-6.0126,-5.9391,-5.8841,-5.829,-5.8033,-5.7997,-5.7997,-5.7997,-5.7997,-5.7997,-5.7997,-5.7997,-5.7997,-5.7997,-5.7997,-5.7997,-5.7997,-5.7997,-5.7997,-5.7997,-5.796,-5.7776,-5.7258,-5.657,-5.5998,-5.545,-5.4889,-5.4099,-5.3697,-5.3661,-5.3118,-5.2564,-5.2071,-5.1756,-5.0986,-4.9757,-4.8783,-4.8343,-4.8306,-4.8306,-4.8306,-4.8306,-4.8159,-4.8233,-4.8636,-4.8783,-4.9114,-4.9554,-5.0068,-5.0655,-5.1079,-5.1463,-5.1756,-5.1867,-5.1793,-5.161,-5.161,-5.0912,-5.0215,-4.9921,-4.8783,-4.8343,-4.8746,-4.9317,-4.9831,-5.0215,-5.0435,-5.0288,-5.0398,-5.0031,-4.9537,-4.928,-4.9077,-4.8563,-4.748,-4.7553,-4.759,-4.7058,-4.6801,-4.6874,-4.6581,-4.5626,-4.4892,-4.5186,-4.5149,-4.4966,-4.4929,-4.4966,-4.5002,-4.5076,-4.5112,-4.5002,-4.4672,-4.4415,-4.4305,-4.4268,-4.4085,-4.3791,-7.055,-7.0,-6.8935,-6.8164,-6.7577,-6.6292,-6.5595,-6.5154,-6.387,-6.3135,-6.2853,-6.2805,-6.2805,-6.2695,-6.2254,-6.2071,-6.1961,-6.1227,-6.0566,-6.0015,-5.9245,-5.8767,-5.8437,-5.8107,-5.7997,-5.807,-5.829,-5.8437,-5.8474,-5.8731,-5.8767,-5.851,-5.8437,-5.829,-5.8033,-5.7997,-5.7997,-5.7997,-5.796,-5.774,-5.7226,-5.6675,-5.6235,-5.5904,-5.4987,-5.4473,-5.4363,-5.3885,-5.3261,-5.2564,-5.2197,-5.1373,-5.0141,-4.9517,-4.9114,-4.8893,-4.9077,-4.926,-4.9224,-4.9297,-4.9444,-4.9921,-5.0031,-5.0215,-5.0729,-5.0986,-5.1499,-5.1867,-5.227,-5.2454,-5.2417,-5.2123,-5.2123,-5.2417,-5.1426,-5.0508,-4.9701,-4.9114,-4.9003,-4.9537,-5.0124,-5.0675,-5.0949,-5.1279,-5.0949,-5.1169,-5.0802,-5.0088,-4.9867,-4.9574,-4.871,-4.8086,-4.7957,-4.7883,-4.7626,-4.7626,-4.7773,-4.7315,-4.6654,-4.6214,-4.6122,-4.581,-4.5516,-4.5663,-4.5736,-4.57,-4.5773,-4.6104,-4.614,-4.5626,-4.5039,-4.4856,-4.4709,-4.3975,-4.3735,-7.0146,-6.9889,-6.8348,-6.7724,-6.7577,-6.6696,-6.5888,-6.5264,-6.4273,-6.3466,-6.2915,-6.2805,-6.2805,-6.2805,-6.2695,-6.2695,-6.2658,-6.2034,-6.163,-6.141,-6.0823,-6.0162,-5.9318,-5.8694,-5.8437,-5.8474,-5.8988,-5.9221,-5.9294,-5.9722,-5.9979,-5.9148,-5.8927,-5.8767,-5.8107,-5.7997,-5.7997,-5.7997,-5.7997,-5.796,-5.785,-5.6675,-5.6161,-5.6785,-5.55,-5.4693,-5.4583,-5.4252,-5.3849,-5.3225,-5.238,-5.1646,-5.1022,-5.0839,-5.0288,-4.9721,-5.0362,-5.0582,-5.0729,-5.0545,-5.0692,-5.0839,-5.0875,-5.0912,-5.1206,-5.1756,-5.2087,-5.2234,-5.2711,-5.3093,-5.3004,-5.2601,-5.2491,-5.2747,-5.1646,-5.0508,-4.9757,-4.9537,-4.9537,-4.9831,-5.0932,-5.1997,-5.1867,-5.238,-5.2417,-5.2234,-5.1867,-5.1096,-5.0308,-4.9811,-4.9297,-4.8857,-4.8416,-4.8269,-4.8086,-4.792,-4.803,-4.7865,-4.7388,-4.7241,-4.7003,-4.6654,-4.6471,-4.6581,-4.6544,-4.6507,-4.6617,-4.6985,-4.6819,-4.625,-4.5773,-4.548,-4.5112,-4.4635,-4.4415,-7.066,-6.9926,-6.8348,-6.7687,-6.7467,-6.6219,-6.5521,-6.5118,-6.3759,-6.3062,-6.2842,-6.2805,-6.2805,-6.2805,-6.2805,-6.2805,-6.2732,-6.2585,-6.2511,-6.2475,-6.2328,-6.1374,-6.0346,-5.9869,-5.9722,-5.9758,-5.9942,-6.0089,-6.0052,-5.9845,-5.9551,-5.9184,-5.8731,-5.829,-5.7997,-5.7997,-5.7997,-5.7997,-5.7997,-5.7997,-5.7923,-5.7593,-5.7446,-5.7519,-5.6638,-5.5831,-5.5207,-5.4106,-5.346,-5.3188,-5.2417,-5.1924,-5.161,-5.1169,-5.0802,-5.0618,-5.0692,-5.0839,-5.0875,-5.0875,-5.1096,-5.161,-5.1683,-5.194,-5.2527,-5.2747,-5.2894,-5.2931,-5.3115,-5.3203,-5.3167,-5.2983,-5.2784,-5.2234,-5.1463,-5.0545,-4.9867,-4.9554,-4.9517,-4.9757,-5.1096,-5.1867,-5.2123,-5.227,-5.2564,-5.2674,-5.2344,-5.172,-5.0875,-5.0765,-5.0545,-4.926,-4.8673,-4.8636,-4.8526,-4.8379,-4.8269,-4.8233,-4.8086,-4.8012,-4.7902,-4.7755,-4.7719,-4.7792,-4.7535,-4.7425,-4.7645,-4.7939,-4.7425,-4.6819,-4.6599,-4.6342,-4.6305,-4.5993,-4.5847,-7.0844,-6.9963,-6.8348,-6.7687,-6.7467,-6.5962,-6.5338,-6.5007,-6.3576,-6.2805,-6.2805,-6.2805,-6.2805,-6.2805,-6.2805,-6.2805,-6.2805,-6.2805,-6.2805,-6.2805,-6.2768,-6.2034,-6.108,-6.0639,-6.0419,-6.0456,-6.075,-6.0896,-6.086,-6.0419,-6.0236,-6.0052,-5.9061,-5.8547,-5.851,-5.8107,-5.7997,-5.7997,-5.7997,-5.7997,-5.7997,-5.7666,-5.774,-5.774,-5.7226,-5.6418,-5.5537,-5.4363,-5.357,-5.3225,-5.2747,-5.2344,-5.2013,-5.194,-5.1646,-5.1389,-5.161,-5.183,-5.183,-5.183,-5.2013,-5.238,-5.2491,-5.2711,-5.3041,-5.3203,-5.3203,-5.3167,-5.3203,-5.3203,-5.3203,-5.3203,-5.2821,-5.216,-5.1573,-5.0949,-5.0198,-5.0435,-5.0545,-5.0875,-5.1646,-5.2491,-5.2491,-5.2454,-5.2711,-5.2968,-5.2821,-5.216,-5.1536,-5.1793,-5.1536,-5.0141,-4.9517,-4.9627,-4.9627,-4.9444,-4.9334,-4.9187,-4.8857,-4.882,-4.8563,-4.8489,-4.8269,-4.8233,-4.8269,-4.8306,-4.8306,-4.8306,-4.8049,-4.759,-4.7406,-4.7259,-4.7186,-4.6819,-4.6801,-7.0844,-6.9963,-6.8348,-6.7687,-6.743,-6.6109,-6.5521,-6.5154,-6.3759,-6.3025,-6.2989,-6.2853,-6.2805,-6.2805,-6.2805,-6.2805,-6.2805,-6.2805,-6.2805,-6.2805,-6.2768,-6.2365,-6.1777,-6.1227,-6.097,-6.097,-6.1447,-6.1667,-6.163,-6.1594,-6.152,-6.1043,-5.9979,-5.9294,-5.9001,-5.851,-5.8143,-5.7997,-5.7997,-5.7997,-5.7886,-5.7519,-5.7519,-5.7813,-5.7226,-5.6528,-5.5757,-5.484,-5.4069,-5.3387,-5.324,-5.2821,-5.2307,-5.2858,-5.2784,-5.2344,-5.2637,-5.2983,-5.3093,-5.2947,-5.3093,-5.3093,-5.3093,-5.3203,-5.3203,-5.3203,-5.3203,-5.3203,-5.3203,-5.3203,-5.3203,-5.3203,-5.2821,-5.2197,-5.1977,-5.1756,-5.1279,-5.1573,-5.1977,-5.194,-5.2601,-5.3093,-5.3093,-5.313,-5.3167,-5.3093,-5.2968,-5.2527,-5.2123,-5.216,-5.172,-5.0765,-5.0582,-5.0802,-5.0729,-5.0655,-5.0508,-5.0398,-4.9884,-4.9591,-4.9077,-4.8857,-4.8489,-4.8306,-4.8306,-4.8306,-4.8306,-4.8306,-4.8306,-4.8103,-4.7773,-4.7846,-4.7939,-4.7352,-4.7095,-7.0844,-6.9963,-6.8348,-6.7687,-6.7504,-6.6659,-6.6219,-6.6072,-6.453,-6.3796,-6.3649,-6.3135,-6.2817,-6.2805,-6.2805,-6.2805,-6.2805,-6.2805,-6.2805,-6.2805,-6.2805,-6.2732,-6.2511,-6.2218,-6.2254,-6.2254,-6.2401,-6.2548,-6.2438,-6.1887,-6.1594,-6.1484,-6.0639,-5.9832,-5.9258,-5.9001,-5.8584,-5.8107,-5.7997,-5.7997,-5.7997,-5.7813,-5.7776,-5.7923,-5.7262,-5.6785,-5.6308,-5.517,-5.4363,-5.4032,-5.3555,-5.3188,-5.2968,-5.3057,-5.3078,-5.3004,-5.302,-5.3203,-5.3203,-5.3203,-5.3203,-5.3203,-5.3203,-5.3203,-5.3203,-5.3203,-5.3203,-5.3203,-5.3203,-5.3203,-5.3203,-5.3203,-5.2858,-5.238,-5.2527,-5.2601,-5.1977,-5.1903,-5.183,-5.1683,-5.238,-5.3004,-5.2454,-5.2968,-5.3093,-5.3167,-5.3041,-5.2784,-5.2674,-5.2601,-5.2087,-5.1389,-5.1499,-5.1646,-5.1463,-5.1426,-5.1426,-5.1279,-5.0875,-5.0545,-5.0031,-4.9297,-4.8967,-4.86,-4.8306,-4.8379,-4.8673,-4.86,-4.871,-4.8416,-4.8269,-4.8343,-4.8306,-4.7792,-4.7462,-7.0844,-6.9963,-6.8375,-6.7687,-6.754,-6.6843,-6.6512,-6.6256,-6.5228,-6.4457,-6.4053,-6.3576,-6.3209,-6.2817,-6.2805,-6.2805,-6.2805,-6.2805,-6.2805,-6.2805,-6.2805,-6.2805,-6.2805,-6.2805,-6.2805,-6.2805,-6.2805,-6.2805,-6.2585,-6.2108,-6.1814,-6.1998,-6.1043,-6.0236,-5.9698,-5.9404,-5.8767,-5.8143,-5.7997,-5.7997,-5.7997,-5.7997,-5.7997,-5.796,-5.7556,-5.7226,-5.6712,-5.5647,-5.484,-5.4399,-5.3995,-5.3592,-5.3277,-5.3203,-5.3203,-5.3203,-5.3203,-5.3203,-5.3203,-5.3203,-5.3203,-5.3203,-5.3203,-5.3203,-5.3203,-5.3203,-5.3203,-5.3203,-5.3203,-5.3203,-5.3203,-5.3203,-5.2894,-5.2784,-5.291,-5.2968,-5.2674,-5.2564,-5.2454,-5.216,-5.2726,-5.2931,-5.2931,-5.3041,-5.3093,-5.3167,-5.3203,-5.3004,-5.3004,-5.2931,-5.2784,-5.2417,-5.2491,-5.2454,-5.2197,-5.216,-5.2234,-5.205,-5.1756,-5.1499,-5.1169,-5.0325,-4.9481,-4.9187,-4.893,-4.9114,-4.9334,-4.9224,-4.9297,-4.9481,-4.9444,-4.9114,-4.8746,-4.8379,-4.8122,-7.0734,-6.9963,-6.8385,-6.7687,-6.7577,-6.699,-6.6733,-6.6586,-6.5852,-6.5081,-6.4347,-6.42,-6.3539,-6.2952,-6.2805,-6.2805,-6.2805,-6.2805,-6.2805,-6.2805,-6.2805,-6.2805,-6.2805,-6.2805,-6.2805,-6.2805,-6.2805,-6.2805,-6.2622,-6.2218,-6.2218,-6.245,-6.1569,-6.0896,-6.0493,-5.9942,-5.9245,-5.8437,-5.8327,-5.8143,-5.7997,-5.7997,-5.7997,-5.796,-5.7923,-5.7629,-5.7079,-5.6271,-5.55,-5.484,-5.4656,-5.4216,-5.3775,-5.3555,-5.3335,-5.3314,-5.335,-5.3387,-5.324,-5.3203,-5.3203,-5.3203,-5.3203,-5.3203,-5.3203,-5.3203,-5.3203,-5.3203,-5.3203,-5.3203,-5.3203,-5.3203,-5.3203,-5.313,-5.3167,-5.3203,-5.3203,-5.3203,-5.3057,-5.3057,-5.302,-5.302,-5.3093,-5.3167,-5.3167,-5.3203,-5.3203,-5.3203,-5.3203,-5.3167,-5.3041,-5.2968,-5.2931,-5.2873,-5.2653,-5.258,-5.2711,-5.2637,-5.2417,-5.2307,-5.2123,-5.1683,-5.0875,-4.9958,-4.9757,-4.9921,-4.9994,-4.9958,-5.0141,-5.0582,-5.0435,-4.9921,-4.9444,-4.904,-4.8783,-7.022,-6.9963,-6.8348,-6.7687,-6.765,-6.754,-6.743,-6.7357,-6.6586,-6.5852,-6.5044,-6.4383,-6.3613,-6.2989,-6.2805,-6.2805,-6.2805,-6.2805,-6.2805,-6.2805,-6.2805,-6.2805,-6.2805,-6.2952,-6.2915,-6.2805,-6.2879,-6.2915,-6.2805,-6.2695,-6.2585,-6.2695,-6.2475,-6.2034,-6.141,-6.1153,-6.0162,-5.8988,-5.8767,-5.851,-5.8107,-5.7997,-5.7997,-5.7997,-5.7997,-5.7886,-5.7629,-5.7042,-5.6528,-5.6345,-5.5757,-5.5354,-5.5133,-5.5097,-5.4583,-5.3775,-5.3849,-5.3849,-5.3445,-5.3277,-5.3203,-5.3203,-5.3277,-5.324,-5.324,-5.3277,-5.3387,-5.3408,-5.3371,-5.3277,-5.3203,-5.335,-5.3277,-5.324,-5.3203,-5.324,-5.324,-5.3203,-5.3203,-5.3203,-5.3203,-5.3203,-5.3203,-5.3203,-5.3203,-5.3203,-5.3203,-5.3203,-5.3203,-5.3203,-5.313,-5.313,-5.313,-5.313,-5.3093,-5.302,-5.3057,-5.302,-5.2873,-5.2873,-5.2821,-5.2931,-5.2344,-5.1022,-5.0472,-5.0545,-5.0618,-5.0655,-5.0912,-5.1279,-5.0986,-5.0618,-5.0251,-4.9904,-4.939,-6.9853,-6.9339,-6.8164,-6.7687,-6.7687,-6.7687,-6.7687,-6.7567,-6.6843,-6.6035,-6.5264,-6.4457,-6.3613,-6.2989,-6.2805,-6.2805,-6.2805,-6.2805,-6.2805,-6.2805,-6.2805,-6.2805,-6.2952,-6.3246,-6.3429,-6.3466,-6.3466,-6.3209,-6.2817,-6.2805,-6.2805,-6.2805,-6.2805,-6.2401,-6.163,-6.108,-6.0419,-5.9404,-5.8877,-5.8437,-5.8033,-5.7997,-5.7997,-5.7997,-5.7997,-5.7997,-5.785,-5.7226,-5.6822,-5.6712,-5.6418,-5.6014,-5.5941,-5.6161,-5.6088,-5.4803,-5.4473,-5.4289,-5.3922,-5.3849,-5.3849,-5.3849,-5.3812,-5.3812,-5.3812,-5.3885,-5.3995,-5.4289,-5.4436,-5.4436,-5.4473,-5.4069,-5.4069,-5.4179,-5.3775,-5.3482,-5.3592,-5.3408,-5.3277,-5.3203,-5.3203,-5.3203,-5.3203,-5.3203,-5.3203,-5.3203,-5.3203,-5.3203,-5.3203,-5.3203,-5.3203,-5.3203,-5.3203,-5.3203,-5.324,-5.335,-5.324,-5.3203,-5.3314,-5.3314,-5.3167,-5.313,-5.2564,-5.1499,-5.1279,-5.1389,-5.1536,-5.1683,-5.1867,-5.1903,-5.1683,-5.1426,-5.1096,-5.0712,-5.0161,-6.9633,-6.8825,-6.8017,-6.7687,-6.765,-6.7504,-6.743,-6.7283,-6.6586,-6.5778,-6.5044,-6.4383,-6.3613,-6.2989,-6.2805,-6.2805,-6.2805,-6.2805,-6.2805,-6.2805,-6.2842,-6.2842,-6.3282,-6.3649,-6.398,-6.3906,-6.3943,-6.3723,-6.3246,-6.2915,-6.2805,-6.2805,-6.2805,-6.2548,-6.1887,-6.152,-6.0395,-5.9685,-5.8914,-5.8437,-5.807,-5.7997,-5.7997,-5.7997,-5.7997,-5.7997,-5.7923,-5.7483,-5.7189,-5.7116,-5.7005,-5.6785,-5.6418,-5.7299,-5.7373,-5.6198,-5.5317,-5.4913,-5.4656,-5.4656,-5.462,-5.462,-5.4656,-5.4656,-5.4656,-5.4693,-5.484,-5.5464,-5.55,-5.5427,-5.528,-5.4987,-5.4876,-5.4766,-5.4179,-5.3555,-5.3702,-5.3592,-5.324,-5.3203,-5.3203,-5.3203,-5.3203,-5.3203,-5.3203,-5.3203,-5.3203,-5.3203,-5.3203,-5.3203,-5.3203,-5.3203,-5.3203,-5.3203,-5.3314,-5.3592,-5.3387,-5.3203,-5.346,-5.3607,-5.3387,-5.3167,-5.2601,-5.2307,-5.238,-5.2506,-5.2637,-5.2601,-5.2601,-5.2564,-5.2417,-5.227,-5.2013,-5.1463,-5.0822,-6.9633,-6.8825,-6.8017,-6.7687,-6.7577,-6.7026,-6.6696,-6.6586,-6.5852,-6.5007,-6.4347,-6.409,-6.3539,-6.2989,-6.2805,-6.2805,-6.2805,-6.2805,-6.2805,-6.2805,-6.2842,-6.3135,-6.3759,-6.398,-6.4127,-6.4163,-6.4127,-6.4053,-6.3686,-6.3135,-6.2817,-6.2805,-6.2805,-6.2732,-6.2511,-6.2108,-6.2108,-6.1263,-6.0419,-5.9355,-5.829,-5.8033,-5.7997,-5.7997,-5.7997,-5.7997,-5.7997,-5.7776,-5.774,-5.774,-5.7776,-5.7776,-5.7776,-5.7813,-5.796,-5.7556,-5.7005,-5.6235,-5.5611,-5.5464,-5.5427,-5.5464,-5.5464,-5.5486,-5.5464,-5.5464,-5.5537,-5.5537,-5.5684,-5.5831,-5.5926,-5.5596,-5.5207,-5.4876,-5.4583,-5.3959,-5.3812,-5.3885,-5.3534,-5.3424,-5.3534,-5.3314,-5.3203,-5.3203,-5.3203,-5.3203,-5.3203,-5.3203,-5.3203,-5.3203,-5.3203,-5.3203,-5.346,-5.3534,-5.3739,-5.3959,-5.3995,-5.3592,-5.3812,-5.4069,-5.3739,-5.357,-5.3702,-5.3518,-5.346,-5.3203,-5.2968,-5.2931,-5.313,-5.3057,-5.2821,-5.2931,-5.302,-5.2344,-5.1389,-6.8935,-6.8164,-6.7834,-6.7687,-6.765,-6.732,-6.6916,-6.6402,-6.5668,-6.4861,-6.409,-6.3539,-6.3135,-6.2867,-6.2805,-6.2805,-6.2805,-6.2805,-6.2805,-6.2805,-6.2842,-6.3,-6.3503,-6.4237,-6.464,-6.4237,-6.4457,-6.4457,-6.4016,-6.3319,-6.2805,-6.2805,-6.2805,-6.2805,-6.2768,-6.2328,-6.1961,-6.1263,-6.0419,-5.9404,-5.8767,-5.8253,-5.7997,-5.7997,-5.7997,-5.7997,-5.7997,-5.7997,-5.7997,-5.7997,-5.7997,-5.7997,-5.7997,-5.7997,-5.796,-5.796,-5.7703,-5.7079,-5.6418,-5.6308,-5.6271,-5.6271,-5.6271,-5.6271,-5.6271,-5.6308,-5.6528,-5.6932,-5.6969,-5.6932,-5.6748,-5.6528,-5.6492,-5.6088,-5.517,-5.506,-5.4656,-5.4106,-5.3959,-5.3922,-5.3849,-5.3702,-5.3518,-5.335,-5.3314,-5.3203,-5.3203,-5.3203,-5.3203,-5.3203,-5.3203,-5.3203,-5.357,-5.3995,-5.4289,-5.4546,-5.4913,-5.473,-5.4803,-5.4803,-5.4216,-5.4032,-5.4216,-5.4032,-5.3628,-5.3408,-5.3225,-5.3151,-5.3167,-5.3203,-5.3167,-5.3203,-5.313,-5.2564,-5.172,-6.8238,-6.7687,-6.7687,-6.7687,-6.7614,-6.7283,-6.6733,-6.6145,-6.5044,-6.431,-6.381,-6.3248,-6.3051,-6.3014,-6.3014,-6.2965,-6.2805,-6.2805,-6.2805,-6.2805,-6.2842,-6.2989,-6.3539,-6.442,-6.4604,-6.409,-6.4494,-6.453,-6.4053,-6.3503,-6.3135,-6.2842,-6.2805,-6.2805,-6.2658,-6.2365,-6.1961,-6.152,-6.0603,-5.9905,-5.9428,-5.8731,-5.8437,-5.829,-5.8143,-5.7997,-5.7997,-5.7997,-5.7997,-5.7997,-5.7997,-5.7997,-5.7997,-5.7997,-5.7997,-5.7997,-5.7886,-5.7703,-5.7262,-5.7116,-5.7116,-5.7116,-5.7116,-5.7079,-5.7116,-5.7116,-5.7226,-5.7776,-5.7813,-5.785,-5.785,-5.7373,-5.7152,-5.6712,-5.6088,-5.6161,-5.6051,-5.5244,-5.4509,-5.4289,-5.4216,-5.4216,-5.3995,-5.3665,-5.346,-5.324,-5.3203,-5.3203,-5.3277,-5.335,-5.3497,-5.357,-5.3922,-5.4436,-5.4913,-5.5207,-5.5596,-5.5816,-5.5853,-5.5574,-5.495,-5.4693,-5.4803,-5.4436,-5.4032,-5.3922,-5.3959,-5.3555,-5.3203,-5.3203,-5.3203,-5.3203,-5.302,-5.2527,-5.2123,-6.7751,-6.7687,-6.7687,-6.765,-6.754,-6.6072,-6.5485,-6.5305,-6.3785,-6.321,-6.3259,-6.3308,-6.3543,-6.352,-6.3476,-6.3308,-6.283,-6.2805,-6.288,-6.288,-6.2879,-6.3172,-6.3649,-6.398,-6.4237,-6.4127,-6.4457,-6.442,-6.409,-6.4016,-6.3466,-6.2927,-6.3062,-6.2915,-6.2805,-6.2695,-6.2254,-6.1851,-6.1263,-6.0823,-6.0272,-5.9612,-5.9171,-5.8951,-5.8474,-5.7997,-5.7997,-5.7997,-5.7997,-5.7997,-5.7997,-5.7997,-5.7997,-5.7997,-5.7997,-5.7997,-5.7997,-5.7886,-5.774,-5.7703,-5.785,-5.7886,-5.785,-5.774,-5.7703,-5.7813,-5.796,-5.796,-5.796,-5.7997,-5.7997,-5.7886,-5.7593,-5.7189,-5.6675,-5.6528,-5.6381,-5.5978,-5.528,-5.4803,-5.4693,-5.484,-5.4546,-5.4252,-5.3922,-5.3702,-5.3592,-5.3628,-5.3739,-5.3849,-5.4032,-5.4179,-5.4399,-5.4876,-5.55,-5.5941,-5.6455,-5.6565,-5.6528,-5.6198,-5.5684,-5.5574,-5.55,-5.528,-5.495,-5.484,-5.4509,-5.3849,-5.3387,-5.324,-5.3203,-5.3203,-5.3203,-5.2931,-5.2527,-6.7687,-6.7687,-6.7687,-6.7393,-6.6916,-6.6292,-6.5642,-6.4964,-6.4308,-6.3929,-6.3787,-6.3958,-6.3913,-6.3766,-6.3975,-6.3808,-6.334,-6.3271,-6.3308,-6.3144,-6.3088,-6.305,-6.3429,-6.3821,-6.409,-6.4163,-6.4494,-6.4861,-6.4861,-6.4494,-6.4016,-6.3686,-6.3723,-6.3613,-6.3539,-6.3025,-6.2622,-6.2328,-6.1887,-6.1374,-6.1117,-6.0382,-5.9942,-5.9869,-5.9148,-5.8804,-5.8694,-5.8217,-5.807,-5.7997,-5.7997,-5.7997,-5.7997,-5.7997,-5.7997,-5.7997,-5.7997,-5.7997,-5.7997,-5.7997,-5.7997,-5.7997,-5.796,-5.7997,-5.7997,-5.7997,-5.7997,-5.7997,-5.7997,-5.7997,-5.7997,-5.7997,-5.7813,-5.7519,-5.7226,-5.6969,-5.6785,-5.6492,-5.6161,-5.5684,-5.5611,-5.5721,-5.528,-5.4803,-5.4473,-5.4179,-5.4069,-5.4032,-5.4252,-5.4436,-5.4656,-5.4987,-5.5244,-5.5647,-5.6271,-5.6822,-5.7336,-5.7299,-5.7189,-5.6859,-5.6455,-5.6381,-5.6308,-5.6088,-5.5794,-5.5464,-5.4913,-5.4032,-5.3607,-5.3644,-5.3424,-5.3203,-5.3203,-5.3203,-5.2931,-6.7687,-6.7687,-6.7687,-6.7393,-6.6843,-6.6329,-6.5792,-6.5217,-6.4912,-6.4936,-6.4969,-6.4779,-6.4464,-6.4379,-6.4766,-6.4572,-6.4236,-6.4134,-6.4016,-6.3771,-6.3363,-6.311,-6.3211,-6.3345,-6.3613,-6.3943,-6.453,-6.4897,-6.5191,-6.4934,-6.5118,-6.5191,-6.4861,-6.4567,-6.3466,-6.3172,-6.2805,-6.2658,-6.2328,-6.1961,-6.1851,-6.119,-6.075,-6.0566,-5.9758,-5.9148,-5.8891,-5.8437,-5.8033,-5.7997,-5.7997,-5.7997,-5.7997,-5.7997,-5.7997,-5.7997,-5.7997,-5.7997,-5.7997,-5.7997,-5.7997,-5.7997,-5.7997,-5.7997,-5.7997,-5.7997,-5.7997,-5.7997,-5.7997,-5.7997,-5.7997,-5.7997,-5.7997,-5.7703,-5.7593,-5.7373,-5.7483,-5.7299,-5.6969,-5.6602,-5.6638,-5.6602,-5.5721,-5.5244,-5.5133,-5.4876,-5.484,-5.484,-5.4987,-5.5207,-5.5464,-5.5831,-5.6235,-5.6675,-5.7152,-5.7409,-5.7666,-5.7666,-5.7593,-5.7556,-5.7299,-5.7189,-5.6895,-5.6565,-5.6271,-5.5978,-5.5574,-5.5023,-5.4546,-5.4142,-5.3885,-5.3628,-5.3203,-5.3203,-5.3203,-6.7687,-6.7687,-6.7687,-6.765,-6.7393,-6.5999,-6.5534,-6.571,-6.5325,-6.5519,-6.608,-6.5503,-6.5293,-6.552,-6.5914,-6.5724,-6.5281,-6.5384,-6.5237,-6.4627,-6.4165,-6.3788,-6.3567,-6.3541,-6.3723,-6.3246,-6.4127,-6.5118,-6.5521,-6.5632,-6.6329,-6.6659,-6.6035,-6.5007,-6.3099,-6.2842,-6.2805,-6.2805,-6.2707,-6.2658,-6.2475,-6.1887,-6.163,-6.1263,-6.0162,-5.9441,-5.9281,-5.8474,-5.8033,-5.7997,-5.7997,-5.7997,-5.7997,-5.7997,-5.7997,-5.7997,-5.7997,-5.7997,-5.7997,-5.7997,-5.7997,-5.7997,-5.7997,-5.7997,-5.7997,-5.7997,-5.7997,-5.7997,-5.7997,-5.7997,-5.7997,-5.7997,-5.7997,-5.7923,-5.7776,-5.774,-5.7813,-5.785,-5.7446,-5.7262,-5.7483,-5.7446,-5.6345,-5.5611,-5.5706,-5.5633,-5.5596,-5.5706,-5.5868,-5.6088,-5.6381,-5.6602,-5.7005,-5.7189,-5.7556,-5.7776,-5.7923,-5.7997,-5.796,-5.785,-5.7813,-5.7703,-5.7409,-5.7042,-5.6785,-5.6565,-5.6418,-5.6198,-5.5647,-5.506,-5.4473,-5.4106,-5.357,-5.3203,-5.3203,-6.7687,-6.7687,-6.7687,-6.7687,-6.7467,-6.5999,-6.5493,-6.5772,-6.6149,-6.6567,-6.6758,-6.6493,-6.6238,-6.6351,-6.6636,-6.678,-6.6759,-6.6726,-6.6529,-6.5953,-6.5411,-6.5079,-6.4746,-6.4512,-6.4604,-6.5191,-6.5668,-6.5962,-6.6953,-6.6439,-6.6256,-6.6476,-6.6292,-6.5044,-6.3833,-6.3209,-6.2805,-6.2805,-6.2805,-6.2805,-6.2743,-6.2511,-6.2365,-6.2291,-6.0762,-6.0015,-5.9832,-5.8767,-5.8143,-5.7997,-5.7997,-5.7997,-5.7997,-5.7997,-5.7997,-5.7997,-5.7997,-5.7997,-5.7997,-5.7997,-5.7997,-5.7997,-5.7997,-5.7997,-5.7997,-5.7997,-5.7997,-5.7997,-5.7997,-5.7997,-5.7997,-5.7997,-5.7997,-5.7997,-5.7923,-5.7923,-5.796,-5.796,-5.7813,-5.7776,-5.7886,-5.785,-5.7189,-5.6235,-5.6088,-5.6492,-5.6528,-5.6785,-5.7005,-5.7189,-5.7446,-5.7483,-5.7666,-5.7776,-5.7923,-5.796,-5.7997,-5.7997,-5.7997,-5.796,-5.796,-5.7997,-5.785,-5.7519,-5.7336,-5.7152,-5.7116,-5.6969,-5.6528,-5.6014,-5.5317,-5.4399,-5.3665,-5.3314,-5.3203,-6.7982,-6.8007,-6.8161,-6.8148,-6.7786,-6.6542,-6.6254,-6.6708,-6.7046,-6.7244,-6.7398,-6.7,-6.6797,-6.6865,-6.7333,-6.7731,-6.8008,-6.825,-6.7692,-6.7145,-6.6562,-6.5993,-6.5594,-6.5478,-6.5301,-6.6109,-6.6476,-6.6733,-6.7063,-6.6476,-6.6586,-6.6733,-6.6145,-6.5632,-6.4824,-6.431,-6.3613,-6.3539,-6.3356,-6.3135,-6.2952,-6.2768,-6.2768,-6.2401,-6.1594,-6.0713,-6.0126,-5.9281,-5.829,-5.8107,-5.7997,-5.7997,-5.7997,-5.7997,-5.7997,-5.7997,-5.7997,-5.7997,-5.7997,-5.7997,-5.7997,-5.7997,-5.7997,-5.7997,-5.7997,-5.7997,-5.7997,-5.7997,-5.7997,-5.7997,-5.7997,-5.7997,-5.7997,-5.7997,-5.7997,-5.7997,-5.7997,-5.7997,-5.7997,-5.7997,-5.7923,-5.7923,-5.7886,-5.7189,-5.6528,-5.7042,-5.7519,-5.774,-5.7886,-5.7923,-5.7997,-5.796,-5.796,-5.7923,-5.7923,-5.796,-5.7997,-5.7997,-5.7997,-5.7997,-5.7997,-5.7997,-5.7997,-5.796,-5.774,-5.7629,-5.7813,-5.7666,-5.7152,-5.6602,-5.5941,-5.4987,-5.3827,-5.3497,-5.3424,-6.8474,-6.859,-6.9047,-6.8844,-6.8381,-6.7597,-6.7854,-6.8641,-6.7634,-6.7628,-6.8205,-6.6628,-6.6699,-6.76,-6.8133,-6.8551,-6.8992,-6.9462,-6.8762,-6.7939,-6.739,-6.6764,-6.6216,-6.5851,-6.5977,-6.5962,-6.6219,-6.6843,-6.6733,-6.699,-6.7393,-6.732,-6.6769,-6.6366,-6.5962,-6.5485,-6.4677,-6.4127,-6.3576,-6.3282,-6.2915,-6.2805,-6.2805,-6.2511,-6.1924,-6.108,-6.0382,-5.9538,-5.8731,-5.829,-5.7997,-5.7997,-5.7997,-5.7997,-5.7997,-5.7997,-5.7997,-5.7997,-5.7997,-5.7997,-5.7997,-5.7997,-5.7997,-5.7997,-5.7997,-5.7997,-5.7997,-5.7997,-5.7997,-5.7997,-5.7997,-5.7997,-5.7997,-5.7997,-5.7997,-5.7997,-5.7997,-5.7997,-5.7997,-5.7923,-5.7813,-5.7813,-5.7813,-5.7336,-5.6895,-5.7409,-5.7776,-5.7813,-5.7923,-5.796,-5.7997,-5.7997,-5.796,-5.796,-5.7997,-5.7997,-5.7997,-5.7997,-5.7997,-5.7997,-5.7997,-5.7997,-5.7997,-5.7997,-5.7997,-5.7997,-5.7997,-5.7886,-5.7629,-5.7079,-5.6528,-5.5721,-5.4656,-5.4069,-5.3849,-6.8144,-6.8934,-6.7967,-6.7758,-6.8149,-6.83,-6.8233,-6.7948,-6.7927,-6.7936,-6.7436,-6.6974,-6.7165,-6.8133,-6.8345,-6.9149,-6.9893,-7.0283,-6.972,-6.9053,-6.8411,-6.792,-6.742,-6.6938,-6.6953,-6.699,-6.7136,-6.7247,-6.7357,-6.7687,-6.732,-6.6843,-6.7173,-6.6953,-6.6623,-6.6256,-6.5264,-6.4383,-6.3723,-6.3209,-6.2952,-6.2805,-6.2805,-6.2585,-6.2108,-6.13,-6.0529,-5.9795,-5.8988,-5.8217,-5.8033,-5.7997,-5.7997,-5.7997,-5.7997,-5.7997,-5.7997,-5.7997,-5.7997,-5.7997,-5.8033,-5.8033,-5.8033,-5.7997,-5.7997,-5.7997,-5.7997,-5.7997,-5.7997,-5.7997,-5.7997,-5.7997,-5.7997,-5.7997,-5.7997,-5.7997,-5.7997,-5.7997,-5.796,-5.7923,-5.7813,-5.774,-5.774,-5.7483,-5.7152,-5.7703,-5.8033,-5.8107,-5.807,-5.807,-5.7997,-5.7997,-5.7997,-5.7997,-5.7997,-5.7997,-5.7997,-5.7997,-5.7997,-5.7997,-5.7997,-5.7997,-5.7997,-5.7997,-5.7997,-5.7997,-5.7997,-5.7886,-5.7776,-5.7629,-5.7116,-5.6308,-5.5537,-5.495,-5.4436,-6.7859,-6.847,-6.7797,-6.7715,-6.8147,-6.8508,-6.8174,-6.762,-6.8112,-6.7898,-6.7103,-6.6756,-6.709,-6.7731,-6.7923,-6.8692,-7.0231,-7.019,-6.9849,-6.9398,-6.9313,-6.8516,-6.7984,-6.7687,-6.7577,-6.7687,-6.7687,-6.7577,-6.7687,-6.7677,-6.7357,-6.7173,-6.7567,-6.7357,-6.6916,-6.6292,-6.5521,-6.464,-6.3906,-6.3246,-6.2952,-6.2805,-6.2805,-6.2732,-6.2218,-6.163,-6.0933,-6.0236,-5.9612,-5.8694,-5.8474,-5.829,-5.8143,-5.7997,-5.7997,-5.7997,-5.7997,-5.8217,-5.84,-5.8143,-5.8253,-5.829,-5.818,-5.7997,-5.7997,-5.7997,-5.7997,-5.7997,-5.7997,-5.7997,-5.7997,-5.7997,-5.7997,-5.7997,-5.7997,-5.7997,-5.7997,-5.7997,-5.796,-5.7923,-5.785,-5.774,-5.7593,-5.7373,-5.7556,-5.8253,-5.8731,-5.8951,-5.8694,-5.8364,-5.8143,-5.7997,-5.7997,-5.7997,-5.7997,-5.7997,-5.7997,-5.7997,-5.7997,-5.7997,-5.7997,-5.7997,-5.7997,-5.7997,-5.7997,-5.7997,-5.7997,-5.7997,-5.7886,-5.774,-5.7666,-5.7189,-5.6455,-5.5757,-5.5317,-6.7561,-6.7757,-6.8133,-6.8177,-6.8269,-6.8243,-6.7833,-6.7244,-6.7885,-6.7782,-6.6936,-6.6244,-6.6436,-6.7205,-6.7359,-6.8282,-6.9475,-6.9871,-6.9741,-6.9295,-6.9313,-6.8728,-6.7982,-6.7687,-6.7687,-6.7687,-6.7687,-6.7687,-6.7687,-6.7677,-6.7704,-6.7704,-6.765,-6.7547,-6.7288,-6.6088,-6.5264,-6.4714,-6.398,-6.3319,-6.2952,-6.2805,-6.2805,-6.2805,-6.2658,-6.2365,-6.1741,-6.1263,-6.0896,-5.9869,-5.9074,-5.8767,-5.8253,-5.8364,-5.8364,-5.818,-5.8253,-5.8694,-5.8914,-5.8694,-5.8657,-5.8657,-5.8547,-5.8217,-5.8107,-5.7997,-5.7997,-5.7997,-5.7997,-5.7997,-5.7997,-5.7997,-5.7997,-5.7997,-5.7997,-5.7997,-5.7997,-5.7997,-5.796,-5.796,-5.7923,-5.785,-5.7886,-5.774,-5.818,-5.8891,-5.9368,-5.9612,-5.9538,-5.9061,-5.8694,-5.8364,-5.829,-5.829,-5.7997,-5.7997,-5.7997,-5.7997,-5.7997,-5.7997,-5.7997,-5.7997,-5.7997,-5.7997,-5.7997,-5.7997,-5.7997,-5.7997,-5.7997,-5.7923,-5.7886,-5.7923,-5.7409,-5.6602,-5.6161,-6.7256,-6.8147,-6.7628,-6.7398,-6.7398,-6.7398,-6.7282,-6.709,-6.7282,-6.6974,-6.6244,-6.6051,-6.6282,-6.691,-6.7013,-6.7898,-6.9206,-6.9319,-6.9469,-6.9247,-6.9162,-6.8541,-6.7878,-6.7614,-6.765,-6.7687,-6.7687,-6.7714,-6.7784,-6.7784,-6.793,-6.821,-6.8072,-6.7823,-6.7494,-6.6136,-6.5294,-6.4703,-6.387,-6.3356,-6.3025,-6.2879,-6.2805,-6.2842,-6.2743,-6.2475,-6.1961,-6.1594,-6.1043,-6.0236,-5.9478,-5.8841,-5.807,-5.9171,-5.9391,-5.9061,-5.8927,-5.9368,-5.9625,-5.9404,-5.9184,-5.9111,-5.8951,-5.8547,-5.8253,-5.807,-5.7997,-5.8033,-5.8033,-5.8033,-5.8107,-5.8107,-5.807,-5.807,-5.7997,-5.7997,-5.7997,-5.7997,-5.7997,-5.7997,-5.7997,-5.8107,-5.818,-5.851,-5.8914,-5.9391,-5.9905,-6.0199,-6.0346,-6.0089,-5.9722,-5.9391,-5.8988,-5.8804,-5.8364,-5.7997,-5.7997,-5.7997,-5.7997,-5.7997,-5.7997,-5.7997,-5.7997,-5.7997,-5.7997,-5.7997,-5.7997,-5.7997,-5.7997,-5.7997,-5.7997,-5.7997,-5.7997,-5.7373,-5.7005,-6.6595,-6.7192,-6.6782,-6.6551,-6.6551,-6.6551,-6.6551,-6.6551,-6.6551,-6.632,-6.5936,-6.5936,-6.6167,-6.6551,-6.6551,-6.7205,-6.8475,-6.8513,-6.8231,-6.8206,-6.8491,-6.797,-6.7617,-6.743,-6.765,-6.7714,-6.7714,-6.7794,-6.7956,-6.8123,-6.8333,-6.8728,-6.8497,-6.8169,-6.7738,-6.6679,-6.5593,-6.4703,-6.3796,-6.3429,-6.3282,-6.3062,-6.3135,-6.3135,-6.2989,-6.2695,-6.2732,-6.2365,-6.1667,-6.097,-6.0199,-5.9758,-5.9391,-5.9869,-6.0052,-5.9869,-5.9832,-6.0089,-6.0419,-6.0272,-5.9722,-5.9648,-5.9258,-5.8841,-5.829,-5.818,-5.8657,-5.8694,-5.8657,-5.8694,-5.9024,-5.9098,-5.8804,-5.8694,-5.8253,-5.7997,-5.7997,-5.7997,-5.7997,-5.7997,-5.8217,-5.8694,-5.8877,-5.9355,-5.9795,-6.0456,-6.0896,-6.119,-6.1263,-6.1117,-6.0786,-6.0346,-5.9881,-5.9331,-5.8817,-5.8364,-5.7997,-5.7997,-5.7997,-5.7997,-5.7997,-5.7997,-5.7997,-5.7997,-5.7997,-5.7997,-5.7997,-5.7997,-5.7997,-5.7997,-5.7997,-5.7997,-5.7997,-5.7997,-5.7629,-6.5936,-6.5897,-6.5782,-6.582,-6.5897,-6.5897,-6.5936,-6.5936,-6.5897,-6.5936,-6.5897,-6.5897,-6.5897,-6.5897,-6.5936,-6.6474,-6.7013,-6.7513,-6.7216,-6.7202,-6.7615,-6.7322,-6.7123,-6.699,-6.7136,-6.75,-6.7726,-6.806,-6.8405,-6.844,-6.866,-6.9231,-6.9251,-6.9064,-6.8466,-6.7645,-6.6566,-6.5518,-6.4751,-6.4347,-6.387,-6.3392,-6.3539,-6.3576,-6.3466,-6.3356,-6.3539,-6.3392,-6.2548,-6.1887,-6.1153,-6.0603,-6.0456,-6.0639,-6.0713,-6.0676,-6.0566,-6.1006,-6.1337,-6.0823,-6.0493,-6.0162,-5.9625,-5.9134,-5.8621,-5.8767,-5.9184,-5.9478,-5.9478,-5.9478,-5.9832,-5.9869,-5.9515,-5.9038,-5.851,-5.8033,-5.8033,-5.7997,-5.7997,-5.8033,-5.8547,-5.9038,-5.9478,-5.9979,-6.0713,-6.141,-6.1887,-6.2254,-6.2401,-6.2144,-6.1814,-6.1263,-6.0713,-6.0126,-5.9294,-5.8877,-5.84,-5.7997,-5.7997,-5.7997,-5.7997,-5.7997,-5.7997,-5.7997,-5.7997,-5.7997,-5.7997,-5.7997,-5.7997,-5.7997,-5.7997,-5.7997,-5.7997,-5.7997,-5.7997,-6.5897,-6.582,-6.5166,-6.5243,-6.5782,-6.5859,-6.5897,-6.5897,-6.5859,-6.5897,-6.5897,-6.5897,-6.5897,-6.5897,-6.5897,-6.6282,-6.6821,-6.6962,-6.6949,-6.6957,-6.6898,-6.6725,-6.6666,-6.6669,-6.6355,-6.6931,-6.779,-6.8379,-6.8818,-6.875,-6.9021,-6.9865,-6.9472,-6.9255,-6.8976,-6.8106,-6.707,-6.6146,-6.5521,-6.5081,-6.464,-6.4237,-6.398,-6.3844,-6.3624,-6.3649,-6.3759,-6.3906,-6.3356,-6.2805,-6.2291,-6.1594,-6.1337,-6.1484,-6.1667,-6.1484,-6.1374,-6.1741,-6.1814,-6.13,-6.097,-6.0566,-6.0126,-5.9869,-5.9612,-5.9722,-6.0199,-6.075,-6.0676,-6.0382,-6.0529,-6.0419,-6.0126,-5.9294,-5.8694,-5.8327,-5.8143,-5.807,-5.8033,-5.8327,-5.8804,-5.9221,-5.9588,-6.0346,-6.1337,-6.1887,-6.2254,-6.2585,-6.2658,-6.2695,-6.2732,-6.2144,-6.152,-6.0456,-5.9478,-5.9331,-5.8951,-5.8437,-5.8033,-5.8107,-5.8107,-5.7997,-5.7997,-5.7997,-5.7997,-5.7997,-5.7997,-5.7997,-5.7997,-5.7997,-5.7997,-5.7997,-5.7997,-5.7997,-5.7997]},{"header":{"parameterUnit":"m.s-1","parameterCategory":1,"la1":31.0,"la2":29.5877,"lo1":-88.7671,"lo2":-86.6584,"dy":0.0162,"dx":0.0185,"nx":115,"ny":88,"refTime":"2023-03-23T06:00:00:Z","depth":0,"parameterNumber":3,"parameterNumberName":"V-component_of_WINDS"},"data":[0.0,0.0,0.0,0.0,0.0,0.0,0.0,0.0,0.0,0.0,0.0,0.0,0.0,0.0,0.0,0.0,0.0,0.0,0.0,0.0,0.0,0.0,0.0,0.0,0.0,0.0,0.0,0.0,0.0,0.0,0.0,0.0,0.0,0.0,0.0,0.0,0.0,0.0,0.0,0.0,0.0,0.0,0.0,0.0,0.0,0.0,0.0,0.0,0.0,0.0,0.0,0.0,0.0,0.0,0.0,0.0,0.0,0.0,0.0,0.0,0.0,0.0,0.0,0.0,0.0,0.0,0.0,0.0,0.0,0.0,0.0,0.0,0.0,0.0,0.0,0.0,0.0,0.0,0.0,0.0,0.0,0.0,0.0,0.0,0.0,0.0,0.0,0.0,0.0,0.0,0.0,0.0,0.0,0.0,0.0,0.0,0.0,0.0,0.0,0.0,0.0,0.0,0.0,0.0,0.0,0.0,0.0,0.0,0.0,0.0,0.0,0.0,0.0,0.0,0.0,0.0,0.0,0.0,0.0,0.0,0.0,0.0,0.0,0.0,0.0,0.0,0.0,0.0,0.0,0.0,0.0,0.0,0.0,0.0,0.0,0.0,0.0,0.0,0.0,0.0,0.0,0.0,0.0,0.0,0.0,0.0,0.0,0.0,0.0,0.0,0.0,0.0,0.0,0.0,0.0,0.0,0.0,0.0,0.0,0.0,0.0,0.0,0.0,0.0,0.0,0.0,0.0,0.0,0.0,0.0,0.0,0.0,0.0,0.0,0.0,0.0,0.0,0.0,0.0,0.0,0.0,0.0,0.0,0.0,0.0,0.0,0.0,0.0,0.0,0.0,0.0,0.0,0.0,0.0,0.0,0.0,0.0,0.0,0.0,0.0,0.0,0.0,0.0,0.0,0.0,0.0,0.0,0.0,0.0,0.0,0.0,0.0,0.0,0.0,0.0,0.0,0.0,0.0,0.0,0.0,0.0,0.0,0.0,0.0,0.0,0.0,0.0,0.0,0.0,0.0,0.0,0.0,0.0,0.0,0.0,0.0,0.0,0.0,0.0,0.0,0.0,0.0,0.0,0.0,0.0,0.0,0.0,0.0,0.0,0.0,0.0,0.0,0.0,0.0,0.0,0.0,0.0,0.0,0.0,0.0,0.0,0.0,0.0,0.0,0.0,0.0,0.0,0.0,0.0,0.0,0.0,0.0,0.0,0.0,0.0,0.0,0.0,0.0,0.0,0.0,0.0,0.0,0.0,0.0,0.0,0.0,0.0,0.0,0.0,0.0,0.0,0.0,0.0,0.0,0.0,0.0,0.0,0.0,0.0,0.0,0.0,0.0,0.0,0.0,0.0,0.0,0.0,0.0,0.0,0.0,0.0,0.0,0.0,0.0,0.0,0.0,0.0,0.0,0.0,0.0,0.0,0.0,0.0,0.0,0.0,0.0,0.0,0.0,0.0,0.0,0.0,0.0,0.0,0.0,0.0,0.0,0.0,0.0,0.0,0.0,0.0,0.0,0.0,0.0,0.0,0.0,0.0,0.0,0.0,0.0,0.0,0.0,0.0,0.0,0.0,0.0,0.0,0.0,0.0,0.0,0.0,0.0,0.0,0.0,0.0,0.0,0.0,0.0,0.0,0.0,0.0,0.0,0.0,0.0,0.0,0.0,0.0,0.0,0.0,0.0,0.0,0.0,0.0,0.0,0.0,0.0,0.0,0.0,0.0,0.0,0.0,0.0,0.0,0.0,0.0,0.0,0.0,0.0,0.0,0.0,0.0,0.0,0.0,0.0,0.0,0.0,0.0,0.0,0.0,0.0,0.0,0.0,0.0,0.0,0.0,0.0,0.0,0.0,0.0,0.0,0.0,0.0,0.0,0.0,0.0,0.0,0.0,0.0,0.0,0.0,0.0,0.0,0.0,0.0,0.0,0.0,0.0,0.0,0.0,0.0,0.0,0.0,0.0,0.0,0.0,0.0,0.0,0.0,0.0,0.0,0.0,0.0,0.0,0.0,0.0,0.0,0.0,0.0,0.0,0.0,0.0,0.0,0.0,0.0,0.0,0.0,0.0,0.0,0.0,0.0,0.0,0.0,0.0,0.0,0.0,0.0,0.0,0.0,0.0,0.0,0.0,0.0,0.0,0.0,0.0,0.0,0.0,0.0,0.0,0.0,0.0,0.0,0.0,0.0,0.0,0.0,0.0,0.0,0.0,0.0,0.0,0.0,0.0,0.0,0.0,0.0,0.0,0.0,0.0,0.0,0.0,0.0,0.0,0.0,0.0,0.0,0.0,0.0,0.0,0.0,0.0,0.0,0.0,0.0,0.0,0.0,0.0,0.0,0.0,0.0,0.0,0.0,0.0,0.0,0.0,0.0,0.0,0.0,0.0,0.0,0.0,0.0,0.0,0.0,0.0,0.0,0.0,0.0,0.0,0.0,0.0,0.0,0.0,0.0,0.0,0.0,0.0,0.0,0.0,0.0,0.0,0.0,0.0,0.0,0.0,0.0,0.0,0.0,0.0,0.0,0.0,0.0,0.0,0.0,0.0,0.0,0.0,0.0,0.0,0.0,0.0,0.0,0.0,0.0,0.0,0.0,0.0,0.0,0.0,0.0,0.0,0.0,0.0,0.0,0.0,0.0,0.0,0.0,0.0,0.0,0.0,0.0,0.0,0.0,0.0,0.0,0.0,0.0,0.0,0.0,0.0,0.0,0.0,0.0,0.0,0.0,0.0,0.0,0.0,0.0,0.0,0.0,0.0,0.0,0.0,0.0,0.0,0.0,0.0,0.0,0.0,0.0,0.0,0.0,0.0,0.0,0.0,0.0,0.0,0.0,0.0,0.0,0.0,0.0,0.0,0.0,0.0,0.0,0.0,0.0,0.0,0.0,0.0,0.0,0.0,0.0,0.0,0.0,0.0,0.0,0.0,0.0,0.0,0.0,0.0,0.0,0.0,0.0,0.0,0.0,0.0,0.0,0.0,0.0,0.0,0.0,0.0,0.0,0.0,0.0,0.0,0.0,0.0,0.0,0.0,0.0,0.0,0.0,0.0,0.0,0.0,0.0,0.0,0.0,0.0,0.0,0.0,0.0,0.0,0.0,0.0,0.0,0.0,0.0,0.0,0.0,0.0,0.0,0.0,0.0,0.0,0.0,0.0,0.0,0.0,0.0,0.0,0.0,0.0,0.0,0.0,0.0,0.0,0.0,0.0,0.0,0.0,0.0,0.0,0.0,0.0,0.0,0.0,0.0,0.0,0.0,0.0,0.0,0.0,0.0,0.0,0.0,0.0,0.0,0.0,0.0,0.0,0.0,0.0,0.0,0.0,0.0,0.0,0.0,0.0,0.0,0.0,0.0,0.0,0.0,0.0,0.0,0.0,0.0,0.0,0.0,0.0,0.0,0.0,0.0,0.0,0.0,0.0,0.0,0.0,0.0,0.0,0.0,0.0,0.0,0.0,0.0,0.0,0.0,0.0,0.0,0.0,0.0,0.0,0.0,0.0,0.0,0.0,0.0,0.0,0.0,0.0,0.0,0.0,0.0,0.0,0.0,0.0,0.0,0.0,0.0,0.0,0.0,0.0,0.0,0.0,0.0,0.0,0.0,0.0,0.0,0.0,0.0,0.0,0.0,0.0,0.0,0.0,0.0,0.0,0.0,0.0,0.0,0.0,0.0,0.0,0.0,0.0,0.0,0.0,0.0,0.0,0.0,0.0,0.0,0.0,0.0,0.0,0.0,0.0,0.0,0.0,0.0,0.0,0.0,0.0,0.0,0.0,0.0,0.0,0.0,0.0,0.0,0.0,0.0,0.0,0.0,0.0,0.0,0.0,0.0,0.0,0.0,0.0,0.0,0.0,0.0,0.0,0.0,0.0,0.0,0.0,0.0,0.0,0.0,0.0,0.0,0.0,0.0,0.0,0.0,0.0,0.0,0.0,0.0,0.0,0.0,0.0,0.0,0.0,0.0,0.0,0.0,0.0,0.0,0.0,0.0,0.0,0.0,0.0,0.0,0.0,0.0,0.0,0.0,0.0,0.0,0.0,0.0,0.0,0.0,0.0,0.0,0.0,0.0,0.0,0.0,0.0,0.0,0.0,0.0,0.0,0.0,0.0,0.0,0.0,0.0,0.0,0.0,0.0,0.0,0.0,0.0,0.0,0.0,0.0,0.0,0.0,0.0,0.0,0.0,0.0,0.0,0.0,0.0,0.0,0.0,0.0,0.0,0.0,0.0,0.0,0.0,0.0,0.0,0.0,0.0,0.0,0.0,0.0,0.0,0.8649,0.0,0.0,0.0,0.0,0.0,0.0,0.0,0.0,0.0,0.0,0.0,0.0,0.0,0.0,0.0,0.0,0.0,0.0,0.0,0.0,0.0,0.0,0.0,0.0,0.0,0.0,0.0,0.0,0.0,0.0,0.0,0.0,0.0,0.0,0.0,0.0,0.0,0.0,0.0,0.0,0.0,0.0,0.0,0.0,0.0,0.0,0.0,0.0,0.0,0.0,0.0,0.0,0.0,0.0,0.0,0.0,0.0,0.0,0.0,0.0,0.0,0.0,0.0,0.0,0.0,0.0,0.0,0.0,0.0,0.0,0.0,0.0,0.0,0.0,0.0,0.0,0.0,0.0,0.0,0.0,0.0,0.0,0.0,0.0,0.0,0.0,0.0,0.0,0.0,0.0,0.0,0.0,0.0,0.0,0.0,0.0,0.0,0.0,0.0,0.0,0.0,0.0,0.0,0.0,0.0,0.0,0.0,0.0,0.0,0.0,1.0812,1.0664,1.0223,0.9731,0.9112,0.0,0.0,0.0,0.0,0.0,0.0,0.0,0.0,0.0,0.0,0.0,0.0,0.0,0.0,0.0,0.0,0.0,0.0,0.0,0.0,0.0,0.0,0.0,0.0,0.0,0.0,0.0,0.0,0.0,0.0,0.0,0.0,0.0,0.0,0.0,0.0,0.0,0.0,0.0,0.0,0.0,0.0,0.0,0.0,0.0,0.0,0.0,0.0,0.0,0.0,0.0,0.0,0.0,0.0,0.0,0.0,0.0,0.0,0.0,0.0,0.0,0.0,0.0,0.0,0.0,0.0,0.0,0.0,0.0,0.0,0.0,0.0,0.0,0.0,0.0,0.0,0.0,0.0,0.0,0.0,0.0,0.0,0.0,0.0,0.0,0.0,0.0,0.0,0.0,0.0,0.0,0.0,0.0,0.0,0.0,0.0,0.0,0.0,0.0,0.0,0.0,0.0,0.0,0.0,0.0,0.0,0.0,0.0,0.0,0.0,0.0,0.0,1.0365,0.983,0.9444,0.0,0.0,0.0,0.0,0.0,0.0,0.0,0.0,0.0,0.0,0.0,0.0,0.0,0.0,0.0,0.0,0.0,0.0,0.0,0.0,0.0,0.0,0.0,0.0,0.0,0.0,0.0,0.0,0.0,0.0,0.0,0.0,0.0,0.0,0.0,0.0,0.0,0.0,0.0,0.0,0.0,0.0,0.0,0.0,0.0,0.0,0.0,0.0,0.0,0.0,0.0,0.0,0.0,0.0,0.0,0.0,0.0,0.0,0.0,0.0,0.0,0.0,0.0,0.0,0.0,0.0,0.0,0.0,0.0,0.0,0.0,0.0,0.0,0.0,0.0,0.0,0.0,0.0,0.0,0.0,0.0,0.0,0.0,0.0,0.0,0.0,0.0,0.0,0.0,0.0,0.0,0.0,0.0,0.0,0.0,0.0,0.0,0.0,0.0,0.0,0.0,0.0,0.0,0.0,0.0,0.0,0.0,0.0,0.0,0.0,1.1145,1.1138,1.0812,0.0,0.9962,0.0,0.0,0.0,0.0,0.0,0.0,0.0,0.0,0.0,0.0,0.0,0.0,0.0,0.0,0.0,0.0,0.0,0.0,0.0,0.0,0.0,0.0,0.0,0.0,0.0,0.0,0.0,0.0,0.0,0.0,0.0,0.0,0.0,0.0,0.0,0.0,0.0,0.0,0.0,0.0,0.0,0.0,0.0,0.0,0.0,0.0,0.0,0.0,0.0,0.0,0.0,0.0,0.0,0.0,0.0,0.0,0.0,0.0,0.0,0.0,0.0,0.0,0.0,0.0,0.0,0.0,0.0,0.0,0.0,0.0,0.0,0.0,0.0,0.0,0.0,0.0,0.0,0.0,0.0,0.0,0.0,0.0,0.0,0.0,0.0,0.0,0.0,0.0,0.0,0.0,0.0,0.0,0.0,0.0,0.0,0.0,0.0,0.0,0.0,0.0,0.0,0.0,0.0,0.0,0.0,0.0,0.0,0.0,0.0,0.0,1.1036,1.1036,1.0744,1.0337,0.0,0.0,0.0,0.0,0.0,0.0,0.0,0.0,0.0,0.0,0.0,0.0,0.0,0.0,0.0,0.0,0.0,0.0,0.0,0.0,0.0,0.0,0.0,0.0,0.0,0.0,0.0,0.0,0.0,0.0,0.0,0.0,0.0,0.0,0.0,0.0,0.0,0.0,0.0,0.0,0.0,0.0,0.0,0.0,0.0,0.0,0.0,0.0,0.0,0.0,0.0,0.0,0.0,0.0,0.0,0.0,0.0,0.0,0.0,0.0,0.0,0.0,0.0,0.0,0.0,0.0,0.0,0.0,0.0,0.0,0.0,0.0,0.0,0.0,0.0,0.0,0.0,0.0,0.0,0.0,0.0,0.0,0.0,0.0,0.0,0.0,0.0,0.0,0.0,0.0,0.0,0.0,0.0,0.0,0.0,0.0,0.0,0.0,0.0,0.0,0.0,0.0,0.0,0.0,0.0,0.0,0.0,0.0,0.0,0.0,1.0927,1.088,1.0867,1.0575,1.0148,0.9686,0.0,0.0,0.0,0.0,0.0,0.0,0.0,0.0,0.0,0.0,0.0,0.0,0.0,0.0,0.0,0.0,0.0,0.0,0.0,0.0,0.0,0.0,0.0,0.0,0.0,0.0,0.0,0.0,0.0,0.0,0.0,0.0,0.0,0.0,0.0,0.0,0.0,0.0,0.0,0.0,0.0,0.0,0.0,0.0,0.0,0.0,0.0,0.0,0.0,0.0,0.0,0.0,0.0,0.0,0.0,0.0,0.0,0.0,0.0,0.0,0.0,0.0,0.0,0.0,0.0,0.0,0.0,0.0,0.0,0.0,0.0,0.0,0.0,0.0,0.0,0.0,0.0,0.0,0.0,0.0,0.0,0.0,0.0,0.0,0.0,0.0,0.0,0.0,0.0,0.0,0.0,0.0,0.0,0.0,0.0,0.0,0.0,0.0,0.0,0.0,0.0,0.0,0.0,0.0,0.0,0.0,0.0,0.0,1.1328,1.1084,1.088,1.086,1.0314,0.9923,0.0,0.0,0.0,0.0,0.0,0.0,0.0,0.0,0.0,0.0,0.0,0.0,0.0,0.0,0.0,0.0,0.0,0.0,0.0,0.0,0.0,0.0,0.0,0.0,0.0,0.0,0.0,0.0,0.0,0.0,0.0,0.0,0.0,0.0,0.0,0.0,0.0,0.0,0.0,0.0,0.0,0.0,0.0,0.0,0.0,0.0,0.0,0.0,0.0,0.0,0.0,0.0,0.0,0.0,0.0,0.0,0.0,0.0,0.0,0.0,0.0,0.0,0.0,0.0,0.0,0.0,0.0,0.0,0.0,0.0,0.0,0.0,0.0,0.0,0.0,0.0,0.0,0.0,0.0,0.0,0.0,0.0,0.0,0.0,0.0,0.0,0.0,0.0,0.0,0.0,0.0,0.0,0.0,0.0,0.0,0.0,0.0,0.0,0.0,0.0,0.0,0.0,0.0,0.0,0.0,0.0,0.0,0.0,0.0,1.0799,1.0711,1.0609,1.0514,1.0152,0.9876,0.0,0.0,0.0,0.0,0.0,0.0,0.0,0.0,0.0,0.0,0.0,0.0,0.0,0.0,0.0,0.0,0.0,0.0,0.0,0.0,0.0,0.0,0.0,0.0,0.0,0.0,0.0,0.0,0.0,0.0,0.0,0.0,0.0,0.0,0.0,0.0,0.0,0.0,0.0,0.0,0.0,0.0,0.0,0.0,0.0,0.0,0.0,0.0,0.0,0.0,0.0,0.0,0.0,0.0,0.0,0.0,0.0,0.0,0.0,0.0,0.0,0.0,0.0,0.0,0.0,0.0,0.0,0.0,0.0,0.0,0.0,0.0,0.0,0.0,0.0,0.0,0.0,0.0,0.0,0.0,0.0,0.0,0.0,0.0,0.0,0.0,0.0,0.0,0.0,0.0,0.0,0.0,0.0,0.0,0.0,0.0,0.0,0.0,0.0,0.0,0.0,0.0,0.0,0.0,0.0,0.0,0.0,0.0,0.0,1.0612,0.0,1.0426,1.0276,1.0039,0.9788,0.0,0.0,0.0,0.0,0.0,0.0,0.0,0.0,0.0,0.0,0.0,0.0,0.0,0.0,0.0,0.0,0.0,0.0,0.0,0.0,0.0,0.0,0.0,0.0,0.0,0.0,0.0,0.0,0.0,0.0,0.0,0.0,0.0,0.0,0.0,0.0,0.0,0.0,0.0,0.0,0.0,0.0,0.0,0.0,0.0,0.0,0.0,0.0,0.0,0.0,0.0,0.0,0.0,0.0,0.0,0.0,0.0,0.0,0.0,0.0,0.0,0.0,0.0,0.0,0.0,0.0,0.0,0.0,0.0,0.0,0.0,0.0,0.0,0.0,0.0,0.0,0.0,0.0,0.0,0.0,0.0,0.0,0.0,0.0,0.0,0.0,0.0,0.0,0.0,0.0,0.0,0.0,0.0,0.0,0.0,0.0,0.0,0.0,0.0,0.0,0.0,0.0,0.0,0.0,0.0,0.0,0.0,0.0,1.0941,1.0777,1.0663,1.0541,1.0276,0.9917,0.9551,0.0,0.0,0.0,0.0,0.0,0.0,0.0,0.0,0.0,0.0,0.0,0.0,0.0,0.0,0.0,0.0,0.0,0.0,0.0,0.0,0.0,0.0,0.0,0.0,0.0,0.0,0.0,0.0,0.0,0.0,0.0,0.0,0.0,0.0,0.0,0.0,0.0,0.0,0.0,0.0,0.0,0.0,0.0,0.0,0.0,0.0,0.0,0.0,0.0,0.0,0.0,0.0,0.0,0.0,0.0,0.0,0.0,0.0,0.0,0.0,0.0,0.0,0.0,0.0,0.0,0.0,0.0,0.0,0.0,0.0,0.0,0.0,0.0,0.0,0.0,0.0,0.0,0.0,0.0,0.0,0.0,0.0,0.0,0.0,0.0,0.0,0.0,0.0,0.0,0.0,0.0,0.0,0.0,0.0,0.0,0.0,0.0,0.0,0.0,0.0,0.0,0.0,0.0,0.0,0.0,0.0,0.0,0.0,0.0,1.1202,1.1417,1.134,1.0784,1.044,1.0158,0.0,0.0,0.0,0.0,0.0,0.0,0.0,0.0,0.0,0.0,0.0,0.0,0.0,0.0,0.0,0.0,0.0,0.0,0.0,0.0,0.0,0.0,0.0,0.0,0.0,0.0,0.0,0.0,0.0,0.0,0.0,0.0,0.0,0.0,0.0,0.0,0.0,0.0,0.0,0.0,0.0,0.0,0.0,0.0,0.0,0.0,0.0,0.0,0.0,0.0,0.0,0.0,0.0,0.0,0.0,0.0,0.0,0.0,0.0,0.0,0.0,0.0,0.0,0.0,0.0,0.0,0.0,0.0,0.0,0.0,0.0,0.0,0.0,0.0,0.0,0.0,0.0,0.0,0.0,0.0,0.0,0.0,0.0,0.0,0.0,0.0,0.0,0.0,0.0,0.0,0.0,0.0,0.0,0.0,0.0,0.0,0.0,0.0,0.0,0.0,0.0,0.0,0.0,0.0,0.0,0.0,0.0,0.0,0.0,1.3707,1.2488,1.1664,1.1286,1.0789,1.0469,1.0243,0.0,0.0,0.0,0.0,0.0,0.0,0.0,0.0,0.0,0.0,0.0,0.0,0.0,0.0,0.0,0.0,0.0,0.0,0.0,0.0,0.0,0.0,0.0,0.0,0.0,0.0,0.0,0.0,0.0,0.0,0.0,0.0,0.0,0.0,0.0,0.0,0.0,0.0,0.0,0.0,0.0,0.0,0.0,0.0,0.0,0.0,0.0,0.0,0.0,0.0,0.0,0.0,0.0,0.0,0.0,0.0,0.0,0.0,0.0,0.0,0.0,0.0,0.0,0.0,0.0,0.0,0.0,0.0,0.0,0.0,0.0,0.0,0.0,0.0,0.0,0.0,0.0,0.0,0.0,0.0,0.0,0.0,0.0,0.0,0.0,0.0,0.0,0.0,0.0,0.0,0.0,0.0,0.0,0.0,0.0,0.0,0.0,0.0,0.0,0.0,0.0,0.0,0.0,0.0,0.0,0.0,0.0,0.0,1.784,1.3933,1.2067,1.2199,1.1395,1.0876,0.0,0.0,0.0,0.0,0.0,0.0,0.0,0.0,0.0,0.0,0.0,0.0,0.0,0.0,0.0,0.0,0.0,0.0,0.0,0.0,0.0,0.0,0.0,0.0,0.0,0.0,0.0,0.0,0.0,0.0,0.0,0.0,0.0,0.0,0.0,0.0,0.0,0.0,0.0,0.0,0.0,0.0,0.0,0.0,0.0,0.0,0.0,0.0,0.0,0.0,0.0,0.0,0.0,0.0,0.0,0.0,0.0,0.0,0.0,0.0,0.0,0.0,0.0,0.0,0.0,0.0,0.0,0.0,0.0,0.0,0.0,0.0,0.0,0.0,0.0,0.0,0.0,0.0,0.0,0.0,0.0,0.0,0.0,0.0,0.0,0.0,0.0,0.0,0.0,0.0,0.0,0.0,0.0,0.0,0.0,0.0,0.0,0.0,0.0,0.0,0.0,0.0,0.0,0.0,0.0,0.0,0.0,0.0,0.0,1.81,1.8047,1.7758,1.7126,1.6068,1.493,0.0,0.0,0.0,0.0,0.0,0.0,0.0,0.0,0.0,0.0,0.0,0.0,0.0,0.0,0.0,0.0,0.0,0.0,0.0,0.0,0.0,0.0,0.0,0.0,0.0,0.0,0.0,0.0,0.0,0.0,0.0,0.0,0.0,0.0,0.0,0.0,0.0,0.0,0.0,0.0,0.0,0.0,0.0,0.0,0.0,0.0,0.0,0.0,0.0,0.0,0.0,0.0,0.0,0.0,0.0,0.0,0.0,0.0,0.0,0.0,0.0,0.0,0.0,0.0,0.0,0.0,0.0,0.0,0.0,0.0,0.0,0.0,0.0,0.0,0.0,0.0,0.0,0.0,0.0,0.0,0.0,0.0,0.0,0.0,0.0,0.0,0.0,0.0,0.0,0.0,0.0,0.0,0.0,0.0,0.0,0.0,0.0,0.0,0.0,0.0,0.0,0.0,0.0,0.0,0.0,0.0,0.0,0.0,2.0481,2.0341,2.2383,2.3162,2.2536,1.9704,1.7396,0.0,0.0,0.0,0.0,0.0,0.0,0.0,0.0,0.0,0.0,0.0,0.0,0.0,0.0,0.0,0.0,0.0,0.0,0.0,0.0,0.0,0.0,0.0,0.0,0.0,0.0,0.0,0.0,0.0,0.0,0.0,0.0,0.0,0.0,0.0,0.0,0.0,0.0,0.0,0.0,0.0,0.0,0.0,0.0,0.0,0.0,0.0,0.0,0.0,0.0,0.0,0.0,0.0,0.0,0.0,0.0,0.0,0.0,0.0,0.0,0.0,0.0,0.0,0.0,0.0,0.0,0.0,0.0,0.0,0.0,0.0,0.0,0.0,0.0,0.0,0.0,0.0,0.0,0.0,0.0,0.0,0.0,0.0,0.0,0.0,0.0,0.0,0.0,0.0,0.0,0.0,0.0,0.0,0.0,0.0,0.0,0.0,0.0,0.0,0.0,0.0,0.0,0.0,0.0,0.0,0.0,0.0,0.0,2.3556,2.3484,2.6255,2.7629,2.7293,2.249,1.8977,0.0,0.0,0.0,0.0,0.0,0.0,0.0,0.0,0.0,0.0,0.0,0.0,0.0,0.0,0.0,0.0,0.0,0.0,0.0,0.0,0.0,0.0,0.0,0.0,0.0,0.0,0.0,0.0,0.0,0.0,0.0,0.0,0.0,0.0,0.0,0.0,0.0,0.0,0.0,0.0,0.0,0.0,0.0,0.0,0.0,0.0,0.0,0.0,0.0,0.0,0.0,0.0,0.0,0.0,0.0,0.0,0.0,0.0,0.0,0.0,0.0,0.0,0.0,0.0,0.0,0.0,0.0,0.0,0.0,0.0,0.0,0.0,0.0,0.0,0.0,0.0,0.0,0.0,0.0,0.0,0.0,0.0,0.0,0.0,0.0,0.0,0.0,0.0,0.0,0.0,0.0,0.0,0.0,0.0,0.0,0.0,0.0,0.0,0.0,0.0,0.0,0.0,0.0,0.0,0.0,0.0,0.0,0.0,2.3648,2.435,2.6759,2.8136,2.831,2.4494,2.1581,0.0,0.0,0.0,0.0,0.0,0.0,0.0,0.0,0.0,0.0,0.0,0.0,0.0,0.0,0.0,0.0,0.0,0.0,0.0,0.0,0.0,0.0,0.0,0.0,0.0,0.0,0.0,0.0,0.0,0.0,0.0,0.0,0.0,0.0,0.0,0.0,0.0,0.0,0.0,0.0,0.0,0.0,0.0,0.0,0.0,0.0,0.0,0.0,1.3582,0.0,0.0,0.0,0.0,0.0,0.0,0.0,0.0,0.0,0.0,0.0,0.0,0.0,0.0,0.0,0.0,0.0,0.0,0.0,0.0,0.0,0.0,0.0,0.0,0.0,0.0,0.0,0.0,0.0,0.0,0.0,0.0,0.0,0.0,0.0,0.0,0.0,0.0,0.0,0.0,0.0,0.0,0.0,0.0,0.0,0.0,0.0,0.0,0.0,0.0,0.0,0.0,0.0,0.0,0.0,0.0,0.0,0.0,0.0,2.403,2.505,2.7066,2.8301,2.8297,2.5596,2.325,0.0,0.0,0.0,0.0,0.0,0.0,0.0,0.0,0.0,0.0,0.0,0.0,0.0,0.0,0.0,0.0,0.0,0.0,0.0,0.0,0.0,0.0,0.0,0.0,0.0,0.0,0.0,0.0,0.0,0.0,0.0,0.0,0.0,0.0,0.0,0.0,0.0,0.0,0.0,0.0,0.0,0.0,0.0,0.0,0.0,0.0,0.0,0.0,0.0,0.0,0.0,0.0,0.0,0.0,0.0,0.0,0.0,0.0,0.0,0.0,0.0,0.0,0.0,0.0,0.0,0.0,0.0,0.0,0.0,0.0,0.0,0.0,0.0,0.0,0.0,0.0,0.0,0.0,0.0,0.0,0.0,0.0,0.0,0.0,0.0,0.0,0.0,0.0,0.0,0.0,0.0,0.0,0.0,0.0,0.0,0.0,0.0,0.0,0.0,0.0,0.0,0.0,0.0,0.0,0.0,0.0,0.0,2.2913,2.4356,2.5705,2.7308,2.8207,2.814,2.6215,2.4253,2.2473,0.0,0.0,0.0,0.0,0.0,0.0,0.0,0.0,0.0,0.0,0.0,0.0,0.0,0.0,0.0,0.0,0.0,0.0,0.0,0.0,0.0,0.0,0.0,0.0,0.0,0.0,0.0,0.0,0.0,0.0,0.0,0.0,0.0,0.0,0.0,0.0,0.0,0.0,1.6024,1.6394,0.0,0.0,0.0,0.0,0.0,0.0,0.0,0.0,1.4934,0.0,0.0,0.0,0.0,0.0,0.0,0.0,0.0,0.0,0.0,0.0,0.0,0.0,0.0,0.0,0.0,0.0,0.0,0.0,0.0,0.0,0.0,0.0,0.0,0.0,0.0,0.0,0.0,0.0,0.0,0.0,0.0,0.0,0.0,0.0,0.0,0.0,0.0,0.0,0.0,0.0,0.0,0.0,0.0,0.0,0.0,0.0,0.0,0.0,0.0,0.0,0.0,0.0,0.0,0.0,0.0,2.2606,2.31,2.4422,2.656,2.7615,2.81,2.7749,2.6547,2.4732,2.2467,0.0,0.0,0.0,0.0,0.0,0.0,0.0,0.0,0.0,0.0,0.0,0.0,0.0,0.0,0.0,0.0,0.0,0.0,0.0,0.0,0.0,0.0,0.0,0.0,0.0,0.0,0.0,0.0,0.0,0.0,0.0,0.0,0.0,0.0,0.0,0.0,0.0,0.0,0.0,1.7466,1.765,0.0,0.0,0.0,0.0,0.0,0.0,0.0,0.0,1.5282,0.0,0.0,0.0,0.0,0.0,0.0,0.0,0.0,0.0,0.0,0.0,0.0,0.0,0.0,0.0,0.0,0.0,0.0,0.0,0.0,0.0,0.0,0.0,0.0,0.0,0.0,0.0,0.0,0.0,0.0,0.0,0.0,0.0,0.0,0.0,0.0,0.0,0.0,0.0,0.0,0.0,0.0,0.0,0.0,0.0,0.0,0.0,0.0,0.0,0.0,0.0,0.0,0.0,0.0,0.0,2.2325,2.3153,2.4543,2.6533,2.7308,2.7549,2.7228,2.5678,2.3989,0.0,0.0,0.0,0.0,0.0,0.0,0.0,0.0,0.0,0.0,0.0,0.0,0.0,0.0,0.0,0.0,0.0,0.0,0.0,0.0,0.0,0.0,0.0,0.0,0.0,0.0,0.0,0.0,0.0,0.0,0.0,0.0,0.0,0.0,0.0,0.0,0.0,0.0,0.0,0.0,1.7884,1.791,1.767,0.0,0.0,0.0,0.0,0.0,0.0,1.6738,1.626,0.0,0.0,0.0,0.0,0.0,0.0,0.0,0.0,0.0,0.0,0.0,0.0,0.0,0.0,0.0,0.0,0.0,0.0,0.0,0.0,0.0,0.0,0.0,0.0,0.0,0.0,0.0,0.0,0.0,0.0,0.0,0.0,0.0,0.0,0.0,0.0,0.0,0.0,0.0,0.0,0.0,0.0,0.0,0.0,0.0,0.0,0.0,0.0,0.0,0.0,0.0,0.0,0.0,0.0,0.0,2.1871,2.3088,2.4436,2.6146,2.6787,2.6921,2.6533,2.4743,2.3153,0.0,0.0,0.0,0.0,0.0,0.0,0.0,0.0,0.0,0.0,0.0,0.0,0.0,0.0,0.0,0.0,0.0,0.0,0.0,0.0,0.0,0.0,0.0,0.0,0.0,0.0,0.0,0.0,0.0,0.0,0.0,0.0,0.0,0.0,0.0,0.0,0.0,0.0,0.0,0.0,0.0,1.8183,1.8089,1.8129,0.0,0.0,0.0,0.0,1.7595,1.7437,0.0,0.0,0.0,0.0,0.0,0.0,0.0,0.0,0.0,0.0,0.0,0.0,0.0,0.0,0.0,0.0,0.0,0.0,0.0,0.0,0.0,0.0,0.0,0.0,0.0,0.0,0.0,0.0,0.0,0.0,0.0,0.0,0.0,0.0,0.0,0.0,0.0,0.0,0.0,0.0,0.0,0.0,0.0,0.0,0.0,0.0,0.0,0.0,0.0,0.0,0.0,0.0,0.0,0.0,0.0,0.0,2.1628,2.2498,2.3834,2.5531,2.6186,2.6226,2.5665,2.4436,2.2966,0.0,0.0,0.0,0.0,0.0,0.0,0.0,0.0,0.0,0.0,0.0,0.0,0.0,0.0,0.0,0.0,0.0,0.0,0.0,0.0,0.0,0.0,0.0,0.0,0.0,0.0,0.0,0.0,0.0,0.0,0.0,0.0,0.0,0.0,0.0,0.0,0.0,0.0,0.0,0.0,0.0,1.8718,1.8477,1.8664,1.8531,0.0,0.0,1.7876,1.7622,1.8437,0.0,0.0,0.0,0.0,0.0,0.0,0.0,0.0,0.0,0.0,0.0,0.0,0.0,0.0,0.0,0.0,0.0,0.0,0.0,0.0,0.0,0.0,0.0,0.0,0.0,0.0,0.0,0.0,0.0,0.0,0.0,0.0,0.0,0.0,0.0,0.0,0.0,0.0,0.0,0.0,0.0,0.0,0.0,0.0,0.0,0.0,0.0,0.0,0.0,0.0,0.0,0.0,0.0,0.0,0.0,1.996,2.1119,2.2418,2.3741,2.497,2.6385,2.6391,2.4783,2.4163,2.2762,0.0,0.0,0.0,0.0,0.0,0.0,0.0,0.0,0.0,0.0,0.0,0.0,0.0,0.0,0.0,0.0,0.0,0.0,0.0,0.0,0.0,0.0,0.0,0.0,0.0,0.0,0.0,0.0,0.0,0.0,0.0,0.0,0.0,0.0,0.0,0.0,0.0,0.0,0.0,0.0,0.0,0.0,1.9141,1.9417,0.0,0.0,0.0,1.9979,1.9655,0.0,0.0,0.0,0.0,0.0,0.0,0.0,0.0,0.0,0.0,0.0,0.0,0.0,0.0,0.0,0.0,0.0,0.0,0.0,0.0,0.0,0.0,0.0,0.0,0.0,0.0,0.0,0.0,0.0,0.0,0.0,0.0,0.0,0.0,0.0,0.0,0.0,0.0,0.0,0.0,0.0,0.0,0.0,0.0,0.0,0.0,0.0,0.0,0.0,0.0,0.0,0.0,0.0,0.0,0.0,0.0,0.0,2.0575,2.2615,2.4037,2.4974,2.6939,2.7095,2.5257,2.471,0.0,0.0,0.0,0.0,0.0,0.0,0.0,0.0,0.0,0.0,0.0,0.0,0.0,0.0,0.0,0.0,0.0,0.0,0.0,0.0,0.0,0.0,0.0,0.0,0.0,0.0,0.0,1.547,0.0,0.0,0.0,0.0,0.0,0.0,0.0,0.0,0.0,0.0,0.0,0.0,0.0,0.0,1.9346,1.9687,1.9926,2.0341,0.0,0.0,2.1453,2.1159,2.1243,2.0986,0.0,0.0,0.0,0.0,0.0,0.0,0.0,0.0,0.0,0.0,0.0,0.0,0.0,0.0,0.0,0.0,0.0,0.0,0.0,0.0,0.0,0.0,0.0,0.0,0.0,0.0,0.0,0.0,0.0,0.0,0.0,0.0,0.0,0.0,0.0,0.0,0.0,0.0,0.0,0.0,0.0,0.0,0.0,0.0,0.0,0.0,0.0,0.0,0.0,0.0,0.0,0.0,0.0,0.0,0.0,2.0328,2.3076,2.493,2.5948,2.7852,2.853,2.7765,2.6789,2.5153,0.0,0.0,0.0,0.0,0.0,0.0,0.0,0.0,0.0,0.0,0.0,0.0,0.0,0.0,0.0,0.0,0.0,0.0,0.0,0.0,0.0,0.0,0.0,0.0,0.0,0.0,0.0,0.0,0.0,0.0,0.0,0.0,0.0,0.0,0.0,0.0,0.0,0.0,0.0,0.0,0.0,1.8961,2.0098,1.9938,2.0463,0.0,0.0,2.1296,2.1246,2.2575,2.2767,2.0229,0.0,0.0,0.0,0.0,0.0,0.0,0.0,0.0,0.0,0.0,0.0,0.0,0.0,0.0,0.0,0.0,0.0,0.0,0.0,0.0,0.0,0.0,0.0,0.0,0.0,0.0,0.0,0.0,0.0,0.0,0.0,0.0,0.0,0.0,0.0,0.0,0.0,0.0,0.0,0.0,0.0,0.0,0.0,0.0,0.0,0.0,0.0,0.0,0.0,0.0,0.0,0.0,0.0,1.9265,1.996,2.2779,2.462,2.5368,2.8098,2.8864,2.7391,2.7371,2.5821,0.0,0.0,0.0,0.0,0.0,0.0,0.0,0.0,0.0,0.0,0.0,0.0,0.0,0.0,0.0,0.0,0.0,0.0,0.0,0.0,0.0,0.0,0.0,0.0,0.0,0.0,0.0,0.0,1.5565,1.5584,1.615,0.0,0.0,0.0,0.0,0.0,0.0,0.0,0.0,0.0,0.0,2.0219,2.1147,2.1884,0.0,0.0,2.3805,2.3512,2.3029,2.3165,2.2946,2.1963,2.0626,0.0,0.0,0.0,0.0,0.0,0.0,0.0,0.0,0.0,0.0,0.0,0.0,0.0,0.0,0.0,0.0,0.0,0.0,0.0,0.0,0.0,0.0,0.0,0.0,0.0,0.0,0.0,0.0,0.0,0.0,0.0,0.0,0.0,0.0,0.0,0.0,0.0,0.0,0.0,0.0,0.0,0.0,0.0,0.0,0.0,0.0,0.0,0.0,0.0,0.0,0.0,0.0,1.9405,2.0659,2.3261,2.5124,2.6292,2.9112,2.9896,2.8365,2.8509,2.7035,0.0,0.0,0.0,0.0,0.0,0.0,0.0,0.0,0.0,0.0,0.0,0.0,0.0,0.0,0.0,0.0,0.0,0.0,0.0,0.0,0.0,0.0,0.0,0.0,0.0,0.0,0.0,0.0,1.5832,1.5886,1.6464,0.0,0.0,0.0,0.0,0.0,0.0,0.0,0.0,0.0,0.0,2.0581,2.1204,2.2614,2.3808,2.4542,2.4688,2.4664,2.4387,2.3877,2.3401,2.3095,0.0,0.0,0.0,0.0,0.0,0.0,0.0,0.0,0.0,0.0,0.0,0.0,0.0,0.0,0.0,0.0,0.0,0.0,0.0,0.0,0.0,0.0,0.0,0.0,0.0,0.0,0.0,0.0,0.0,0.0,2.0254,0.0,0.0,0.0,0.0,0.0,0.0,0.0,0.0,0.0,0.0,0.0,0.0,0.0,0.0,0.0,0.0,0.0,0.0,0.0,0.0,0.0,0.0,1.9864,2.2617,2.4698,2.691,2.9235,3.1214,3.1832,3.1345,3.0587,2.893,2.6393,0.0,0.0,0.0,0.0,0.0,0.0,0.0,0.0,0.0,0.0,0.0,0.0,0.0,0.0,0.0,0.0,0.0,0.0,0.0,0.0,0.0,0.0,0.0,0.0,0.0,0.0,1.6647,1.642,1.6284,0.0,0.0,0.0,0.0,0.0,0.0,0.0,0.0,0.0,0.0,1.8405,1.9677,1.9899,2.1401,2.3186,2.4713,2.4256,2.3985,2.4707,2.4805,2.4395,0.0,0.0,0.0,0.0,0.0,0.0,0.0,0.0,0.0,0.0,0.0,0.0,0.0,0.0,0.0,0.0,0.0,0.0,0.0,0.0,0.0,0.0,0.0,0.0,0.0,0.0,0.0,2.1851,2.144,0.0,0.0,0.0,0.0,0.0,0.0,0.0,0.0,0.0,0.0,0.0,2.5686,2.5632,0.0,0.0,0.0,0.0,0.0,0.0,0.0,0.0,0.0,0.0,0.0,0.0,2.0962,2.2436,2.5307,2.7417,2.8787,3.0439,3.125,3.1094,3.0254,2.8501,2.5732,0.0,0.0,0.0,0.0,0.0,0.0,0.0,0.0,0.0,0.0,0.0,0.0,0.0,0.0,0.0,0.0,0.0,0.0,0.0,0.0,0.0,0.0,0.0,0.0,0.0,1.7223,0.0,0.0,0.0,0.0,0.0,0.0,0.0,0.0,0.0,0.0,0.0,1.7373,1.7823,1.9326,2.0327,2.0215,2.2341,2.3972,0.0,0.0,0.0,0.0,0.0,0.0,0.0,0.0,0.0,0.0,0.0,0.0,0.0,0.0,2.0753,1.9449,1.9773,1.9873,1.875,0.0,0.0,0.0,0.0,0.0,0.0,0.0,0.0,0.0,0.0,0.0,0.0,0.0,0.0,0.0,0.0,2.2774,0.0,0.0,0.0,0.0,0.0,0.0,0.0,0.0,2.64,2.7409,2.806,2.8011,2.7764,0.0,2.687,2.5148,0.0,0.0,0.0,0.0,0.0,0.0,0.0,0.0,2.1869,2.3213,2.5922,2.7922,2.9238,3.0179,3.0644,3.0625,2.9567,2.7835,2.5446,2.3877,2.2456,0.0,0.0,0.0,0.0,0.0,0.0,0.0,0.0,0.0,0.0,0.0,0.0,0.0,0.0,0.0,0.0,0.0,0.0,0.0,0.0,0.0,0.0,0.0,1.8182,0.0,0.0,0.0,0.0,0.0,0.0,0.0,0.0,0.0,1.9803,1.8701,1.8082,1.8592,1.959,2.0166,1.9877,0.0,0.0,0.0,0.0,0.0,0.0,0.0,2.2814,2.3319,2.2828,2.2262,2.2012,2.1046,2.0343,2.0327,0.0,0.0,1.984,2.0619,2.0872,1.9143,1.967,2.0102,1.9228,1.8394,1.81,0.0,0.0,0.0,0.0,0.0,0.0,0.0,0.0,2.5709,2.5601,0.0,2.5591,0.0,0.0,0.0,0.0,0.0,2.629,0.0,0.0,3.0306,3.1067,2.9293,2.9905,2.9639,2.8559,2.8281,2.7431,2.5951,2.3816,0.0,0.0,0.0,0.0,0.0,0.0,2.2732,2.4968,2.6603,2.8498,3.0723,3.043,3.0176,3.0117,2.8594,2.7129,2.5791,2.4842,2.3673,2.23,2.1813,0.0,0.0,0.0,0.0,0.0,0.0,0.0,0.0,0.0,0.0,0.0,0.0,0.0,0.0,0.0,0.0,0.0,0.0,0.0,0.0,1.933,0.0,0.0,0.0,0.0,0.0,0.0,0.0,0.0,0.0,0.0,2.0504,1.9987,1.9446,1.9067,0.0,0.0,0.0,0.0,2.2065,2.195,2.274,2.3384,2.3615,2.2717,2.1946,2.1889,0.0,0.0,1.9617,1.8941,1.8542,1.8411,1.8784,1.9376,2.0753,2.1701,2.1895,2.049,1.9972,1.978,1.9797,1.8724,1.807,3.1791,0.0,0.0,0.0,0.0,2.8148,2.8734,2.9628,2.9236,2.8506,2.7556,2.7055,0.0,0.0,0.0,0.0,0.0,0.0,2.7962,2.8695,3.0423,3.1379,3.1767,3.2235,3.2002,3.1128,3.0679,2.9661,2.8102,2.7077,2.5343,2.2773,0.0,0.0,0.0,0.0,2.4404,2.5736,2.7844,2.9275,2.9941,3.0117,2.9902,2.9297,2.8809,2.7832,2.6269,2.5926,2.4967,2.3261,2.2706,0.0,0.0,0.0,0.0,0.0,0.0,0.0,0.0,0.0,0.0,0.0,0.0,0.0,0.0,0.0,0.0,0.0,0.0,0.0,2.0187,1.959,1.9368,0.0,0.0,0.0,0.0,0.0,0.0,0.0,0.0,0.0,2.1753,2.0423,1.9748,0.0,0.0,2.0039,2.0103,2.1105,2.16,2.1009,0.0,0.0,0.0,2.0557,2.036,2.0541,2.0638,2.0782,2.0822,1.9954,1.9251,1.9184,1.9316,1.937,1.9353,2.0776,2.1503,2.0774,2.0826,2.0614,1.9281,1.901,1.9017,3.6214,3.2995,3.0659,3.0355,3.1246,3.1169,3.1625,3.2507,3.1945,3.1228,3.0429,2.9747,2.8641,2.7202,2.6974,0.0,0.0,0.0,2.9327,3.0613,3.1279,3.2123,3.3027,3.3125,3.2832,3.2168,3.1719,3.0898,2.9687,2.8807,2.753,2.587,0.0,0.0,2.2773,2.4437,2.5621,2.6268,2.8295,2.9394,2.9626,2.9648,2.9355,2.8691,2.8516,2.7851,2.668,2.6309,2.5441,2.399,2.342,2.2767,0.0,0.0,0.0,0.0,0.0,0.0,0.0,0.0,0.0,0.0,0.0,1.7972,1.8079,0.0,0.0,0.0,1.9718,2.0312,2.1185,2.0335,0.0,0.0,0.0,0.0,0.0,0.0,0.0,2.1223,2.1733,2.2153,2.2254,2.1305,2.0674,2.0959,2.0621,2.0351,2.0261,0.0,2.0701,2.0687,2.0579,2.0344,1.9734,1.9266,1.8931,1.872,1.8969,1.9249,1.9446,1.8898,1.8491,1.844,1.844,1.8477,1.8582,1.959,2.0152,1.9621,1.9919,1.9857,1.861,1.8532,1.8535,3.9331,3.8396,3.428,3.3175,3.4158,3.3849,3.4165,3.4883,3.4076,3.3789,3.3846,3.3264,3.21,3.0488,2.9195,0.0,2.9702,3.0174,3.1073,3.2226,3.2617,3.2988,3.3277,3.2949,3.2519,3.2109,3.1719,3.1309,3.084,2.9355,2.8861,2.9241,2.7112,2.5411,2.441,2.574,2.648,2.6586,2.8045,2.9066,2.9492,2.9062,2.8613,2.8203,2.7793,2.7344,2.6855,2.6094,2.5226,2.4368,2.3894,2.3195,2.23,0.0,0.0,0.0,0.0,0.0,0.0,0.0,0.0,0.0,0.0,0.0,0.0,0.0,0.0,0.0,2.0531,0.0,2.2282,2.1364,0.0,0.0,0.0,2.1038,2.1769,2.1816,2.1878,2.2226,0.0,0.0,2.2135,2.2117,2.1611,2.0369,2.0423,2.0309,1.9665,1.9415,1.9587,2.0356,1.9702,1.9133,1.9026,1.8341,1.757,1.6914,1.6647,1.6823,1.6837,1.6827,1.6764,1.6841,1.6714,1.7036,1.8282,1.8212,1.7882,1.7633,1.8048,1.8369,1.83,1.7784,1.757,3.7234,3.5287,3.3924,3.4765,3.6952,3.6836,3.6938,3.7129,3.6953,3.6346,3.5394,3.4965,3.3824,3.2224,3.1884,3.1661,3.1554,3.198,3.2354,3.2656,3.2754,3.2851,3.291,3.2519,3.209,3.168,3.1562,3.1309,3.0898,3.0509,2.97,2.8577,2.7977,2.7031,2.5685,2.5951,2.6215,2.6374,2.763,2.8545,2.9043,2.8359,2.7754,2.7324,2.6914,2.6328,2.5566,2.5332,2.4824,2.3984,2.3835,2.3435,2.2701,2.2584,0.0,0.0,0.0,0.0,0.0,0.0,0.0,0.0,0.0,1.9702,1.9375,0.0,2.0395,0.0,2.072,2.1738,2.2708,2.2311,0.0,0.0,2.1944,2.1871,2.1762,2.2054,2.2124,2.186,2.1544,2.126,2.1048,2.0432,1.9615,1.8551,1.9493,2.0054,1.9427,1.8937,1.8592,1.8401,1.8185,1.7749,1.6956,1.6512,1.6286,1.6032,1.6219,1.638,1.638,1.6567,1.67,1.67,1.67,1.6769,1.6897,1.6787,1.6636,1.6483,1.797,1.9273,1.8622,1.8725,1.8636,3.5663,3.4401,3.4054,3.5165,3.7313,3.701,3.7368,3.8203,3.8008,3.7519,3.6816,3.6016,3.4922,3.3652,3.3437,3.3242,3.3008,3.2871,3.2891,3.3066,3.2871,3.2793,3.2773,3.2363,3.1934,3.1523,3.1328,3.1113,3.0898,3.0898,3.0413,2.9451,2.9069,2.8258,2.7068,2.6282,2.6009,2.6206,2.7264,2.8036,2.8559,2.7988,2.7637,2.7559,2.6621,2.5908,2.5499,2.4955,2.4384,2.3782,2.3744,2.3505,2.2923,2.2963,2.2944,0.0,0.0,0.0,0.0,0.0,0.0,0.0,0.0,0.0,0.0,0.0,2.1535,2.1316,2.1496,2.1911,2.2636,2.2329,2.218,2.2314,2.2333,2.2329,2.2328,2.2574,2.2378,2.1606,2.1383,2.0965,2.0212,1.9724,1.8986,1.79,1.8471,1.894,1.8653,1.8721,1.8644,1.7764,1.716,1.6669,1.5879,1.5832,1.5832,1.5845,1.5965,1.6072,1.6072,1.6206,1.6313,1.6313,1.6313,1.6273,1.6112,1.6086,1.6163,1.6753,1.7819,1.8424,1.7553,1.7739,1.756,3.4115,3.3759,3.3451,3.4204,3.5645,3.4958,3.6201,3.8555,3.8184,3.7949,3.7773,3.6543,3.5527,3.4687,3.4316,3.4101,3.3945,3.3164,3.2988,3.3301,3.2851,3.2637,3.2617,3.2207,3.1797,3.1426,3.1074,3.0898,3.0898,3.0898,3.0762,3.0509,2.9771,2.8952,2.7977,2.646,2.5844,2.6082,2.6916,2.7638,2.8174,2.7707,2.7591,2.7732,2.6306,2.5489,2.5525,2.4486,2.3798,2.3567,2.3559,2.3407,2.3009,2.3214,2.342,0.0,2.2981,0.0,0.0,0.0,0.0,0.0,0.0,0.0,0.0,2.24,2.2914,2.3224,2.2441,2.2064,2.2372,2.2068,2.2043,2.2441,2.2485,2.2662,2.3038,2.295,2.2448,2.1436,2.1033,2.0387,1.9405,1.9131,1.858,1.7591,1.7667,1.7744,1.7559,1.8257,1.8427,1.7591,1.6527,1.5927,1.5832,1.5832,1.5832,1.5832,1.5845,1.5832,1.5845,1.5845,1.5845,1.5845,1.5824,1.5845,1.5832,1.5832,1.6163,1.7091,1.7372,1.72,1.6522,1.6333,1.5974,3.0683,2.8711,2.8641,2.9464,3.0763,3.0639,3.3624,3.8574,3.8476,3.8066,3.7344,3.6426,3.5527,3.4726,3.4629,3.4199,3.3516,3.3027,3.2832,3.2891,3.2109,3.1758,3.1738,3.1328,3.1094,3.1016,3.0918,3.0898,3.0898,3.0898,3.0181,2.8804,2.8616,2.7753,2.626,0.0,0.0,0.0,2.6935,2.7476,2.7565,2.6822,2.6053,2.5246,2.4689,0.0,2.3157,2.2846,2.2713,2.2688,2.2991,0.0,0.0,0.0,0.0,0.0,0.0,0.0,0.0,0.0,0.0,0.0,2.2895,2.2575,2.1915,2.1717,2.2033,2.2922,2.2783,2.2692,2.2934,2.2876,2.2882,2.2969,2.2969,2.3013,2.3057,2.2208,2.1525,2.1328,1.9633,1.8319,1.8041,1.7171,1.6466,1.6339,1.7044,1.7217,1.6292,1.6466,1.648,1.615,1.5974,1.5832,1.5832,1.5832,1.5832,1.5832,1.5832,1.5832,1.5832,1.5832,1.5832,1.5832,1.5832,1.5832,1.5832,1.5832,1.5879,1.6116,1.6197,1.6386,1.7171,1.7311,1.7044,2.8938,0.0,2.7321,2.8183,0.0,2.9431,3.1727,3.5682,3.6664,3.7181,3.7266,3.6621,3.5859,3.5039,3.4805,3.4238,3.3398,3.2773,3.248,3.2461,3.1816,3.1523,3.1504,3.1309,3.1094,3.0898,3.0898,3.0898,3.0898,3.0898,3.0432,2.9585,2.9145,2.8501,2.766,2.7194,2.6881,2.6536,2.7098,2.753,2.778,2.6973,2.627,2.5729,0.0,0.0,0.0,0.0,0.0,0.0,0.0,0.0,0.0,0.0,0.0,2.3115,2.3233,2.3385,2.3403,2.3312,2.2945,2.2232,2.2168,2.2213,2.2322,2.2225,2.241,2.2993,2.2953,2.2969,2.3101,2.3101,2.2862,2.2315,2.2208,2.1987,2.1409,2.0809,2.0161,1.9542,1.8457,1.7512,1.6857,1.6244,1.5832,1.5832,1.6339,1.6574,1.6021,1.6339,1.6574,1.5913,1.5832,1.5832,1.5832,1.5832,1.5832,1.5832,1.5832,1.5832,1.5832,1.5832,1.5832,1.5832,1.5832,1.5832,1.5832,1.5832,1.5832,1.5832,1.5832,1.5974,1.6669,1.6763,1.6622,2.7976,2.7669,2.7388,2.8119,2.9374,2.8973,3.0022,3.2027,0.0,0.0,0.0,3.6116,3.5685,3.5156,3.4766,3.4121,3.3281,3.2519,3.2129,3.2031,3.1601,3.1406,3.1406,3.1406,3.123,3.0898,3.0587,3.045,3.045,3.0216,3.0119,3.0277,2.9544,2.9269,2.9316,2.8652,2.796,2.726,2.7314,2.7638,2.8101,2.7363,2.6846,2.6691,2.5285,2.4346,2.3948,2.323,2.2847,2.287,2.2964,2.2964,2.2953,2.3415,2.3507,2.3255,2.3076,2.3076,2.3242,2.2815,2.2094,2.106,2.115,2.1721,2.2794,2.3013,2.3101,2.3101,2.3101,2.3101,2.3101,2.2862,2.2403,2.1391,2.1123,2.0567,1.9679,1.9268,1.881,1.787,1.7498,1.6998,1.6008,1.5832,1.5832,1.5784,1.5933,1.5912,1.5994,1.6616,1.681,1.6008,1.5832,1.5832,1.5832,1.5832,1.5832,1.5832,1.5832,1.5832,1.5832,1.5832,1.5832,1.5832,1.5832,1.5832,1.5832,1.5832,1.5832,1.5832,1.5832,1.5832,1.5832,1.5832,1.5879,2.7963,2.7669,2.7388,2.7243,2.7188,2.6983,2.7841,2.961,3.1234,3.2674,3.3733,3.3262,3.3535,3.4258,3.4264,3.3691,3.2871,3.2383,3.1973,0.0,3.1172,3.0976,3.0976,3.0976,3.0957,3.082,2.9471,2.8724,2.8605,2.7391,2.7218,2.8097,2.77,2.7828,2.8408,2.8359,2.8247,2.8121,2.7638,2.7422,2.753,2.7074,2.638,2.544,2.5301,2.4621,2.329,2.3138,2.2884,2.2511,2.2813,2.2941,2.284,2.3204,2.3204,2.2707,2.2897,2.2522,2.1229,2.1361,2.0989,1.9935,2.0702,2.1791,2.2925,2.3101,2.3101,2.3101,2.3101,2.3101,2.3057,2.2164,2.1525,2.1212,2.0359,1.9679,1.9376,1.8519,1.7885,1.7638,1.6716,1.6103,1.5866,1.5832,1.5832,1.5811,1.6019,1.6192,1.6214,1.6088,1.6035,1.5832,1.5832,1.5832,1.5832,1.5832,1.5832,1.5832,1.5832,1.5832,1.5832,1.5832,1.5832,1.5832,1.5832,1.5832,1.5832,1.5832,1.5832,1.5832,1.5832,1.5832,1.5832,1.5832,1.5832,2.7883,2.7468,2.7321,2.7001,2.6573,2.644,2.6666,2.7107,2.7759,2.9482,3.1855,3.1357,3.1197,3.1474,3.2041,3.1349,2.9744,3.1184,3.1084,2.993,3.0547,3.0392,2.9589,2.953,2.9098,2.8247,2.7512,2.7073,2.7013,2.6332,2.6265,2.6798,2.7216,2.7466,2.7398,2.818,2.8516,2.8301,2.8014,2.7853,2.7853,2.7502,2.6833,2.5836,2.5643,2.5043,2.3859,2.3589,2.3377,2.3185,2.3102,2.303,2.2989,2.3144,2.313,2.2847,2.2984,2.2503,2.1119,1.9985,1.9405,1.9497,1.998,2.0539,2.1078,2.2359,2.3101,2.3101,2.3101,2.2818,2.2208,2.1614,2.0835,1.9668,1.905,1.8504,1.7844,1.7337,1.6899,1.665,1.615,1.5832,1.5832,1.5832,1.5832,1.5811,1.6086,1.6375,1.6473,1.6259,1.6005,1.5811,1.5832,1.5832,1.5832,1.5832,1.5832,1.5832,1.5832,1.5832,1.5832,1.5832,1.5832,1.5832,1.5832,1.5832,1.5832,1.5832,1.5832,1.5832,1.5832,1.5832,1.5832,1.5832,1.5832,2.7883,2.7551,2.7321,2.6894,2.6306,2.6293,2.5959,2.5398,2.5179,2.6671,2.9161,2.9147,2.8943,2.8959,2.9726,2.8985,2.7495,2.9349,2.9485,2.8146,2.9216,2.9098,2.7931,2.7871,2.7194,2.6045,2.568,2.5436,2.5436,2.5069,2.5021,2.5428,2.6601,2.7009,2.6691,2.7771,2.8369,2.8437,2.834,2.8301,2.8281,2.7969,2.7402,2.6582,2.6211,2.5518,2.4629,2.4258,2.4023,2.3926,2.3516,2.3237,2.3237,2.314,2.3101,2.3101,2.2915,2.2136,2.0616,1.8613,1.7759,1.858,1.8948,1.9222,1.9633,2.1454,2.2668,2.2711,2.2906,2.2624,2.1587,2.1077,2.0171,1.8371,1.7867,1.7432,1.653,1.6273,1.6152,1.5885,1.5832,1.5832,1.5784,1.5838,1.6005,1.6179,1.6326,1.6553,1.6727,1.6553,1.6259,1.6019,1.5872,1.5832,1.5832,1.5832,1.5832,1.5832,1.5832,1.5832,1.5832,1.5832,1.5832,1.5832,1.5832,1.5832,1.5832,1.5832,1.5832,1.5832,1.5832,1.5832,1.5832,1.5832,1.5832,2.8181,2.806,2.7564,2.6774,2.6117,2.6077,2.5665,2.513,2.481,2.4663,2.5163,2.5912,2.6905,2.7752,2.7912,2.74,2.6566,2.6918,2.6823,2.6261,2.6409,2.6349,2.6227,2.6227,2.6106,2.5741,2.4471,2.3822,2.376,2.2389,2.2137,2.3277,2.4739,2.6024,2.6857,2.6801,2.7382,2.8793,2.8476,2.8301,2.8301,2.8242,2.7832,2.6992,2.6914,2.6289,2.505,2.4961,2.4766,2.4375,2.3919,2.373,2.3647,2.3315,2.3101,2.3033,2.2314,2.0893,1.8641,1.7187,1.6388,1.6238,1.7311,1.838,1.933,2.0674,2.148,2.1561,2.2422,2.2448,2.1454,2.0497,1.9476,1.8204,1.7401,1.6666,1.6402,1.6273,1.6152,1.5811,1.5832,1.5832,1.5872,1.6072,1.6469,1.6884,1.6965,1.7058,1.7112,1.686,1.6567,1.6273,1.6019,1.5811,1.5784,1.5832,1.5832,1.5832,1.5832,1.5832,1.5832,1.5832,1.5832,1.5832,1.5832,1.5832,1.5832,1.5832,1.5832,1.5832,1.5832,1.5832,1.5832,1.5832,1.5832,2.802,2.7602,2.7362,2.676,2.5999,2.5772,2.5464,2.505,2.4583,2.4209,2.3959,2.4122,2.4474,2.5119,2.5535,2.5092,2.405,2.5545,2.5643,2.4778,2.5558,2.5497,2.4655,2.4594,2.4101,2.3124,2.2404,2.2153,2.2041,2.1411,2.1357,2.1984,2.3473,2.4401,2.4666,2.5369,2.6013,2.6416,2.6957,2.727,2.7342,2.7914,2.8008,2.748,2.7402,2.6487,2.4815,2.4429,2.3705,2.2565,2.2756,2.2973,2.2973,2.2646,2.2423,2.2333,2.0656,1.9162,1.8177,1.6988,1.6139,1.5811,1.6998,1.7712,1.7702,1.9346,2.0247,1.9901,2.1119,2.1616,2.056,1.9491,1.849,1.7697,1.7204,1.686,1.6567,1.6526,1.6353,1.5925,1.5832,1.5912,1.6086,1.6353,1.6687,1.7112,1.7206,1.7259,1.7393,1.7206,1.6911,1.6567,1.6286,1.6032,1.5872,1.5832,1.5832,1.5832,1.5832,1.5832,1.5832,1.5832,1.5832,1.5832,1.5832,1.5832,1.5832,1.5832,1.5832,1.5832,1.5832,1.5832,1.5832,1.5832,1.5832,2.7776,2.7375,2.7134,2.6599,2.5718,2.5491,2.5184,2.4796,2.4302,2.3928,2.3607,2.3155,2.2939,2.309,2.3535,2.3037,2.2247,2.3813,2.4039,2.3139,2.4163,2.4039,2.3014,2.2889,2.2278,2.1299,2.1159,2.1109,2.1109,2.1109,2.1109,2.1285,2.2341,2.2959,2.3169,2.4201,2.4714,2.4985,2.5589,2.6099,2.6549,2.7285,2.7694,2.7662,2.727,2.621,2.4509,2.3639,2.2652,2.1412,2.1764,2.2035,2.2018,2.1714,2.1462,2.1097,1.9446,1.8203,1.7862,1.696,1.6259,1.604,1.6843,1.7165,1.7173,1.8477,1.9287,1.933,1.995,2.0205,1.9557,1.8883,1.816,1.7465,1.738,1.7275,1.7007,1.6834,1.654,1.6139,1.6046,1.6099,1.6496,1.675,1.6954,1.7273,1.734,1.738,1.7527,1.738,1.7085,1.674,1.646,1.6166,1.5899,1.5832,1.5832,1.5832,1.5832,1.5832,1.5832,1.5832,1.5832,1.5832,1.5832,1.5832,1.5832,1.5832,1.5832,1.5832,1.5832,1.5832,1.5832,1.5832,1.5832,2.7709,2.7549,2.6774,2.5945,2.513,2.5104,2.477,2.4275,2.3928,2.3621,2.3354,2.302,2.2712,2.2485,2.2337,2.1961,2.1628,2.1561,2.1538,2.1348,2.1475,2.1348,2.1235,2.1235,2.1159,2.1109,2.1109,2.1109,2.1109,2.1109,2.1109,2.1109,2.1299,2.2027,2.3127,2.3122,2.3732,2.4762,2.4605,2.5026,2.6175,2.6225,2.6658,2.7261,2.6284,2.5323,2.4542,2.3064,2.2067,2.1999,2.1377,2.1098,2.1048,2.0703,2.0119,1.9265,1.8974,1.8383,1.7391,1.6935,1.6567,1.6362,1.6405,1.6843,1.7703,1.8248,1.8916,2.0087,1.9241,1.872,1.8696,1.8817,1.8654,1.7765,1.7822,1.7796,1.7528,1.7007,1.674,1.6593,1.642,1.6549,1.7058,1.7166,1.73,1.7501,1.7555,1.7555,1.7528,1.7393,1.7125,1.6767,1.6486,1.6179,1.5912,1.5832,1.5832,1.5832,1.5832,1.5832,1.5832,1.5832,1.5832,1.5832,1.5832,1.5832,1.5832,1.5832,1.5832,1.5832,1.5832,1.5832,1.5832,1.5832,1.5832,2.7201,2.68,2.6119,2.5531,2.5064,2.469,2.4396,2.4155,2.3688,2.3434,2.3287,2.2993,2.2806,2.2672,2.2191,2.183,2.1601,2.1243,2.1109,2.1109,2.1109,2.1109,2.1109,2.1109,2.1109,2.1109,2.1109,2.1109,2.1109,2.1109,2.1109,2.1109,2.1109,2.1425,2.1888,2.1804,2.2109,2.2595,2.3052,2.3626,2.4017,2.4594,2.5065,2.5212,2.5666,2.4767,2.2554,2.1829,2.0948,1.9527,2.0039,2.0328,2.0096,1.9787,1.9115,1.8034,1.7858,1.7654,1.7244,1.7099,1.686,1.6593,1.6553,1.6833,1.7396,1.7636,1.8034,1.8565,1.8523,1.8171,1.8157,1.8265,1.8177,1.7956,1.7916,1.7862,1.7422,1.7166,1.6978,1.678,1.6804,1.6991,1.7179,1.7367,1.7462,1.7555,1.7582,1.7595,1.7582,1.7527,1.7261,1.6874,1.6767,1.671,1.6166,1.5939,1.5784,1.5832,1.5832,1.5784,1.5784,1.5784,1.5832,1.5832,1.5832,1.5832,1.5832,1.5872,1.5872,1.5832,1.5832,1.5832,1.5832,1.5832,1.5832,2.664,2.6066,2.5571,2.5211,2.4903,2.4516,2.4235,2.4035,2.3634,2.3367,2.3166,2.2953,2.2819,2.2672,2.2298,2.1964,2.1722,2.1296,2.1109,2.1109,2.1109,2.1109,2.1109,2.1109,2.1109,2.1109,2.1109,2.1109,2.1109,2.1109,2.1109,2.1109,2.1109,2.1109,2.1109,2.1109,2.1109,2.1308,2.1858,2.2309,2.2662,2.3224,2.3454,2.34,2.415,2.3651,2.1369,2.0776,1.9835,1.8659,1.9134,1.9459,1.9089,1.8824,1.8292,1.7443,1.734,1.734,1.7326,1.7259,1.7112,1.6874,1.6847,1.6941,1.7192,1.7367,1.7635,1.7956,1.8156,1.821,1.8195,1.8063,1.7969,1.813,1.8049,1.7943,1.7622,1.738,1.7125,1.6967,1.7221,1.7408,1.7475,1.7716,1.7809,1.7756,1.7729,1.7716,1.7609,1.7569,1.7435,1.6981,1.7058,1.6924,1.6553,1.6299,1.6233,1.6219,1.5925,1.5851,1.5891,1.5864,1.5838,1.5858,1.5845,1.5832,1.5858,1.5912,1.5899,1.5858,1.5832,1.5832,1.5832,1.5832,1.5845,2.6066,2.5545,2.5211,2.493,2.4676,2.4556,2.4262,2.3834,2.3714,2.3354,2.3008,2.2928,2.2726,2.2498,2.2418,2.2245,2.1937,2.1443,2.1189,2.1162,2.1122,2.1109,2.1109,2.1109,2.1109,2.1109,2.1109,2.1109,2.1109,2.1109,2.1109,2.1109,2.1109,2.1109,2.1109,2.1109,2.1109,2.1119,2.1029,2.1471,2.2581,2.2349,2.2022,2.1991,2.1895,2.1672,2.1472,1.9919,1.9031,1.8851,1.868,1.8412,1.8185,1.7861,1.7621,1.7594,1.7569,1.7569,1.7581,1.7367,1.7259,1.7259,1.7233,1.7235,1.7434,1.7742,1.7982,1.8156,1.8343,1.8584,1.8771,1.8611,1.8464,1.8464,1.8263,1.817,1.8156,1.7715,1.7219,1.73,1.7635,1.7942,1.8035,1.817,1.821,1.809,1.8009,1.7903,1.7702,1.7662,1.7488,1.7273,1.7219,1.7088,1.6887,1.6714,1.6714,1.6647,1.6246,1.6032,1.6166,1.6192,1.6126,1.6086,1.6099,1.6099,1.6126,1.6166,1.6099,1.6046,1.5965,1.5899,1.5925,1.5939,1.5899,2.5865,2.5491,2.5197,2.4917,2.4596,2.4209,2.3915,2.3728,2.334,2.3102,2.2954,2.2859,2.2806,2.2686,2.2512,2.2365,2.2258,2.1884,2.1617,2.1416,2.1216,2.1122,2.1109,2.1109,2.1109,2.1109,2.1109,2.1109,2.1109,2.1109,2.1109,2.1109,2.1109,2.1109,2.1109,2.1109,2.1109,2.1096,2.1029,2.1194,2.1362,2.1216,2.1008,2.0727,2.0496,2.0344,2.033,1.9662,1.9132,1.8888,1.8838,1.8557,1.8049,1.7756,1.7595,1.7582,1.7582,1.7582,1.7582,1.7528,1.7555,1.7702,1.7756,1.7876,1.8036,1.8223,1.8437,1.8528,1.8731,1.8838,1.8878,1.8851,1.8784,1.8784,1.8531,1.8277,1.817,1.7756,1.7595,1.7742,1.7889,1.8075,1.8277,1.8357,1.8303,1.8343,1.821,1.7969,1.7876,1.7862,1.7675,1.734,1.7367,1.738,1.7128,1.7034,1.7061,1.6954,1.6607,1.6339,1.6446,1.6433,1.6366,1.6353,1.6366,1.638,1.6406,1.642,1.638,1.6259,1.6166,1.6126,1.6112,1.6046,1.5939,2.5678,2.5478,2.509,2.481,2.4596,2.4128,2.3875,2.3714,2.3247,2.2979,2.2954,2.2859,2.2859,2.2819,2.2659,2.2592,2.2552,2.2285,2.2044,2.1844,2.1563,2.139,2.1269,2.1149,2.1109,2.1136,2.1216,2.1269,2.1283,2.1376,2.139,2.1296,2.1269,2.1216,2.1122,2.1109,2.1109,2.1109,2.1096,2.1015,2.0828,2.0628,2.0468,2.0347,2.0013,1.9826,1.9786,1.9613,1.9386,1.9132,1.8998,1.8635,1.825,1.8023,1.7876,1.7796,1.7862,1.7929,1.7916,1.7943,1.7996,1.817,1.821,1.8277,1.8464,1.8557,1.8744,1.8878,1.9025,1.9092,1.9078,1.8971,1.8971,1.9078,1.8718,1.8384,1.809,1.7876,1.7836,1.7969,1.8182,1.8382,1.8544,1.8664,1.8544,1.8624,1.849,1.8169,1.8089,1.7982,1.7729,1.7502,1.7514,1.7487,1.7393,1.7393,1.7447,1.7221,1.6981,1.682,1.6844,1.6673,1.6567,1.662,1.6647,1.6633,1.666,1.678,1.6794,1.6607,1.6393,1.6326,1.6273,1.6005,1.5864,2.5531,2.5438,2.4877,2.4649,2.4596,2.4275,2.3981,2.3754,2.3394,2.31,2.2899,2.2859,2.2859,2.2859,2.2819,2.2819,2.2806,2.2579,2.2432,2.2352,2.2138,2.1897,2.159,2.1363,2.1269,2.1283,2.147,2.1628,2.1655,2.1737,2.183,2.1601,2.1521,2.139,2.1149,2.1109,2.1109,2.1109,2.1109,2.1096,2.1056,2.0628,2.0441,2.0668,2.0201,1.9907,1.9867,1.9746,1.9599,1.9372,1.9065,1.8798,1.8571,1.8504,1.8303,1.8035,1.833,1.841,1.8464,1.8397,1.845,1.8504,1.8517,1.8531,1.8637,1.8838,1.8958,1.9011,1.9185,1.939,1.9292,1.9145,1.9105,1.9199,1.8798,1.8384,1.8049,1.7969,1.7969,1.8075,1.8475,1.8861,1.8878,1.9065,1.9078,1.9011,1.8878,1.8597,1.8249,1.813,1.7943,1.7782,1.7622,1.7569,1.7502,1.7501,1.7541,1.7422,1.7248,1.7194,1.7166,1.6981,1.6914,1.6954,1.6941,1.6927,1.6967,1.7101,1.7099,1.6834,1.666,1.6553,1.642,1.6246,1.6166,2.5718,2.5451,2.4877,2.4636,2.4556,2.4102,2.3848,2.3701,2.3207,2.2953,2.2873,2.2859,2.2859,2.2859,2.2859,2.2859,2.2832,2.2779,2.2752,2.2739,2.2686,2.2338,2.1964,2.179,2.1737,2.175,2.1817,2.1871,2.1857,2.1856,2.1748,2.1614,2.1376,2.1216,2.1109,2.1109,2.1109,2.1109,2.1109,2.1109,2.1082,2.0962,2.0909,2.0935,2.0615,2.0321,2.0094,1.9693,1.9524,1.9359,1.9078,1.8835,1.8784,1.8624,1.849,1.8424,1.845,1.8504,1.8517,1.8517,1.8597,1.8784,1.8811,1.8905,1.9118,1.9199,1.9252,1.9265,1.9332,1.943,1.9417,1.935,1.9212,1.9011,1.8731,1.8397,1.8089,1.8036,1.8023,1.8049,1.8597,1.8878,1.8971,1.9025,1.9132,1.9172,1.9052,1.8824,1.8517,1.8477,1.8397,1.7929,1.7716,1.7702,1.7662,1.7609,1.7569,1.7555,1.7502,1.7475,1.7435,1.7382,1.7368,1.7395,1.7301,1.7261,1.7341,1.7448,1.7261,1.7099,1.7018,1.6924,1.6911,1.674,1.6687,2.5785,2.5464,2.4877,2.4636,2.4556,2.4008,2.3781,2.3661,2.314,2.2859,2.2859,2.2859,2.2859,2.2859,2.2859,2.2859,2.2859,2.2859,2.2859,2.2859,2.2846,2.2579,2.2231,2.2071,2.1991,2.2004,2.2111,2.2164,2.2151,2.1991,2.1924,2.1857,2.1496,2.1309,2.1296,2.1149,2.1109,2.1109,2.1109,2.1109,2.1109,2.0989,2.1015,2.1015,2.0828,2.0535,2.0214,1.9786,1.9564,1.9372,1.9199,1.9052,1.8931,1.8905,1.8798,1.8704,1.8784,1.8865,1.8865,1.8865,1.8931,1.9065,1.9105,1.9185,1.9305,1.943,1.943,1.9417,1.943,1.943,1.943,1.943,1.9225,1.8985,1.8771,1.8544,1.8209,1.8357,1.8397,1.8517,1.8798,1.9105,1.9105,1.9092,1.9185,1.9279,1.9225,1.8985,1.8758,1.8851,1.8758,1.825,1.8023,1.8063,1.8063,1.7996,1.7956,1.7903,1.7782,1.7769,1.7675,1.7649,1.7569,1.7555,1.7569,1.7582,1.7582,1.7582,1.7488,1.738,1.7313,1.7259,1.7233,1.7099,1.7034,2.5785,2.5464,2.4877,2.4636,2.4543,2.4062,2.3848,2.3714,2.3207,2.2939,2.2926,2.2954,2.2859,2.2859,2.2859,2.2859,2.2859,2.2859,2.2859,2.2859,2.2846,2.2699,2.2485,2.2285,2.2191,2.2191,2.2365,2.2445,2.2432,2.2418,2.2392,2.2218,2.183,2.1655,2.1547,2.1296,2.1162,2.1109,2.1109,2.1109,2.1069,2.0935,2.0935,2.1042,2.0828,2.0575,2.0294,1.996,1.9679,1.9497,1.9444,1.9225,1.9038,1.9239,1.9212,1.9052,1.9158,1.935,1.939,1.9336,1.939,1.939,1.939,1.943,1.943,1.943,1.943,1.943,1.943,1.943,1.943,1.943,1.9225,1.8998,1.8918,1.8838,1.8664,1.8771,1.8918,1.8905,1.9145,1.939,1.939,1.9403,1.9417,1.939,1.9279,1.9118,1.8971,1.8985,1.8824,1.8477,1.841,1.849,1.8464,1.8437,1.8384,1.8343,1.8156,1.805,1.7862,1.7782,1.7649,1.7582,1.7582,1.7582,1.7582,1.7582,1.7582,1.7568,1.7447,1.7474,1.7448,1.7235,1.7141,2.5785,2.5464,2.4877,2.4636,2.4569,2.4262,2.4102,2.4048,2.3487,2.322,2.3166,2.2979,2.2941,2.2859,2.2859,2.2859,2.2859,2.2859,2.2859,2.2859,2.2859,2.2832,2.2752,2.2645,2.2659,2.2659,2.2712,2.2766,2.2726,2.2525,2.2418,2.2378,2.2071,2.1777,2.1641,2.1547,2.1323,2.1149,2.1109,2.1109,2.1109,2.1042,2.1029,2.1082,2.0842,2.0668,2.0494,2.008,1.9786,1.9666,1.9492,1.9359,1.9279,1.9377,1.9319,1.9292,1.9363,1.943,1.943,1.943,1.943,1.943,1.943,1.943,1.943,1.943,1.943,1.943,1.943,1.943,1.943,1.943,1.9239,1.9065,1.9118,1.9145,1.8918,1.8891,1.8865,1.8811,1.9065,1.9292,1.9092,1.9279,1.939,1.9417,1.9305,1.9212,1.9172,1.9145,1.8958,1.8704,1.8744,1.8798,1.8731,1.8718,1.8718,1.8664,1.8517,1.8397,1.821,1.7943,1.7822,1.7689,1.7582,1.7609,1.7716,1.7689,1.7729,1.7622,1.7569,1.7595,1.7582,1.7395,1.7275,2.5785,2.5464,2.4802,2.4636,2.4583,2.4329,2.4209,2.4115,2.3741,2.346,2.3313,2.314,2.3006,2.2941,2.2859,2.2859,2.2859,2.2859,2.2859,2.2859,2.2859,2.2859,2.2859,2.2859,2.2859,2.2859,2.2859,2.2859,2.2779,2.2605,2.2498,2.2565,2.2218,2.1924,2.1802,2.1695,2.139,2.1162,2.1109,2.1109,2.1109,2.1109,2.1109,2.1096,2.0949,2.0828,2.0641,2.0254,1.996,1.98,1.9653,1.9506,1.9457,1.943,1.943,1.943,1.943,1.943,1.943,1.943,1.943,1.943,1.943,1.943,1.943,1.943,1.943,1.943,1.943,1.943,1.943,1.943,1.9252,1.9212,1.9323,1.9279,1.9172,1.9132,1.9092,1.8985,1.9256,1.9265,1.9265,1.9305,1.939,1.9417,1.943,1.9292,1.9292,1.9265,1.9212,1.9078,1.9105,1.9092,1.8998,1.8985,1.9011,1.8945,1.8838,1.8744,1.8624,1.8317,1.8009,1.7903,1.7809,1.7876,1.7956,1.7916,1.7943,1.8009,1.7996,1.7876,1.7742,1.7609,1.7515,2.5745,2.5464,2.489,2.4636,2.4596,2.4382,2.4289,2.4235,2.3968,2.3688,2.342,2.3367,2.3126,2.2913,2.2859,2.2859,2.2859,2.2859,2.2859,2.2859,2.2859,2.2859,2.2859,2.2859,2.2859,2.2859,2.2859,2.2859,2.2792,2.2645,2.2645,2.2807,2.2485,2.2164,2.2017,2.1817,2.1563,2.1269,2.1229,2.1162,2.1109,2.1109,2.1109,2.1096,2.1082,2.0975,2.0775,2.0481,2.0201,1.996,1.9893,1.9733,1.9573,1.9492,1.9412,1.947,1.9484,1.9497,1.9444,1.943,1.943,1.943,1.943,1.943,1.943,1.943,1.943,1.943,1.943,1.943,1.943,1.943,1.943,1.9403,1.9417,1.943,1.943,1.943,1.9377,1.9377,1.9363,1.9363,1.939,1.9417,1.9417,1.943,1.943,1.943,1.943,1.9417,1.9305,1.9279,1.9265,1.931,1.9229,1.9202,1.9185,1.9158,1.9078,1.9038,1.8971,1.8811,1.8517,1.8183,1.8049,1.817,1.8196,1.8183,1.825,1.841,1.8357,1.817,1.7996,1.7849,1.7756,2.5558,2.5464,2.4877,2.4636,2.4623,2.4583,2.4543,2.4516,2.4235,2.3968,2.3674,2.3434,2.3153,2.2926,2.2859,2.2859,2.2859,2.2859,2.2859,2.2859,2.2859,2.2859,2.2859,2.2913,2.2899,2.2859,2.2886,2.2899,2.2859,2.2819,2.2779,2.2819,2.2739,2.2579,2.2352,2.2258,2.1897,2.147,2.139,2.1296,2.1149,2.1109,2.1109,2.1109,2.1109,2.1069,2.0975,2.0762,2.0575,2.0508,2.0294,2.0147,2.0067,2.0054,1.9867,1.9573,1.9599,1.9599,1.9452,1.9457,1.943,1.943,1.9457,1.9444,1.9444,1.9457,1.9497,1.9439,1.9426,1.9457,1.943,1.9484,1.9457,1.9444,1.943,1.9444,1.9444,1.943,1.943,1.943,1.943,1.943,1.943,1.943,1.943,1.943,1.943,1.943,1.943,1.943,1.9403,1.9403,1.9403,1.9403,1.939,1.9363,1.9377,1.9363,1.931,1.931,1.9225,1.9265,1.9052,1.8571,1.837,1.8397,1.8424,1.8437,1.8531,1.8664,1.8557,1.8424,1.829,1.8102,1.7916,2.5424,2.5237,2.481,2.4636,2.4636,2.4636,2.4636,2.4509,2.4329,2.4035,2.3754,2.346,2.3153,2.2926,2.2859,2.2859,2.2859,2.2859,2.2859,2.2859,2.2859,2.2859,2.2913,2.302,2.3086,2.31,2.31,2.3006,2.2941,2.2859,2.2859,2.2859,2.2859,2.2712,2.2432,2.2231,2.1991,2.1695,2.143,2.1269,2.1122,2.1109,2.1109,2.1109,2.1109,2.1109,2.1056,2.0828,2.0681,2.0641,2.0535,2.0388,2.0361,2.0441,2.0414,1.9947,1.9826,1.976,1.9626,1.9599,1.9599,1.9599,1.9586,1.9586,1.9586,1.9613,1.9653,1.976,1.9813,1.9813,1.9826,1.9679,1.9679,1.972,1.9573,1.9466,1.9506,1.9439,1.9457,1.943,1.943,1.943,1.943,1.943,1.943,1.943,1.943,1.943,1.943,1.943,1.943,1.943,1.943,1.943,1.9444,1.9484,1.9444,1.943,1.947,1.947,1.9417,1.9403,1.9132,1.8744,1.8664,1.8704,1.8758,1.8811,1.8878,1.8891,1.8811,1.8718,1.8597,1.8395,1.8195,2.5344,2.505,2.4756,2.4636,2.4623,2.4569,2.4543,2.4489,2.4235,2.3941,2.3674,2.3434,2.3153,2.2926,2.2859,2.2859,2.2859,2.2859,2.2859,2.2859,2.2873,2.2873,2.3033,2.3166,2.3287,2.326,2.3273,2.3193,2.302,2.2899,2.2859,2.2859,2.2859,2.2766,2.2525,2.2392,2.2057,2.1724,2.1443,2.1269,2.1136,2.1109,2.1109,2.1109,2.1109,2.1109,2.1082,2.0922,2.0815,2.0788,2.0748,2.0668,2.0535,2.0855,2.0882,2.0454,2.0134,1.9987,1.9893,1.9893,1.988,1.988,1.9893,1.9893,1.9893,1.9907,1.996,2.0187,2.0201,2.0174,2.012,2.0013,1.9973,1.9933,1.972,1.9492,1.9546,1.9506,1.9444,1.943,1.943,1.943,1.943,1.943,1.943,1.943,1.943,1.943,1.943,1.943,1.943,1.943,1.943,1.943,1.947,1.9506,1.9497,1.943,1.9524,1.9578,1.9497,1.9417,1.9145,1.9038,1.9065,1.9176,1.9158,1.9145,1.9145,1.9132,1.9078,1.9025,1.8931,1.8731,1.8435,2.5344,2.505,2.4756,2.4636,2.4596,2.4396,2.4275,2.4235,2.3968,2.3661,2.342,2.3327,2.3126,2.2926,2.2859,2.2859,2.2859,2.2859,2.2859,2.2859,2.2873,2.2979,2.3207,2.3287,2.334,2.3354,2.334,2.3313,2.318,2.2979,2.2941,2.2859,2.2859,2.2832,2.2752,2.2605,2.2605,2.2298,2.1991,2.1603,2.1216,2.1122,2.1109,2.1109,2.1109,2.1109,2.1109,2.1029,2.1015,2.1015,2.1029,2.1029,2.1029,2.1042,2.1096,2.0949,2.0748,2.0468,2.0241,2.0187,2.0174,2.0187,2.0187,2.0127,2.0187,2.0187,2.0214,2.0214,2.0267,2.0321,2.0286,2.0167,2.0094,1.9973,1.9867,1.9639,1.9586,1.9613,1.9551,1.9511,1.9551,1.947,1.943,1.943,1.943,1.943,1.943,1.943,1.943,1.943,1.943,1.943,1.9524,1.9551,1.9559,1.9639,1.9653,1.9506,1.9586,1.9679,1.9559,1.9564,1.9546,1.9479,1.9524,1.943,1.9279,1.9265,1.9403,1.9377,1.9225,1.9265,1.9363,1.9052,1.8704,2.509,2.481,2.469,2.4636,2.4623,2.4502,2.4356,2.4168,2.3901,2.3607,2.3327,2.3126,2.2979,2.2804,2.2859,2.2859,2.2859,2.2859,2.2859,2.2859,2.2873,2.3008,2.3113,2.338,2.3527,2.338,2.346,2.346,2.33,2.3046,2.2859,2.2859,2.2859,2.2859,2.2846,2.2686,2.2552,2.2298,2.1991,2.1695,2.139,2.1203,2.1109,2.1109,2.1109,2.1109,2.1109,2.1109,2.1109,2.1109,2.1109,2.1109,2.1109,2.1109,2.1096,2.1096,2.1002,2.0775,2.0535,2.0494,2.0481,2.0481,2.0481,2.0481,2.0481,2.0494,2.0575,2.0722,2.0735,2.0722,2.0655,2.0575,2.0561,2.0414,2.008,2.004,1.9893,1.9693,1.9639,1.9626,1.9599,1.9546,1.9479,1.9484,1.947,1.943,1.943,1.943,1.943,1.943,1.943,1.943,1.9564,1.9653,1.976,1.9853,1.9987,1.992,1.9947,1.9947,1.9733,1.9666,1.9733,1.9666,1.9519,1.9439,1.9372,1.9345,1.9417,1.943,1.9417,1.943,1.9403,1.9132,1.8824,2.4836,2.4636,2.4636,2.4636,2.4609,2.4489,2.4289,2.4075,2.3674,2.3407,2.3067,2.2553,2.2173,2.216,2.216,2.2297,2.2859,2.2859,2.2859,2.2859,2.2873,2.2926,2.3126,2.3447,2.3514,2.3327,2.3474,2.3487,2.3313,2.3113,2.2979,2.2873,2.2859,2.2859,2.2806,2.2699,2.2552,2.2392,2.2058,2.1804,2.163,2.1376,2.1269,2.1216,2.1162,2.1109,2.1109,2.1109,2.1109,2.1109,2.1109,2.1109,2.1109,2.1109,2.1109,2.1109,2.1069,2.1002,2.0842,2.0788,2.0788,2.0788,2.0788,2.0775,2.0788,2.0788,2.0828,2.1029,2.1042,2.1056,2.1056,2.0882,2.0802,2.0641,2.0414,2.0441,2.0401,2.0107,1.984,1.976,1.9733,1.9733,1.9653,1.9533,1.9524,1.9444,1.943,1.943,1.9457,1.9484,1.9537,1.9564,1.9626,1.9813,1.9987,2.0094,2.0167,2.0247,2.026,2.0227,2.0,1.9907,1.9947,1.9813,1.9666,1.9626,1.9639,1.9492,1.943,1.943,1.943,1.943,1.9363,1.9118,1.8971,2.4576,2.4636,2.4636,2.4623,2.4583,2.4048,2.3834,2.3527,2.3137,2.2773,2.2169,2.1183,2.034,2.0409,2.0548,2.1183,2.2791,2.2859,2.2654,2.2654,2.2886,2.2993,2.3166,2.3287,2.338,2.334,2.346,2.3447,2.3327,2.33,2.31,2.2981,2.2953,2.2899,2.2859,2.2819,2.2659,2.2512,2.2298,2.2138,2.1937,2.1697,2.1537,2.1456,2.1283,2.1109,2.1109,2.1109,2.1109,2.1109,2.1109,2.1109,2.1109,2.1109,2.1109,2.1109,2.1109,2.1069,2.1015,2.1002,2.1056,2.1069,2.1056,2.1015,2.1002,2.1042,2.1096,2.1096,2.1096,2.1109,2.1109,2.1069,2.0962,2.0815,2.0628,2.0575,2.0521,2.0374,2.012,1.9947,1.9907,1.996,1.9853,1.9746,1.9626,1.9546,1.9506,1.9519,1.9559,1.9599,1.9666,1.972,1.98,1.9973,2.0201,2.0361,2.0548,2.0588,2.0575,2.0454,2.0267,2.0227,2.0201,2.012,2.0,1.996,1.984,1.9599,1.9497,1.9444,1.943,1.943,1.943,1.9265,1.9118,2.4636,2.4636,2.4636,2.4529,2.4356,2.4128,2.3164,2.1894,2.1517,2.0541,1.9426,1.8718,1.9008,1.9495,1.8798,1.9356,2.0963,2.117,2.1183,2.1665,2.2186,2.2871,2.3086,2.315,2.3327,2.3354,2.3474,2.3607,2.3607,2.3474,2.33,2.318,2.3193,2.3153,2.3126,2.2939,2.2792,2.2686,2.2525,2.2338,2.2245,2.1977,2.1817,2.179,2.1601,2.1403,2.1363,2.1189,2.1136,2.1109,2.1109,2.1109,2.1109,2.1109,2.1109,2.1109,2.1109,2.1109,2.1109,2.1109,2.1109,2.1109,2.1096,2.1109,2.1109,2.1109,2.1109,2.1109,2.1109,2.1109,2.1109,2.1109,2.1042,2.0935,2.0828,2.0735,2.0668,2.0561,2.0441,2.0267,2.0241,2.0281,2.012,1.9947,1.9826,1.972,1.9679,1.9666,1.9746,1.9813,1.9893,2.0013,2.0107,2.0254,2.0481,2.0681,2.0869,2.0855,2.0815,2.0695,2.0548,2.0521,2.0494,2.0414,2.0307,2.0187,1.9987,1.9666,1.9578,1.9591,1.9511,1.943,1.943,1.943,1.9265,2.4636,2.4636,2.4636,2.4529,2.4329,2.4142,2.2734,2.0876,2.0545,1.885,1.65,1.6452,1.7499,1.8385,1.743,1.8135,1.9562,1.9761,1.9343,1.9878,2.0894,2.1885,2.2306,2.2743,2.3153,2.3273,2.3487,2.3621,2.3728,2.3634,2.3701,2.3728,2.3607,2.35,2.31,2.2993,2.2859,2.2806,2.2686,2.2552,2.2512,2.2271,2.2111,2.2044,2.175,2.1601,2.1507,2.1269,2.1122,2.1109,2.1109,2.1109,2.1109,2.1109,2.1109,2.1109,2.1109,2.1109,2.1109,2.1109,2.1109,2.1109,2.1109,2.1109,2.1109,2.1109,2.1109,2.1109,2.1109,2.1109,2.1109,2.1109,2.1109,2.1002,2.0962,2.0882,2.0922,2.0855,2.0735,2.0601,2.0615,2.0601,2.0281,2.0107,2.0067,1.9973,1.996,1.996,2.0013,2.0094,2.0187,2.0321,2.0468,2.0628,2.0802,2.0895,2.0989,2.0989,2.0962,2.0949,2.0855,2.0815,2.0708,2.0588,2.0481,2.0374,2.0227,2.0027,1.9853,1.9706,1.9613,1.9519,1.943,1.943,1.943,2.4636,2.4636,2.4636,2.4623,2.4529,2.4022,2.2645,2.0482,1.9738,1.7786,1.4877,1.4597,1.5675,1.6868,1.5597,1.6539,1.8642,1.8133,1.7633,1.8227,1.9924,2.0342,2.1269,2.219,2.3193,2.302,2.334,2.3701,2.3848,2.3888,2.4142,2.4262,2.4035,2.3661,2.2966,2.2873,2.2859,2.2859,2.2901,2.2806,2.2739,2.2525,2.2432,2.2298,2.1897,2.1708,2.1577,2.1283,2.1122,2.1109,2.1109,2.1109,2.1109,2.1109,2.1109,2.1109,2.1109,2.1109,2.1109,2.1109,2.1109,2.1109,2.1109,2.1109,2.1109,2.1109,2.1109,2.1109,2.1109,2.1109,2.1109,2.1109,2.1109,2.1082,2.1029,2.1015,2.1042,2.1056,2.0909,2.0842,2.0922,2.0909,2.0508,2.0241,2.0207,2.018,2.0167,2.0207,2.0334,2.0414,2.0521,2.0601,2.0748,2.0815,2.0949,2.1029,2.1082,2.1109,2.1096,2.1056,2.1042,2.1002,2.0895,2.0762,2.0668,2.0588,2.0535,2.0454,2.0254,2.004,1.9826,1.9693,1.9564,1.943,1.943,2.4636,2.4636,2.4636,2.4636,2.4556,2.4022,2.1914,1.8627,1.5957,1.3922,1.2976,1.2699,1.3778,1.4558,1.4164,1.4423,1.6259,1.6559,1.6049,1.7826,1.9453,2.1302,2.2294,2.2845,2.3514,2.3728,2.3901,2.4008,2.4369,2.4182,2.4115,2.4195,2.4128,2.3674,2.3233,2.3006,2.2859,2.2859,2.2859,2.2859,2.2914,2.2752,2.2699,2.2672,2.2191,2.1844,2.1777,2.139,2.1162,2.1109,2.1109,2.1109,2.1109,2.1109,2.1109,2.1109,2.1109,2.1109,2.1109,2.1109,2.1109,2.1109,2.1109,2.1109,2.1109,2.1109,2.1109,2.1109,2.1109,2.1109,2.1109,2.1109,2.1109,2.1109,2.1082,2.1082,2.1096,2.1096,2.1042,2.1029,2.1069,2.1056,2.0815,2.0468,2.0414,2.0561,2.0575,2.0668,2.0748,2.0815,2.0909,2.0922,2.0989,2.1029,2.1082,2.1096,2.1109,2.1109,2.1109,2.1096,2.1096,2.1109,2.1056,2.0935,2.0869,2.0802,2.0788,2.0735,2.0575,2.0388,2.0134,1.98,1.9533,1.947,1.943,2.3574,2.35,2.2806,2.2967,2.3423,2.3075,2.0573,1.6632,1.3336,1.1857,1.1884,1.1889,1.2984,1.3832,1.3088,1.3089,1.4844,1.4274,1.5007,1.6975,1.8851,2.0491,2.2107,2.3509,2.3768,2.4062,2.4195,2.4289,2.4409,2.4195,2.4235,2.4289,2.4075,2.3888,2.3594,2.3407,2.3153,2.3126,2.306,2.2979,2.2913,2.2846,2.2846,2.2712,2.2418,2.2098,2.1884,2.1577,2.1216,2.1149,2.1109,2.1109,2.1109,2.1109,2.1109,2.1109,2.1109,2.1109,2.1109,2.1109,2.1109,2.1109,2.1109,2.1109,2.1109,2.1109,2.1109,2.1109,2.1109,2.1109,2.1109,2.1109,2.1109,2.1109,2.1109,2.1109,2.1109,2.1109,2.1109,2.1109,2.1082,2.1082,2.1069,2.0815,2.0575,2.0762,2.0935,2.1015,2.1069,2.1082,2.1109,2.1096,2.1096,2.1082,2.1082,2.1096,2.1109,2.1109,2.1109,2.1109,2.1109,2.1109,2.1109,2.1096,2.1015,2.0975,2.1042,2.0989,2.0802,2.0601,2.0361,2.0013,1.9658,1.9537,1.9511,2.159,2.1216,1.9392,1.9822,2.1233,2.099,1.8579,1.506,1.2764,1.1925,1.2026,1.1748,1.2663,1.4138,1.2858,1.317,1.435,1.3188,1.4303,1.5685,1.79,1.9697,2.1595,2.3158,2.3851,2.4008,2.4102,2.4329,2.4289,2.4382,2.4529,2.4502,2.4302,2.4155,2.4008,2.3834,2.3541,2.334,2.314,2.3033,2.2899,2.2859,2.2859,2.2752,2.2539,2.2231,2.1977,2.167,2.1376,2.1216,2.1109,2.1109,2.1109,2.1109,2.1109,2.1109,2.1109,2.1109,2.1109,2.1109,2.1109,2.1109,2.1109,2.1109,2.1109,2.1109,2.1109,2.1109,2.1109,2.1109,2.1109,2.1109,2.1109,2.1109,2.1109,2.1109,2.1109,2.1109,2.1109,2.1082,2.1042,2.1042,2.1042,2.0869,2.0708,2.0895,2.1029,2.1042,2.1082,2.1096,2.1109,2.1109,2.1096,2.1096,2.1109,2.1109,2.1109,2.1109,2.1109,2.1109,2.1109,2.1109,2.1109,2.1109,2.1109,2.1109,2.1109,2.1069,2.0975,2.0775,2.0575,2.0281,1.9893,1.9679,1.9599,2.0671,1.936,1.861,1.8632,1.8979,1.7663,1.6145,1.4753,1.2896,1.1979,1.1891,1.1809,1.2297,1.2858,1.2359,1.2738,1.2796,1.3264,1.5058,1.6578,1.8011,2.0603,2.2558,2.3951,2.4369,2.4382,2.4436,2.4476,2.4516,2.4636,2.4502,2.4329,2.4449,2.4369,2.4249,2.4115,2.3754,2.3434,2.3193,2.3006,2.2913,2.2859,2.2859,2.2779,2.2605,2.2311,2.2031,2.1764,2.147,2.1189,2.1122,2.1109,2.1109,2.1109,2.1109,2.1109,2.1109,2.1109,2.1109,2.1109,2.1122,2.1122,2.1122,2.1109,2.1109,2.1109,2.1109,2.1109,2.1109,2.1109,2.1109,2.1109,2.1109,2.1109,2.1109,2.1109,2.1109,2.1109,2.1096,2.1082,2.1042,2.1015,2.1015,2.0922,2.0802,2.1002,2.1122,2.1149,2.1136,2.1136,2.1109,2.1109,2.1109,2.1109,2.1109,2.1109,2.1109,2.1109,2.1109,2.1109,2.1109,2.1109,2.1109,2.1109,2.1109,2.1109,2.1109,2.1069,2.1029,2.0975,2.0788,2.0494,2.0214,2.0,1.9813,1.8262,1.7151,1.612,1.5789,1.5655,1.4562,1.387,1.3451,1.2547,1.1972,1.1757,1.1696,1.183,1.2019,1.2053,1.219,1.2463,1.2692,1.4449,1.7625,1.8572,2.1193,2.3326,2.4636,2.4596,2.4636,2.4636,2.4596,2.4636,2.4549,2.4516,2.4449,2.4509,2.4516,2.4356,2.4128,2.3848,2.3527,2.326,2.302,2.2913,2.2859,2.2859,2.2832,2.2645,2.2432,2.2178,2.1924,2.1697,2.1363,2.1283,2.1216,2.1162,2.1109,2.1109,2.1109,2.1109,2.1189,2.1256,2.1162,2.1203,2.1216,2.1176,2.1109,2.1109,2.1109,2.1109,2.1109,2.1109,2.1109,2.1109,2.1109,2.1109,2.1109,2.1109,2.1109,2.1109,2.1109,2.1096,2.1082,2.1056,2.1015,2.0962,2.0882,2.0949,2.1203,2.1376,2.1456,2.1363,2.1243,2.1162,2.1109,2.1109,2.1109,2.1109,2.1109,2.1109,2.1109,2.1109,2.1109,2.1109,2.1109,2.1109,2.1109,2.1109,2.1109,2.1109,2.1109,2.1069,2.1015,2.0989,2.0815,2.0548,2.0294,2.0134,1.5055,1.4712,1.2858,1.2405,1.2115,1.2263,1.2113,1.1857,1.2046,1.1952,1.1803,1.1681,1.1714,1.185,1.1877,1.204,1.225,1.2477,1.4586,1.8487,1.8572,2.0767,2.3574,2.4636,2.4636,2.4636,2.4636,2.4636,2.4636,2.4549,2.4475,2.4475,2.4623,2.4335,2.3663,2.3891,2.3754,2.3554,2.3287,2.3046,2.2913,2.2859,2.2859,2.2859,2.2806,2.2699,2.2472,2.2298,2.2164,2.179,2.1574,2.139,2.1203,2.1243,2.1243,2.1176,2.1203,2.1363,2.1443,2.1363,2.1349,2.1349,2.1309,2.1189,2.1149,2.1109,2.1109,2.1109,2.1109,2.1109,2.1109,2.1109,2.1109,2.1109,2.1109,2.1109,2.1109,2.1109,2.1096,2.1096,2.1082,2.1056,2.1069,2.1015,2.1176,2.1507,2.1681,2.1697,2.167,2.1496,2.1363,2.1243,2.1216,2.1216,2.1109,2.1109,2.1109,2.1109,2.1109,2.1109,2.1109,2.1109,2.1109,2.1109,2.1109,2.1109,2.1109,2.1109,2.1109,2.1082,2.1069,2.1082,2.0895,2.0601,2.0441,1.4066,1.2784,1.2153,1.1884,1.1884,1.1884,1.1864,1.183,1.1864,1.1809,1.1681,1.1647,1.1687,1.1723,1.1816,1.1972,1.2203,1.2457,1.4925,1.7426,1.8532,2.071,2.387,2.4609,2.4623,2.4636,2.4636,2.4562,2.4253,2.4253,2.3722,2.2657,2.319,2.3436,2.2583,2.2934,2.3443,2.347,2.3247,2.306,2.2939,2.2886,2.2859,2.2873,2.2914,2.2739,2.2552,2.2418,2.2218,2.1924,2.1722,2.1416,2.1136,2.1537,2.1617,2.1496,2.1521,2.1681,2.1775,2.1695,2.1614,2.1588,2.1456,2.1309,2.1203,2.1136,2.1109,2.1122,2.1122,2.1122,2.1149,2.1149,2.1136,2.1136,2.1109,2.1109,2.1109,2.1109,2.1109,2.1109,2.1109,2.1149,2.1176,2.1296,2.1443,2.1617,2.1804,2.1911,2.1964,2.1871,2.1737,2.1617,2.147,2.1403,2.1243,2.1109,2.1109,2.1109,2.1109,2.1109,2.1109,2.1109,2.1109,2.1109,2.1109,2.1109,2.1109,2.1109,2.1109,2.1109,2.1109,2.1109,2.1109,2.0882,2.0748,1.2794,1.1923,1.1775,1.1735,1.1735,1.1735,1.1735,1.1735,1.1735,1.1694,1.1626,1.1626,1.1667,1.1735,1.1735,1.185,1.2074,1.2081,1.4737,1.7243,1.8914,2.1105,2.2953,2.4543,2.4623,2.4562,2.4562,2.4341,2.3648,2.3042,2.2285,2.0767,2.1515,2.1903,2.1195,2.231,2.3067,2.347,2.322,2.3086,2.3033,2.2953,2.2979,2.2979,2.2926,2.2819,2.2832,2.2699,2.2445,2.2191,2.1911,2.175,2.1617,2.179,2.1857,2.179,2.1777,2.1871,2.1991,2.1937,2.1737,2.171,2.1641,2.1416,2.1216,2.1176,2.1349,2.1363,2.1349,2.1363,2.1483,2.151,2.1403,2.1363,2.1203,2.1109,2.1109,2.1109,2.1109,2.1109,2.1189,2.1363,2.143,2.1603,2.1764,2.2004,2.2164,2.2271,2.2298,2.2245,2.2124,2.1964,2.1869,2.1668,2.148,2.1243,2.1109,2.1109,2.1109,2.1109,2.1109,2.1109,2.1109,2.1109,2.1109,2.1109,2.1109,2.1109,2.1109,2.1109,2.1109,2.1109,2.1109,2.1109,2.0975,1.1626,1.1619,1.1599,1.1606,1.1619,1.1619,1.1626,1.1626,1.1619,1.1626,1.1619,1.1619,1.1619,1.1619,1.1626,1.1721,1.1816,1.1904,1.4441,1.7067,1.8117,2.0823,2.2949,2.4382,2.4436,2.4235,2.4066,2.3103,2.2061,2.1826,2.0991,1.8874,1.8799,1.9478,2.0687,2.1491,2.2031,2.3281,2.3567,2.342,2.3247,2.3073,2.3126,2.314,2.31,2.306,2.3126,2.3073,2.2766,2.2525,2.2258,2.2058,2.2004,2.2071,2.2098,2.2084,2.2044,2.2205,2.2325,2.2138,2.2017,2.1897,2.1775,2.1523,2.1336,2.139,2.1614,2.1722,2.1722,2.1722,2.1777,2.179,2.1735,2.1561,2.1296,2.1122,2.1122,2.1109,2.1109,2.1122,2.1309,2.1561,2.1722,2.183,2.2098,2.2352,2.2525,2.2659,2.2712,2.2619,2.2498,2.2298,2.2098,2.1884,2.1655,2.143,2.1256,2.1109,2.1109,2.1109,2.1109,2.1109,2.1109,2.1109,2.1109,2.1109,2.1109,2.1109,2.1109,2.1109,2.1109,2.1109,2.1109,2.1109,2.1109,1.1619,1.1606,1.1491,1.1504,1.1599,1.1613,1.1619,1.1619,1.1613,1.1619,1.1619,1.1619,1.1619,1.1619,1.1619,1.1687,1.1782,1.1882,1.4383,1.7394,1.7925,2.0639,2.2955,2.3773,2.4069,2.3619,2.2929,2.1888,2.0466,2.0692,1.9629,1.6371,1.7967,1.8638,1.921,2.0255,2.1873,2.3261,2.3848,2.3688,2.3527,2.338,2.3287,2.3316,2.3236,2.3166,2.3207,2.326,2.306,2.2859,2.2672,2.2418,2.2325,2.2378,2.2445,2.2378,2.2338,2.2472,2.2498,2.2311,2.2191,2.2044,2.1884,2.179,2.1697,2.1737,2.1911,2.2111,2.2084,2.1977,2.2031,2.1991,2.1884,2.1655,2.1363,2.1229,2.1162,2.1136,2.1122,2.1229,2.1403,2.1628,2.1762,2.1964,2.2325,2.2525,2.2659,2.2779,2.2806,2.2819,2.2832,2.2619,2.2392,2.2004,2.1722,2.1668,2.1456,2.1269,2.1122,2.1149,2.1149,2.1109,2.1109,2.1109,2.1109,2.1109,2.1109,2.1109,2.1109,2.1109,2.1109,2.1109,2.1109,2.1109,2.1109]}]]